<?xml version="1.0" encoding="utf-8"?>
<gpx xmlns:xsi="http://www.w3.org/2001/XMLSchema-instance" xmlns:xsd="http://www.w3.org/2001/XMLSchema" version="1.1" creator="Shapelink.com" xmlns="http://www.topografix.com/GPX/1/1" xmlns:gpxtpx="http://www.garmin.com/xmlschemas/TrackPointExtension/v1">
  <metadata>
    <name>Ejecutar 5.52 km, 2019-08-31</name>
    <desc></desc>
    <author><name>Peter Littke</name></author> 
    <time>2019-08-31T07:44:49Z</time>
  </metadata>
  <trk>
    <name>Ejecutar 5.52 km, 2019-08-31</name>
    <trkseg>
      <trkpt lat="59.173294" lon="18.143411">
        <ele>59</ele>
        <time>2019-08-31T07:44:49Z</time>
      </trkpt>
      <trkpt lat="59.173293" lon="18.143358">
        <ele>59</ele>
        <time>2019-08-31T07:44:52Z</time>
      </trkpt>
      <trkpt lat="59.173299" lon="18.143288">
        <ele>58</ele>
        <time>2019-08-31T07:44:54Z</time>
      </trkpt>
      <trkpt lat="59.173308" lon="18.143241">
        <ele>58</ele>
        <time>2019-08-31T07:44:55Z</time>
      </trkpt>
      <trkpt lat="59.173321" lon="18.143185">
        <ele>58</ele>
        <time>2019-08-31T07:44:56Z</time>
      </trkpt>
      <trkpt lat="59.173332" lon="18.143155">
        <ele>0</ele>
        <time>2019-08-31T07:44:56Z</time>
      </trkpt>
      <trkpt lat="59.173337" lon="18.143119">
        <ele>57</ele>
        <time>2019-08-31T07:45:08Z</time>
      </trkpt>
      <trkpt lat="59.173348" lon="18.143062">
        <ele>57</ele>
        <time>2019-08-31T07:45:10Z</time>
      </trkpt>
      <trkpt lat="59.17336" lon="18.143001">
        <ele>0</ele>
        <time>2019-08-31T07:45:12Z</time>
      </trkpt>
      <trkpt lat="59.173371" lon="18.142964">
        <ele>57</ele>
        <time>2019-08-31T07:45:13Z</time>
      </trkpt>
      <trkpt lat="59.173387" lon="18.142924">
        <ele>57</ele>
        <time>2019-08-31T07:45:15Z</time>
      </trkpt>
      <trkpt lat="59.173407" lon="18.142885">
        <ele>0</ele>
        <time>2019-08-31T07:45:15Z</time>
      </trkpt>
      <trkpt lat="59.173427" lon="18.142847">
        <ele>57</ele>
        <time>2019-08-31T07:45:16Z</time>
      </trkpt>
      <trkpt lat="59.173453" lon="18.142816">
        <ele>56</ele>
        <time>2019-08-31T07:45:18Z</time>
      </trkpt>
      <trkpt lat="59.17348" lon="18.142801">
        <ele>56</ele>
        <time>2019-08-31T07:45:19Z</time>
      </trkpt>
      <trkpt lat="59.173508" lon="18.142793">
        <ele>56</ele>
        <time>2019-08-31T07:45:20Z</time>
      </trkpt>
      <trkpt lat="59.173536" lon="18.14279">
        <ele>56</ele>
        <time>2019-08-31T07:45:21Z</time>
      </trkpt>
      <trkpt lat="59.173564" lon="18.142796">
        <ele>0</ele>
        <time>2019-08-31T07:45:21Z</time>
      </trkpt>
      <trkpt lat="59.173593" lon="18.142798">
        <ele>56</ele>
        <time>2019-08-31T07:45:22Z</time>
      </trkpt>
      <trkpt lat="59.17362" lon="18.142805">
        <ele>56</ele>
        <time>2019-08-31T07:45:24Z</time>
      </trkpt>
      <trkpt lat="59.173648" lon="18.142814">
        <ele>56</ele>
        <time>2019-08-31T07:45:25Z</time>
      </trkpt>
      <trkpt lat="59.173676" lon="18.142823">
        <ele>56</ele>
        <time>2019-08-31T07:45:26Z</time>
      </trkpt>
      <trkpt lat="59.173703" lon="18.142835">
        <ele>0</ele>
        <time>2019-08-31T07:45:26Z</time>
      </trkpt>
      <trkpt lat="59.173731" lon="18.142851">
        <ele>55</ele>
        <time>2019-08-31T07:45:27Z</time>
      </trkpt>
      <trkpt lat="59.173759" lon="18.142861">
        <ele>55</ele>
        <time>2019-08-31T07:45:29Z</time>
      </trkpt>
      <trkpt lat="59.173785" lon="18.142874">
        <ele>55</ele>
        <time>2019-08-31T07:45:30Z</time>
      </trkpt>
      <trkpt lat="59.173809" lon="18.142887">
        <ele>55</ele>
        <time>2019-08-31T07:45:31Z</time>
      </trkpt>
      <trkpt lat="59.173831" lon="18.142896">
        <ele>0</ele>
        <time>2019-08-31T07:45:31Z</time>
      </trkpt>
      <trkpt lat="59.173857" lon="18.142904">
        <ele>55</ele>
        <time>2019-08-31T07:45:32Z</time>
      </trkpt>
      <trkpt lat="59.173884" lon="18.142917">
        <ele>55</ele>
        <time>2019-08-31T07:45:34Z</time>
      </trkpt>
      <trkpt lat="59.17391" lon="18.14293">
        <ele>0</ele>
        <time>2019-08-31T07:45:34Z</time>
      </trkpt>
      <trkpt lat="59.173934" lon="18.142944">
        <ele>55</ele>
        <time>2019-08-31T07:45:35Z</time>
      </trkpt>
      <trkpt lat="59.173957" lon="18.142945">
        <ele>55</ele>
        <time>2019-08-31T07:45:37Z</time>
      </trkpt>
      <trkpt lat="59.173982" lon="18.142948">
        <ele>54</ele>
        <time>2019-08-31T07:45:38Z</time>
      </trkpt>
      <trkpt lat="59.174006" lon="18.142946">
        <ele>54</ele>
        <time>2019-08-31T07:45:39Z</time>
      </trkpt>
      <trkpt lat="59.174031" lon="18.142954">
        <ele>54</ele>
        <time>2019-08-31T07:45:40Z</time>
      </trkpt>
      <trkpt lat="59.174057" lon="18.142969">
        <ele>0</ele>
        <time>2019-08-31T07:45:40Z</time>
      </trkpt>
      <trkpt lat="59.174081" lon="18.142982">
        <ele>54</ele>
        <time>2019-08-31T07:45:41Z</time>
      </trkpt>
      <trkpt lat="59.174106" lon="18.142996">
        <ele>54</ele>
        <time>2019-08-31T07:45:43Z</time>
      </trkpt>
      <trkpt lat="59.174131" lon="18.143007">
        <ele>0</ele>
        <time>2019-08-31T07:45:43Z</time>
      </trkpt>
      <trkpt lat="59.174157" lon="18.143016">
        <ele>54</ele>
        <time>2019-08-31T07:45:44Z</time>
      </trkpt>
      <trkpt lat="59.174182" lon="18.143031">
        <ele>0</ele>
        <time>2019-08-31T07:45:45Z</time>
      </trkpt>
      <trkpt lat="59.174206" lon="18.14304">
        <ele>53</ele>
        <time>2019-08-31T07:45:46Z</time>
      </trkpt>
      <trkpt lat="59.174233" lon="18.143049">
        <ele>0</ele>
        <time>2019-08-31T07:45:47Z</time>
      </trkpt>
      <trkpt lat="59.17426" lon="18.143065">
        <ele>53</ele>
        <time>2019-08-31T07:45:48Z</time>
      </trkpt>
      <trkpt lat="59.174285" lon="18.143077">
        <ele>53</ele>
        <time>2019-08-31T07:45:50Z</time>
      </trkpt>
      <trkpt lat="59.174314" lon="18.14309">
        <ele>0</ele>
        <time>2019-08-31T07:45:50Z</time>
      </trkpt>
      <trkpt lat="59.174342" lon="18.143104">
        <ele>52</ele>
        <time>2019-08-31T07:45:51Z</time>
      </trkpt>
      <trkpt lat="59.174371" lon="18.143114">
        <ele>52</ele>
        <time>2019-08-31T07:45:53Z</time>
      </trkpt>
      <trkpt lat="59.174401" lon="18.143125">
        <ele>0</ele>
        <time>2019-08-31T07:45:53Z</time>
      </trkpt>
      <trkpt lat="59.174429" lon="18.143137">
        <ele>52</ele>
        <time>2019-08-31T07:45:54Z</time>
      </trkpt>
      <trkpt lat="59.174457" lon="18.143146">
        <ele>52</ele>
        <time>2019-08-31T07:45:56Z</time>
      </trkpt>
      <trkpt lat="59.174482" lon="18.143155">
        <ele>52</ele>
        <time>2019-08-31T07:45:57Z</time>
      </trkpt>
      <trkpt lat="59.17451" lon="18.143163">
        <ele>51</ele>
        <time>2019-08-31T07:45:58Z</time>
      </trkpt>
      <trkpt lat="59.174538" lon="18.143173">
        <ele>0</ele>
        <time>2019-08-31T07:45:58Z</time>
      </trkpt>
      <trkpt lat="59.174564" lon="18.143184">
        <ele>51</ele>
        <time>2019-08-31T07:45:59Z</time>
      </trkpt>
      <trkpt lat="59.174592" lon="18.143195">
        <ele>51</ele>
        <time>2019-08-31T07:46:01Z</time>
      </trkpt>
      <trkpt lat="59.174618" lon="18.143206">
        <ele>51</ele>
        <time>2019-08-31T07:46:02Z</time>
      </trkpt>
      <trkpt lat="59.174645" lon="18.143222">
        <ele>51</ele>
        <time>2019-08-31T07:46:03Z</time>
      </trkpt>
      <trkpt lat="59.174671" lon="18.143237">
        <ele>51</ele>
        <time>2019-08-31T07:46:04Z</time>
      </trkpt>
      <trkpt lat="59.174696" lon="18.143258">
        <ele>0</ele>
        <time>2019-08-31T07:46:04Z</time>
      </trkpt>
      <trkpt lat="59.174721" lon="18.143275">
        <ele>51</ele>
        <time>2019-08-31T07:46:05Z</time>
      </trkpt>
      <trkpt lat="59.174745" lon="18.143296">
        <ele>0</ele>
        <time>2019-08-31T07:46:06Z</time>
      </trkpt>
      <trkpt lat="59.174767" lon="18.143322">
        <ele>50</ele>
        <time>2019-08-31T07:46:07Z</time>
      </trkpt>
      <trkpt lat="59.174789" lon="18.143352">
        <ele>50</ele>
        <time>2019-08-31T07:46:09Z</time>
      </trkpt>
      <trkpt lat="59.174811" lon="18.143383">
        <ele>0</ele>
        <time>2019-08-31T07:46:09Z</time>
      </trkpt>
      <trkpt lat="59.174825" lon="18.143423">
        <ele>50</ele>
        <time>2019-08-31T07:46:10Z</time>
      </trkpt>
      <trkpt lat="59.174835" lon="18.143472">
        <ele>50</ele>
        <time>2019-08-31T07:46:12Z</time>
      </trkpt>
      <trkpt lat="59.174843" lon="18.143527">
        <ele>0</ele>
        <time>2019-08-31T07:46:12Z</time>
      </trkpt>
      <trkpt lat="59.174853" lon="18.143575">
        <ele>50</ele>
        <time>2019-08-31T07:46:13Z</time>
      </trkpt>
      <trkpt lat="59.174868" lon="18.143623">
        <ele>50</ele>
        <time>2019-08-31T07:46:15Z</time>
      </trkpt>
      <trkpt lat="59.174885" lon="18.14366">
        <ele>50</ele>
        <time>2019-08-31T07:46:16Z</time>
      </trkpt>
      <trkpt lat="59.174906" lon="18.143696">
        <ele>0</ele>
        <time>2019-08-31T07:46:16Z</time>
      </trkpt>
      <trkpt lat="59.174927" lon="18.143727">
        <ele>50</ele>
        <time>2019-08-31T07:46:17Z</time>
      </trkpt>
      <trkpt lat="59.174951" lon="18.143749">
        <ele>50</ele>
        <time>2019-08-31T07:46:19Z</time>
      </trkpt>
      <trkpt lat="59.174975" lon="18.143769">
        <ele>49</ele>
        <time>2019-08-31T07:46:20Z</time>
      </trkpt>
      <trkpt lat="59.175" lon="18.143789">
        <ele>49</ele>
        <time>2019-08-31T07:46:21Z</time>
      </trkpt>
      <trkpt lat="59.175025" lon="18.143807">
        <ele>49</ele>
        <time>2019-08-31T07:46:22Z</time>
      </trkpt>
      <trkpt lat="59.175049" lon="18.14383">
        <ele>49</ele>
        <time>2019-08-31T07:46:23Z</time>
      </trkpt>
      <trkpt lat="59.175071" lon="18.143854">
        <ele>0</ele>
        <time>2019-08-31T07:46:23Z</time>
      </trkpt>
      <trkpt lat="59.175091" lon="18.143885">
        <ele>49</ele>
        <time>2019-08-31T07:46:24Z</time>
      </trkpt>
      <trkpt lat="59.175108" lon="18.143919">
        <ele>0</ele>
        <time>2019-08-31T07:46:25Z</time>
      </trkpt>
      <trkpt lat="59.175123" lon="18.143957">
        <ele>49</ele>
        <time>2019-08-31T07:46:26Z</time>
      </trkpt>
      <trkpt lat="59.175137" lon="18.143999">
        <ele>49</ele>
        <time>2019-08-31T07:46:28Z</time>
      </trkpt>
      <trkpt lat="59.175148" lon="18.144047">
        <ele>0</ele>
        <time>2019-08-31T07:46:28Z</time>
      </trkpt>
      <trkpt lat="59.175158" lon="18.144095">
        <ele>49</ele>
        <time>2019-08-31T07:46:29Z</time>
      </trkpt>
      <trkpt lat="59.175167" lon="18.14414">
        <ele>49</ele>
        <time>2019-08-31T07:46:31Z</time>
      </trkpt>
      <trkpt lat="59.175174" lon="18.14419">
        <ele>50</ele>
        <time>2019-08-31T07:46:32Z</time>
      </trkpt>
      <trkpt lat="59.175179" lon="18.144242">
        <ele>50</ele>
        <time>2019-08-31T07:46:33Z</time>
      </trkpt>
      <trkpt lat="59.175184" lon="18.144296">
        <ele>50</ele>
        <time>2019-08-31T07:46:34Z</time>
      </trkpt>
      <trkpt lat="59.175191" lon="18.144346">
        <ele>50</ele>
        <time>2019-08-31T07:46:35Z</time>
      </trkpt>
      <trkpt lat="59.175198" lon="18.144389">
        <ele>50</ele>
        <time>2019-08-31T07:46:36Z</time>
      </trkpt>
      <trkpt lat="59.175208" lon="18.144432">
        <ele>0</ele>
        <time>2019-08-31T07:46:36Z</time>
      </trkpt>
      <trkpt lat="59.175222" lon="18.144471">
        <ele>50</ele>
        <time>2019-08-31T07:46:37Z</time>
      </trkpt>
      <trkpt lat="59.175236" lon="18.144506">
        <ele>50</ele>
        <time>2019-08-31T07:46:39Z</time>
      </trkpt>
      <trkpt lat="59.17525" lon="18.144543">
        <ele>0</ele>
        <time>2019-08-31T07:46:39Z</time>
      </trkpt>
      <trkpt lat="59.175264" lon="18.144583">
        <ele>50</ele>
        <time>2019-08-31T07:46:40Z</time>
      </trkpt>
      <trkpt lat="59.175279" lon="18.144629">
        <ele>50</ele>
        <time>2019-08-31T07:46:42Z</time>
      </trkpt>
      <trkpt lat="59.175294" lon="18.144675">
        <ele>0</ele>
        <time>2019-08-31T07:46:42Z</time>
      </trkpt>
      <trkpt lat="59.175308" lon="18.144723">
        <ele>50</ele>
        <time>2019-08-31T07:46:43Z</time>
      </trkpt>
      <trkpt lat="59.17532" lon="18.144764">
        <ele>50</ele>
        <time>2019-08-31T07:46:45Z</time>
      </trkpt>
      <trkpt lat="59.175334" lon="18.144811">
        <ele>50</ele>
        <time>2019-08-31T07:46:46Z</time>
      </trkpt>
      <trkpt lat="59.175345" lon="18.144856">
        <ele>50</ele>
        <time>2019-08-31T07:46:47Z</time>
      </trkpt>
      <trkpt lat="59.175357" lon="18.144895">
        <ele>50</ele>
        <time>2019-08-31T07:46:48Z</time>
      </trkpt>
      <trkpt lat="59.175368" lon="18.144931">
        <ele>49</ele>
        <time>2019-08-31T07:46:49Z</time>
      </trkpt>
      <trkpt lat="59.17538" lon="18.14497">
        <ele>49</ele>
        <time>2019-08-31T07:46:50Z</time>
      </trkpt>
      <trkpt lat="59.175394" lon="18.145007">
        <ele>0</ele>
        <time>2019-08-31T07:46:50Z</time>
      </trkpt>
      <trkpt lat="59.175407" lon="18.145042">
        <ele>49</ele>
        <time>2019-08-31T07:46:51Z</time>
      </trkpt>
      <trkpt lat="59.175419" lon="18.145082">
        <ele>49</ele>
        <time>2019-08-31T07:46:53Z</time>
      </trkpt>
      <trkpt lat="59.175433" lon="18.145121">
        <ele>49</ele>
        <time>2019-08-31T07:46:54Z</time>
      </trkpt>
      <trkpt lat="59.175447" lon="18.145159">
        <ele>49</ele>
        <time>2019-08-31T07:46:55Z</time>
      </trkpt>
      <trkpt lat="59.175461" lon="18.145195">
        <ele>49</ele>
        <time>2019-08-31T07:46:56Z</time>
      </trkpt>
      <trkpt lat="59.175476" lon="18.145235">
        <ele>0</ele>
        <time>2019-08-31T07:46:56Z</time>
      </trkpt>
      <trkpt lat="59.175492" lon="18.14527">
        <ele>49</ele>
        <time>2019-08-31T07:46:57Z</time>
      </trkpt>
      <trkpt lat="59.175513" lon="18.14531">
        <ele>49</ele>
        <time>2019-08-31T07:46:59Z</time>
      </trkpt>
      <trkpt lat="59.175529" lon="18.145347">
        <ele>49</ele>
        <time>2019-08-31T07:47:00Z</time>
      </trkpt>
      <trkpt lat="59.175547" lon="18.14538">
        <ele>49</ele>
        <time>2019-08-31T07:47:01Z</time>
      </trkpt>
      <trkpt lat="59.175567" lon="18.145423">
        <ele>0</ele>
        <time>2019-08-31T07:47:01Z</time>
      </trkpt>
      <trkpt lat="59.175584" lon="18.145458">
        <ele>49</ele>
        <time>2019-08-31T07:47:02Z</time>
      </trkpt>
      <trkpt lat="59.1756" lon="18.145494">
        <ele>49</ele>
        <time>2019-08-31T07:47:04Z</time>
      </trkpt>
      <trkpt lat="59.175618" lon="18.145534">
        <ele>50</ele>
        <time>2019-08-31T07:47:05Z</time>
      </trkpt>
      <trkpt lat="59.175633" lon="18.145573">
        <ele>50</ele>
        <time>2019-08-31T07:47:06Z</time>
      </trkpt>
      <trkpt lat="59.17565" lon="18.145608">
        <ele>50</ele>
        <time>2019-08-31T07:47:07Z</time>
      </trkpt>
      <trkpt lat="59.175666" lon="18.145648">
        <ele>50</ele>
        <time>2019-08-31T07:47:08Z</time>
      </trkpt>
      <trkpt lat="59.175682" lon="18.145686">
        <ele>0</ele>
        <time>2019-08-31T07:47:08Z</time>
      </trkpt>
      <trkpt lat="59.1757" lon="18.145726">
        <ele>49</ele>
        <time>2019-08-31T07:47:09Z</time>
      </trkpt>
      <trkpt lat="59.175714" lon="18.145766">
        <ele>49</ele>
        <time>2019-08-31T07:47:11Z</time>
      </trkpt>
      <trkpt lat="59.175731" lon="18.1458">
        <ele>0</ele>
        <time>2019-08-31T07:47:11Z</time>
      </trkpt>
      <trkpt lat="59.175747" lon="18.14583">
        <ele>49</ele>
        <time>2019-08-31T07:47:12Z</time>
      </trkpt>
      <trkpt lat="59.17576" lon="18.145857">
        <ele>50</ele>
        <time>2019-08-31T07:47:14Z</time>
      </trkpt>
      <trkpt lat="59.175776" lon="18.145887">
        <ele>50</ele>
        <time>2019-08-31T07:47:15Z</time>
      </trkpt>
      <trkpt lat="59.175795" lon="18.14592">
        <ele>50</ele>
        <time>2019-08-31T07:47:16Z</time>
      </trkpt>
      <trkpt lat="59.175813" lon="18.145956">
        <ele>0</ele>
        <time>2019-08-31T07:47:16Z</time>
      </trkpt>
      <trkpt lat="59.175828" lon="18.145992">
        <ele>50</ele>
        <time>2019-08-31T07:47:17Z</time>
      </trkpt>
      <trkpt lat="59.175842" lon="18.146025">
        <ele>50</ele>
        <time>2019-08-31T07:47:19Z</time>
      </trkpt>
      <trkpt lat="59.175858" lon="18.146056">
        <ele>50</ele>
        <time>2019-08-31T07:47:20Z</time>
      </trkpt>
      <trkpt lat="59.175875" lon="18.146087">
        <ele>0</ele>
        <time>2019-08-31T07:47:20Z</time>
      </trkpt>
      <trkpt lat="59.175891" lon="18.14612">
        <ele>50</ele>
        <time>2019-08-31T07:47:21Z</time>
      </trkpt>
      <trkpt lat="59.175906" lon="18.146153">
        <ele>50</ele>
        <time>2019-08-31T07:47:23Z</time>
      </trkpt>
      <trkpt lat="59.175921" lon="18.146196">
        <ele>50</ele>
        <time>2019-08-31T07:47:24Z</time>
      </trkpt>
      <trkpt lat="59.175937" lon="18.146244">
        <ele>50</ele>
        <time>2019-08-31T07:47:25Z</time>
      </trkpt>
      <trkpt lat="59.175951" lon="18.146291">
        <ele>50</ele>
        <time>2019-08-31T07:47:26Z</time>
      </trkpt>
      <trkpt lat="59.17597" lon="18.146332">
        <ele>50</ele>
        <time>2019-08-31T07:47:27Z</time>
      </trkpt>
      <trkpt lat="59.175987" lon="18.146372">
        <ele>0</ele>
        <time>2019-08-31T07:47:27Z</time>
      </trkpt>
      <trkpt lat="59.176003" lon="18.146412">
        <ele>50</ele>
        <time>2019-08-31T07:47:28Z</time>
      </trkpt>
      <trkpt lat="59.176021" lon="18.146451">
        <ele>50</ele>
        <time>2019-08-31T07:47:30Z</time>
      </trkpt>
      <trkpt lat="59.176037" lon="18.146492">
        <ele>0</ele>
        <time>2019-08-31T07:47:30Z</time>
      </trkpt>
      <trkpt lat="59.176049" lon="18.146532">
        <ele>50</ele>
        <time>2019-08-31T07:47:31Z</time>
      </trkpt>
      <trkpt lat="59.176067" lon="18.146568">
        <ele>50</ele>
        <time>2019-08-31T07:47:33Z</time>
      </trkpt>
      <trkpt lat="59.176087" lon="18.146604">
        <ele>50</ele>
        <time>2019-08-31T07:47:34Z</time>
      </trkpt>
      <trkpt lat="59.176105" lon="18.146645">
        <ele>50</ele>
        <time>2019-08-31T07:47:35Z</time>
      </trkpt>
      <trkpt lat="59.176119" lon="18.146685">
        <ele>50</ele>
        <time>2019-08-31T07:47:36Z</time>
      </trkpt>
      <trkpt lat="59.176134" lon="18.146724">
        <ele>0</ele>
        <time>2019-08-31T07:47:36Z</time>
      </trkpt>
      <trkpt lat="59.176149" lon="18.146762">
        <ele>50</ele>
        <time>2019-08-31T07:47:37Z</time>
      </trkpt>
      <trkpt lat="59.176159" lon="18.1468">
        <ele>50</ele>
        <time>2019-08-31T07:47:39Z</time>
      </trkpt>
      <trkpt lat="59.176169" lon="18.146839">
        <ele>0</ele>
        <time>2019-08-31T07:47:39Z</time>
      </trkpt>
      <trkpt lat="59.17618" lon="18.146879">
        <ele>50</ele>
        <time>2019-08-31T07:47:40Z</time>
      </trkpt>
      <trkpt lat="59.176193" lon="18.146922">
        <ele>0</ele>
        <time>2019-08-31T07:47:41Z</time>
      </trkpt>
      <trkpt lat="59.176205" lon="18.146966">
        <ele>50</ele>
        <time>2019-08-31T07:47:42Z</time>
      </trkpt>
      <trkpt lat="59.176216" lon="18.147008">
        <ele>50</ele>
        <time>2019-08-31T07:47:44Z</time>
      </trkpt>
      <trkpt lat="59.17623" lon="18.147056">
        <ele>50</ele>
        <time>2019-08-31T07:47:45Z</time>
      </trkpt>
      <trkpt lat="59.176238" lon="18.147101">
        <ele>50</ele>
        <time>2019-08-31T07:47:46Z</time>
      </trkpt>
      <trkpt lat="59.176247" lon="18.147147">
        <ele>50</ele>
        <time>2019-08-31T07:47:47Z</time>
      </trkpt>
      <trkpt lat="59.176255" lon="18.147191">
        <ele>50</ele>
        <time>2019-08-31T07:47:48Z</time>
      </trkpt>
      <trkpt lat="59.176265" lon="18.147235">
        <ele>50</ele>
        <time>2019-08-31T07:47:49Z</time>
      </trkpt>
      <trkpt lat="59.176273" lon="18.147281">
        <ele>0</ele>
        <time>2019-08-31T07:47:49Z</time>
      </trkpt>
      <trkpt lat="59.176278" lon="18.14733">
        <ele>50</ele>
        <time>2019-08-31T07:47:50Z</time>
      </trkpt>
      <trkpt lat="59.176282" lon="18.14738">
        <ele>50</ele>
        <time>2019-08-31T07:47:52Z</time>
      </trkpt>
      <trkpt lat="59.176288" lon="18.147423">
        <ele>0</ele>
        <time>2019-08-31T07:47:52Z</time>
      </trkpt>
      <trkpt lat="59.176295" lon="18.147469">
        <ele>50</ele>
        <time>2019-08-31T07:47:53Z</time>
      </trkpt>
      <trkpt lat="59.176295" lon="18.14752">
        <ele>50</ele>
        <time>2019-08-31T07:47:55Z</time>
      </trkpt>
      <trkpt lat="59.176298" lon="18.147568">
        <ele>0</ele>
        <time>2019-08-31T07:47:55Z</time>
      </trkpt>
      <trkpt lat="59.176301" lon="18.147618">
        <ele>50</ele>
        <time>2019-08-31T07:47:56Z</time>
      </trkpt>
      <trkpt lat="59.176304" lon="18.147669">
        <ele>50</ele>
        <time>2019-08-31T07:47:58Z</time>
      </trkpt>
      <trkpt lat="59.176304" lon="18.147721">
        <ele>0</ele>
        <time>2019-08-31T07:47:58Z</time>
      </trkpt>
      <trkpt lat="59.176302" lon="18.147777">
        <ele>50</ele>
        <time>2019-08-31T07:47:59Z</time>
      </trkpt>
      <trkpt lat="59.176301" lon="18.147829">
        <ele>0</ele>
        <time>2019-08-31T07:48:00Z</time>
      </trkpt>
      <trkpt lat="59.176294" lon="18.147876">
        <ele>50</ele>
        <time>2019-08-31T07:48:01Z</time>
      </trkpt>
      <trkpt lat="59.176287" lon="18.147921">
        <ele>50</ele>
        <time>2019-08-31T07:48:03Z</time>
      </trkpt>
      <trkpt lat="59.176282" lon="18.14797">
        <ele>0</ele>
        <time>2019-08-31T07:48:03Z</time>
      </trkpt>
      <trkpt lat="59.176275" lon="18.14802">
        <ele>50</ele>
        <time>2019-08-31T07:48:04Z</time>
      </trkpt>
      <trkpt lat="59.176276" lon="18.148064">
        <ele>50</ele>
        <time>2019-08-31T07:48:06Z</time>
      </trkpt>
      <trkpt lat="59.176275" lon="18.148114">
        <ele>50</ele>
        <time>2019-08-31T07:48:07Z</time>
      </trkpt>
      <trkpt lat="59.176275" lon="18.148164">
        <ele>50</ele>
        <time>2019-08-31T07:48:08Z</time>
      </trkpt>
      <trkpt lat="59.176275" lon="18.148214">
        <ele>50</ele>
        <time>2019-08-31T07:48:09Z</time>
      </trkpt>
      <trkpt lat="59.176279" lon="18.148266">
        <ele>50</ele>
        <time>2019-08-31T07:48:10Z</time>
      </trkpt>
      <trkpt lat="59.17628" lon="18.148316">
        <ele>50</ele>
        <time>2019-08-31T07:48:11Z</time>
      </trkpt>
      <trkpt lat="59.176281" lon="18.148362">
        <ele>0</ele>
        <time>2019-08-31T07:48:11Z</time>
      </trkpt>
      <trkpt lat="59.176286" lon="18.148408">
        <ele>50</ele>
        <time>2019-08-31T07:48:12Z</time>
      </trkpt>
      <trkpt lat="59.176288" lon="18.148452">
        <ele>50</ele>
        <time>2019-08-31T07:48:14Z</time>
      </trkpt>
      <trkpt lat="59.176286" lon="18.1485">
        <ele>0</ele>
        <time>2019-08-31T07:48:14Z</time>
      </trkpt>
      <trkpt lat="59.176286" lon="18.148546">
        <ele>50</ele>
        <time>2019-08-31T07:48:15Z</time>
      </trkpt>
      <trkpt lat="59.176283" lon="18.148596">
        <ele>50</ele>
        <time>2019-08-31T07:48:16Z</time>
      </trkpt>
      <trkpt lat="59.176279" lon="18.148646">
        <ele>0</ele>
        <time>2019-08-31T07:48:17Z</time>
      </trkpt>
      <trkpt lat="59.176274" lon="18.148692">
        <ele>50</ele>
        <time>2019-08-31T07:48:18Z</time>
      </trkpt>
      <trkpt lat="59.17627" lon="18.148744">
        <ele>50</ele>
        <time>2019-08-31T07:48:20Z</time>
      </trkpt>
      <trkpt lat="59.176264" lon="18.148791">
        <ele>50</ele>
        <time>2019-08-31T07:48:21Z</time>
      </trkpt>
      <trkpt lat="59.17626" lon="18.148843">
        <ele>50</ele>
        <time>2019-08-31T07:48:22Z</time>
      </trkpt>
      <trkpt lat="59.176257" lon="18.148896">
        <ele>50</ele>
        <time>2019-08-31T07:48:23Z</time>
      </trkpt>
      <trkpt lat="59.176256" lon="18.148952">
        <ele>50</ele>
        <time>2019-08-31T07:48:24Z</time>
      </trkpt>
      <trkpt lat="59.176253" lon="18.149004">
        <ele>0</ele>
        <time>2019-08-31T07:48:24Z</time>
      </trkpt>
      <trkpt lat="59.176251" lon="18.149054">
        <ele>50</ele>
        <time>2019-08-31T07:48:25Z</time>
      </trkpt>
      <trkpt lat="59.17625" lon="18.149105">
        <ele>50</ele>
        <time>2019-08-31T07:48:27Z</time>
      </trkpt>
      <trkpt lat="59.17625" lon="18.149154">
        <ele>0</ele>
        <time>2019-08-31T07:48:27Z</time>
      </trkpt>
      <trkpt lat="59.176248" lon="18.149196">
        <ele>50</ele>
        <time>2019-08-31T07:48:28Z</time>
      </trkpt>
      <trkpt lat="59.176246" lon="18.149242">
        <ele>49</ele>
        <time>2019-08-31T07:48:30Z</time>
      </trkpt>
      <trkpt lat="59.176246" lon="18.149288">
        <ele>50</ele>
        <time>2019-08-31T07:48:31Z</time>
      </trkpt>
      <trkpt lat="59.176247" lon="18.149337">
        <ele>49</ele>
        <time>2019-08-31T07:48:32Z</time>
      </trkpt>
      <trkpt lat="59.176248" lon="18.149384">
        <ele>49</ele>
        <time>2019-08-31T07:48:33Z</time>
      </trkpt>
      <trkpt lat="59.176245" lon="18.149426">
        <ele>49</ele>
        <time>2019-08-31T07:48:34Z</time>
      </trkpt>
      <trkpt lat="59.176242" lon="18.149479">
        <ele>50</ele>
        <time>2019-08-31T07:48:35Z</time>
      </trkpt>
      <trkpt lat="59.176246" lon="18.14953">
        <ele>0</ele>
        <time>2019-08-31T07:48:35Z</time>
      </trkpt>
      <trkpt lat="59.176249" lon="18.149579">
        <ele>50</ele>
        <time>2019-08-31T07:48:36Z</time>
      </trkpt>
      <trkpt lat="59.176255" lon="18.14963">
        <ele>49</ele>
        <time>2019-08-31T07:48:37Z</time>
      </trkpt>
      <trkpt lat="59.176262" lon="18.14968">
        <ele>0</ele>
        <time>2019-08-31T07:48:38Z</time>
      </trkpt>
      <trkpt lat="59.176269" lon="18.14973">
        <ele>49</ele>
        <time>2019-08-31T07:48:39Z</time>
      </trkpt>
      <trkpt lat="59.176277" lon="18.14977">
        <ele>49</ele>
        <time>2019-08-31T07:48:41Z</time>
      </trkpt>
      <trkpt lat="59.176288" lon="18.149814">
        <ele>49</ele>
        <time>2019-08-31T07:48:42Z</time>
      </trkpt>
      <trkpt lat="59.176303" lon="18.149855">
        <ele>50</ele>
        <time>2019-08-31T07:48:43Z</time>
      </trkpt>
      <trkpt lat="59.176318" lon="18.1499">
        <ele>50</ele>
        <time>2019-08-31T07:48:44Z</time>
      </trkpt>
      <trkpt lat="59.176333" lon="18.149945">
        <ele>50</ele>
        <time>2019-08-31T07:48:45Z</time>
      </trkpt>
      <trkpt lat="59.176348" lon="18.149988">
        <ele>50</ele>
        <time>2019-08-31T07:48:46Z</time>
      </trkpt>
      <trkpt lat="59.176364" lon="18.15003">
        <ele>0</ele>
        <time>2019-08-31T07:48:46Z</time>
      </trkpt>
      <trkpt lat="59.176379" lon="18.150072">
        <ele>50</ele>
        <time>2019-08-31T07:48:47Z</time>
      </trkpt>
      <trkpt lat="59.176396" lon="18.150112">
        <ele>50</ele>
        <time>2019-08-31T07:48:49Z</time>
      </trkpt>
      <trkpt lat="59.176413" lon="18.150152">
        <ele>50</ele>
        <time>2019-08-31T07:48:50Z</time>
      </trkpt>
      <trkpt lat="59.176428" lon="18.150192">
        <ele>50</ele>
        <time>2019-08-31T07:48:51Z</time>
      </trkpt>
      <trkpt lat="59.176444" lon="18.150228">
        <ele>50</ele>
        <time>2019-08-31T07:48:52Z</time>
      </trkpt>
      <trkpt lat="59.176461" lon="18.150266">
        <ele>50</ele>
        <time>2019-08-31T07:48:53Z</time>
      </trkpt>
      <trkpt lat="59.176479" lon="18.150304">
        <ele>50</ele>
        <time>2019-08-31T07:48:54Z</time>
      </trkpt>
      <trkpt lat="59.176498" lon="18.150339">
        <ele>0</ele>
        <time>2019-08-31T07:48:54Z</time>
      </trkpt>
      <trkpt lat="59.176516" lon="18.150376">
        <ele>50</ele>
        <time>2019-08-31T07:48:55Z</time>
      </trkpt>
      <trkpt lat="59.176533" lon="18.150415">
        <ele>50</ele>
        <time>2019-08-31T07:48:56Z</time>
      </trkpt>
      <trkpt lat="59.176552" lon="18.150452">
        <ele>0</ele>
        <time>2019-08-31T07:48:57Z</time>
      </trkpt>
      <trkpt lat="59.176568" lon="18.150488">
        <ele>50</ele>
        <time>2019-08-31T07:48:58Z</time>
      </trkpt>
      <trkpt lat="59.176583" lon="18.150525">
        <ele>50</ele>
        <time>2019-08-31T07:49:00Z</time>
      </trkpt>
      <trkpt lat="59.176597" lon="18.150562">
        <ele>50</ele>
        <time>2019-08-31T07:49:01Z</time>
      </trkpt>
      <trkpt lat="59.176613" lon="18.150598">
        <ele>50</ele>
        <time>2019-08-31T07:49:02Z</time>
      </trkpt>
      <trkpt lat="59.176628" lon="18.150638">
        <ele>50</ele>
        <time>2019-08-31T07:49:03Z</time>
      </trkpt>
      <trkpt lat="59.176643" lon="18.150675">
        <ele>50</ele>
        <time>2019-08-31T07:49:04Z</time>
      </trkpt>
      <trkpt lat="59.176659" lon="18.15071">
        <ele>50</ele>
        <time>2019-08-31T07:49:05Z</time>
      </trkpt>
      <trkpt lat="59.176678" lon="18.150746">
        <ele>0</ele>
        <time>2019-08-31T07:49:05Z</time>
      </trkpt>
      <trkpt lat="59.176696" lon="18.150783">
        <ele>51</ele>
        <time>2019-08-31T07:49:06Z</time>
      </trkpt>
      <trkpt lat="59.176715" lon="18.15082">
        <ele>51</ele>
        <time>2019-08-31T07:49:08Z</time>
      </trkpt>
      <trkpt lat="59.176734" lon="18.150854">
        <ele>51</ele>
        <time>2019-08-31T07:49:09Z</time>
      </trkpt>
      <trkpt lat="59.176752" lon="18.150887">
        <ele>51</ele>
        <time>2019-08-31T07:49:10Z</time>
      </trkpt>
      <trkpt lat="59.17677" lon="18.15092">
        <ele>51</ele>
        <time>2019-08-31T07:49:11Z</time>
      </trkpt>
      <trkpt lat="59.176786" lon="18.150955">
        <ele>51</ele>
        <time>2019-08-31T07:49:12Z</time>
      </trkpt>
      <trkpt lat="59.176802" lon="18.150994">
        <ele>51</ele>
        <time>2019-08-31T07:49:13Z</time>
      </trkpt>
      <trkpt lat="59.176818" lon="18.151031">
        <ele>0</ele>
        <time>2019-08-31T07:49:13Z</time>
      </trkpt>
      <trkpt lat="59.176835" lon="18.151066">
        <ele>51</ele>
        <time>2019-08-31T07:49:14Z</time>
      </trkpt>
      <trkpt lat="59.176853" lon="18.151102">
        <ele>51</ele>
        <time>2019-08-31T07:49:16Z</time>
      </trkpt>
      <trkpt lat="59.176871" lon="18.151139">
        <ele>0</ele>
        <time>2019-08-31T07:49:16Z</time>
      </trkpt>
      <trkpt lat="59.17689" lon="18.151177">
        <ele>51</ele>
        <time>2019-08-31T07:49:17Z</time>
      </trkpt>
      <trkpt lat="59.176908" lon="18.151212">
        <ele>51</ele>
        <time>2019-08-31T07:49:19Z</time>
      </trkpt>
      <trkpt lat="59.176926" lon="18.151251">
        <ele>51</ele>
        <time>2019-08-31T07:49:20Z</time>
      </trkpt>
      <trkpt lat="59.176942" lon="18.151291">
        <ele>51</ele>
        <time>2019-08-31T07:49:21Z</time>
      </trkpt>
      <trkpt lat="59.176957" lon="18.151329">
        <ele>51</ele>
        <time>2019-08-31T07:49:22Z</time>
      </trkpt>
      <trkpt lat="59.176974" lon="18.151368">
        <ele>51</ele>
        <time>2019-08-31T07:49:23Z</time>
      </trkpt>
      <trkpt lat="59.17699" lon="18.151406">
        <ele>52</ele>
        <time>2019-08-31T07:49:24Z</time>
      </trkpt>
      <trkpt lat="59.177005" lon="18.151447">
        <ele>0</ele>
        <time>2019-08-31T07:49:24Z</time>
      </trkpt>
      <trkpt lat="59.177027" lon="18.151481">
        <ele>52</ele>
        <time>2019-08-31T07:49:25Z</time>
      </trkpt>
      <trkpt lat="59.177044" lon="18.151524">
        <ele>51</ele>
        <time>2019-08-31T07:49:27Z</time>
      </trkpt>
      <trkpt lat="59.177057" lon="18.151568">
        <ele>0</ele>
        <time>2019-08-31T07:49:27Z</time>
      </trkpt>
      <trkpt lat="59.177069" lon="18.151608">
        <ele>51</ele>
        <time>2019-08-31T07:49:28Z</time>
      </trkpt>
      <trkpt lat="59.177082" lon="18.151652">
        <ele>51</ele>
        <time>2019-08-31T07:49:30Z</time>
      </trkpt>
      <trkpt lat="59.177096" lon="18.151697">
        <ele>51</ele>
        <time>2019-08-31T07:49:31Z</time>
      </trkpt>
      <trkpt lat="59.177108" lon="18.151742">
        <ele>51</ele>
        <time>2019-08-31T07:49:32Z</time>
      </trkpt>
      <trkpt lat="59.177126" lon="18.151785">
        <ele>51</ele>
        <time>2019-08-31T07:49:33Z</time>
      </trkpt>
      <trkpt lat="59.177141" lon="18.151827">
        <ele>0</ele>
        <time>2019-08-31T07:49:33Z</time>
      </trkpt>
      <trkpt lat="59.177154" lon="18.151869">
        <ele>51</ele>
        <time>2019-08-31T07:49:35Z</time>
      </trkpt>
      <trkpt lat="59.177166" lon="18.151909">
        <ele>0</ele>
        <time>2019-08-31T07:49:35Z</time>
      </trkpt>
      <trkpt lat="59.177178" lon="18.151952">
        <ele>51</ele>
        <time>2019-08-31T07:49:36Z</time>
      </trkpt>
      <trkpt lat="59.177191" lon="18.151996">
        <ele>51</ele>
        <time>2019-08-31T07:49:38Z</time>
      </trkpt>
      <trkpt lat="59.177204" lon="18.152036">
        <ele>51</ele>
        <time>2019-08-31T07:49:39Z</time>
      </trkpt>
      <trkpt lat="59.177219" lon="18.152077">
        <ele>51</ele>
        <time>2019-08-31T07:49:40Z</time>
      </trkpt>
      <trkpt lat="59.177233" lon="18.152119">
        <ele>51</ele>
        <time>2019-08-31T07:49:41Z</time>
      </trkpt>
      <trkpt lat="59.177247" lon="18.152161">
        <ele>51</ele>
        <time>2019-08-31T07:49:42Z</time>
      </trkpt>
      <trkpt lat="59.177263" lon="18.152201">
        <ele>51</ele>
        <time>2019-08-31T07:49:43Z</time>
      </trkpt>
      <trkpt lat="59.177277" lon="18.152239">
        <ele>51</ele>
        <time>2019-08-31T07:49:44Z</time>
      </trkpt>
      <trkpt lat="59.177288" lon="18.15228">
        <ele>51</ele>
        <time>2019-08-31T07:49:45Z</time>
      </trkpt>
      <trkpt lat="59.177296" lon="18.152318">
        <ele>51</ele>
        <time>2019-08-31T07:49:46Z</time>
      </trkpt>
      <trkpt lat="59.177306" lon="18.152356">
        <ele>0</ele>
        <time>2019-08-31T07:49:46Z</time>
      </trkpt>
      <trkpt lat="59.177315" lon="18.1524">
        <ele>51</ele>
        <time>2019-08-31T07:49:47Z</time>
      </trkpt>
      <trkpt lat="59.177322" lon="18.152442">
        <ele>51</ele>
        <time>2019-08-31T07:49:49Z</time>
      </trkpt>
      <trkpt lat="59.177328" lon="18.152485">
        <ele>0</ele>
        <time>2019-08-31T07:49:49Z</time>
      </trkpt>
      <trkpt lat="59.177335" lon="18.15253">
        <ele>51</ele>
        <time>2019-08-31T07:49:50Z</time>
      </trkpt>
      <trkpt lat="59.177344" lon="18.152571">
        <ele>51</ele>
        <time>2019-08-31T07:49:52Z</time>
      </trkpt>
      <trkpt lat="59.177351" lon="18.152616">
        <ele>0</ele>
        <time>2019-08-31T07:49:52Z</time>
      </trkpt>
      <trkpt lat="59.177356" lon="18.152661">
        <ele>51</ele>
        <time>2019-08-31T07:49:53Z</time>
      </trkpt>
      <trkpt lat="59.177361" lon="18.152709">
        <ele>0</ele>
        <time>2019-08-31T07:49:54Z</time>
      </trkpt>
      <trkpt lat="59.177368" lon="18.152756">
        <ele>52</ele>
        <time>2019-08-31T07:49:55Z</time>
      </trkpt>
      <trkpt lat="59.177375" lon="18.152802">
        <ele>52</ele>
        <time>2019-08-31T07:49:57Z</time>
      </trkpt>
      <trkpt lat="59.17738" lon="18.152853">
        <ele>52</ele>
        <time>2019-08-31T07:49:58Z</time>
      </trkpt>
      <trkpt lat="59.177386" lon="18.152901">
        <ele>52</ele>
        <time>2019-08-31T07:49:59Z</time>
      </trkpt>
      <trkpt lat="59.177394" lon="18.15295">
        <ele>52</ele>
        <time>2019-08-31T07:50:00Z</time>
      </trkpt>
      <trkpt lat="59.177404" lon="18.152997">
        <ele>52</ele>
        <time>2019-08-31T07:50:01Z</time>
      </trkpt>
      <trkpt lat="59.177412" lon="18.153047">
        <ele>52</ele>
        <time>2019-08-31T07:50:02Z</time>
      </trkpt>
      <trkpt lat="59.17742" lon="18.1531">
        <ele>52</ele>
        <time>2019-08-31T07:50:03Z</time>
      </trkpt>
      <trkpt lat="59.177423" lon="18.153149">
        <ele>52</ele>
        <time>2019-08-31T07:50:04Z</time>
      </trkpt>
      <trkpt lat="59.177428" lon="18.153196">
        <ele>52</ele>
        <time>2019-08-31T07:50:05Z</time>
      </trkpt>
      <trkpt lat="59.177429" lon="18.153244">
        <ele>0</ele>
        <time>2019-08-31T07:50:05Z</time>
      </trkpt>
      <trkpt lat="59.177435" lon="18.153292">
        <ele>52</ele>
        <time>2019-08-31T07:50:06Z</time>
      </trkpt>
      <trkpt lat="59.177439" lon="18.153341">
        <ele>52</ele>
        <time>2019-08-31T07:50:08Z</time>
      </trkpt>
      <trkpt lat="59.17744" lon="18.153389">
        <ele>52</ele>
        <time>2019-08-31T07:50:09Z</time>
      </trkpt>
      <trkpt lat="59.177441" lon="18.153436">
        <ele>52</ele>
        <time>2019-08-31T07:50:10Z</time>
      </trkpt>
      <trkpt lat="59.17744" lon="18.15348">
        <ele>52</ele>
        <time>2019-08-31T07:50:11Z</time>
      </trkpt>
      <trkpt lat="59.177437" lon="18.153524">
        <ele>0</ele>
        <time>2019-08-31T07:50:11Z</time>
      </trkpt>
      <trkpt lat="59.177435" lon="18.15357">
        <ele>52</ele>
        <time>2019-08-31T07:50:12Z</time>
      </trkpt>
      <trkpt lat="59.177433" lon="18.153617">
        <ele>52</ele>
        <time>2019-08-31T07:50:14Z</time>
      </trkpt>
      <trkpt lat="59.17743" lon="18.153664">
        <ele>0</ele>
        <time>2019-08-31T07:50:14Z</time>
      </trkpt>
      <trkpt lat="59.177426" lon="18.153708">
        <ele>52</ele>
        <time>2019-08-31T07:50:15Z</time>
      </trkpt>
      <trkpt lat="59.177418" lon="18.153752">
        <ele>52</ele>
        <time>2019-08-31T07:50:17Z</time>
      </trkpt>
      <trkpt lat="59.177413" lon="18.153798">
        <ele>52</ele>
        <time>2019-08-31T07:50:18Z</time>
      </trkpt>
      <trkpt lat="59.177408" lon="18.153842">
        <ele>52</ele>
        <time>2019-08-31T07:50:19Z</time>
      </trkpt>
      <trkpt lat="59.177405" lon="18.153891">
        <ele>0</ele>
        <time>2019-08-31T07:50:19Z</time>
      </trkpt>
      <trkpt lat="59.177398" lon="18.153938">
        <ele>52</ele>
        <time>2019-08-31T07:50:20Z</time>
      </trkpt>
      <trkpt lat="59.177392" lon="18.153984">
        <ele>52</ele>
        <time>2019-08-31T07:50:22Z</time>
      </trkpt>
      <trkpt lat="59.177384" lon="18.154029">
        <ele>0</ele>
        <time>2019-08-31T07:50:22Z</time>
      </trkpt>
      <trkpt lat="59.177378" lon="18.154075">
        <ele>52</ele>
        <time>2019-08-31T07:50:23Z</time>
      </trkpt>
      <trkpt lat="59.177371" lon="18.154118">
        <ele>52</ele>
        <time>2019-08-31T07:50:25Z</time>
      </trkpt>
      <trkpt lat="59.177367" lon="18.154164">
        <ele>52</ele>
        <time>2019-08-31T07:50:26Z</time>
      </trkpt>
      <trkpt lat="59.17736" lon="18.154211">
        <ele>52</ele>
        <time>2019-08-31T07:50:27Z</time>
      </trkpt>
      <trkpt lat="59.177351" lon="18.154254">
        <ele>52</ele>
        <time>2019-08-31T07:50:28Z</time>
      </trkpt>
      <trkpt lat="59.177346" lon="18.154296">
        <ele>52</ele>
        <time>2019-08-31T07:50:29Z</time>
      </trkpt>
      <trkpt lat="59.177339" lon="18.154339">
        <ele>52</ele>
        <time>2019-08-31T07:50:30Z</time>
      </trkpt>
      <trkpt lat="59.177331" lon="18.154388">
        <ele>0</ele>
        <time>2019-08-31T07:50:30Z</time>
      </trkpt>
      <trkpt lat="59.177326" lon="18.154436">
        <ele>52</ele>
        <time>2019-08-31T07:50:31Z</time>
      </trkpt>
      <trkpt lat="59.177316" lon="18.154482">
        <ele>53</ele>
        <time>2019-08-31T07:50:33Z</time>
      </trkpt>
      <trkpt lat="59.17731" lon="18.154528">
        <ele>53</ele>
        <time>2019-08-31T07:50:34Z</time>
      </trkpt>
      <trkpt lat="59.177304" lon="18.154571">
        <ele>53</ele>
        <time>2019-08-31T07:50:35Z</time>
      </trkpt>
      <trkpt lat="59.177298" lon="18.154616">
        <ele>0</ele>
        <time>2019-08-31T07:50:35Z</time>
      </trkpt>
      <trkpt lat="59.177291" lon="18.15466">
        <ele>53</ele>
        <time>2019-08-31T07:50:36Z</time>
      </trkpt>
      <trkpt lat="59.177282" lon="18.154705">
        <ele>53</ele>
        <time>2019-08-31T07:50:38Z</time>
      </trkpt>
      <trkpt lat="59.177274" lon="18.154751">
        <ele>0</ele>
        <time>2019-08-31T07:50:38Z</time>
      </trkpt>
      <trkpt lat="59.177268" lon="18.154794">
        <ele>53</ele>
        <time>2019-08-31T07:50:39Z</time>
      </trkpt>
      <trkpt lat="59.177262" lon="18.154838">
        <ele>53</ele>
        <time>2019-08-31T07:50:41Z</time>
      </trkpt>
      <trkpt lat="59.177257" lon="18.154881">
        <ele>0</ele>
        <time>2019-08-31T07:50:41Z</time>
      </trkpt>
      <trkpt lat="59.17725" lon="18.154928">
        <ele>53</ele>
        <time>2019-08-31T07:50:42Z</time>
      </trkpt>
      <trkpt lat="59.177243" lon="18.154975">
        <ele>53</ele>
        <time>2019-08-31T07:50:44Z</time>
      </trkpt>
      <trkpt lat="59.177233" lon="18.155023">
        <ele>53</ele>
        <time>2019-08-31T07:50:45Z</time>
      </trkpt>
      <trkpt lat="59.177224" lon="18.15507">
        <ele>54</ele>
        <time>2019-08-31T07:50:46Z</time>
      </trkpt>
      <trkpt lat="59.177215" lon="18.155119">
        <ele>54</ele>
        <time>2019-08-31T07:50:47Z</time>
      </trkpt>
      <trkpt lat="59.177205" lon="18.155167">
        <ele>53</ele>
        <time>2019-08-31T07:50:48Z</time>
      </trkpt>
      <trkpt lat="59.177193" lon="18.155212">
        <ele>53</ele>
        <time>2019-08-31T07:50:49Z</time>
      </trkpt>
      <trkpt lat="59.177182" lon="18.155255">
        <ele>0</ele>
        <time>2019-08-31T07:50:49Z</time>
      </trkpt>
      <trkpt lat="59.17717" lon="18.155296">
        <ele>53</ele>
        <time>2019-08-31T07:50:50Z</time>
      </trkpt>
      <trkpt lat="59.177161" lon="18.155338">
        <ele>53</ele>
        <time>2019-08-31T07:50:52Z</time>
      </trkpt>
      <trkpt lat="59.177153" lon="18.155383">
        <ele>53</ele>
        <time>2019-08-31T07:50:53Z</time>
      </trkpt>
      <trkpt lat="59.177144" lon="18.155424">
        <ele>53</ele>
        <time>2019-08-31T07:50:54Z</time>
      </trkpt>
      <trkpt lat="59.177133" lon="18.155467">
        <ele>0</ele>
        <time>2019-08-31T07:50:54Z</time>
      </trkpt>
      <trkpt lat="59.177121" lon="18.155513">
        <ele>54</ele>
        <time>2019-08-31T07:50:55Z</time>
      </trkpt>
      <trkpt lat="59.17711" lon="18.155559">
        <ele>54</ele>
        <time>2019-08-31T07:50:56Z</time>
      </trkpt>
      <trkpt lat="59.177101" lon="18.155606">
        <ele>54</ele>
        <time>2019-08-31T07:50:58Z</time>
      </trkpt>
      <trkpt lat="59.177096" lon="18.155653">
        <ele>54</ele>
        <time>2019-08-31T07:50:59Z</time>
      </trkpt>
      <trkpt lat="59.177088" lon="18.155698">
        <ele>54</ele>
        <time>2019-08-31T07:51:00Z</time>
      </trkpt>
      <trkpt lat="59.177078" lon="18.155741">
        <ele>0</ele>
        <time>2019-08-31T07:51:00Z</time>
      </trkpt>
      <trkpt lat="59.177069" lon="18.155784">
        <ele>54</ele>
        <time>2019-08-31T07:51:01Z</time>
      </trkpt>
      <trkpt lat="59.177061" lon="18.155832">
        <ele>54</ele>
        <time>2019-08-31T07:51:03Z</time>
      </trkpt>
      <trkpt lat="59.177052" lon="18.155879">
        <ele>0</ele>
        <time>2019-08-31T07:51:03Z</time>
      </trkpt>
      <trkpt lat="59.177045" lon="18.155925">
        <ele>54</ele>
        <time>2019-08-31T07:51:04Z</time>
      </trkpt>
      <trkpt lat="59.177037" lon="18.155973">
        <ele>54</ele>
        <time>2019-08-31T07:51:06Z</time>
      </trkpt>
      <trkpt lat="59.177031" lon="18.156023">
        <ele>54</ele>
        <time>2019-08-31T07:51:07Z</time>
      </trkpt>
      <trkpt lat="59.177021" lon="18.156073">
        <ele>54</ele>
        <time>2019-08-31T07:51:08Z</time>
      </trkpt>
      <trkpt lat="59.177011" lon="18.156122">
        <ele>0</ele>
        <time>2019-08-31T07:51:08Z</time>
      </trkpt>
      <trkpt lat="59.177008" lon="18.156169">
        <ele>54</ele>
        <time>2019-08-31T07:51:09Z</time>
      </trkpt>
      <trkpt lat="59.177006" lon="18.156219">
        <ele>54</ele>
        <time>2019-08-31T07:51:11Z</time>
      </trkpt>
      <trkpt lat="59.176998" lon="18.15627">
        <ele>54</ele>
        <time>2019-08-31T07:51:12Z</time>
      </trkpt>
      <trkpt lat="59.176988" lon="18.15632">
        <ele>54</ele>
        <time>2019-08-31T07:51:13Z</time>
      </trkpt>
      <trkpt lat="59.17698" lon="18.156374">
        <ele>54</ele>
        <time>2019-08-31T07:51:14Z</time>
      </trkpt>
      <trkpt lat="59.17697" lon="18.156426">
        <ele>0</ele>
        <time>2019-08-31T07:51:14Z</time>
      </trkpt>
      <trkpt lat="59.176965" lon="18.156482">
        <ele>54</ele>
        <time>2019-08-31T07:51:15Z</time>
      </trkpt>
      <trkpt lat="59.176959" lon="18.156535">
        <ele>54</ele>
        <time>2019-08-31T07:51:17Z</time>
      </trkpt>
      <trkpt lat="59.176954" lon="18.156587">
        <ele>54</ele>
        <time>2019-08-31T07:51:18Z</time>
      </trkpt>
      <trkpt lat="59.17695" lon="18.156641">
        <ele>53</ele>
        <time>2019-08-31T07:51:19Z</time>
      </trkpt>
      <trkpt lat="59.176948" lon="18.156692">
        <ele>0</ele>
        <time>2019-08-31T07:51:19Z</time>
      </trkpt>
      <trkpt lat="59.176943" lon="18.156743">
        <ele>54</ele>
        <time>2019-08-31T07:51:20Z</time>
      </trkpt>
      <trkpt lat="59.176945" lon="18.156796">
        <ele>54</ele>
        <time>2019-08-31T07:51:22Z</time>
      </trkpt>
      <trkpt lat="59.176946" lon="18.156846">
        <ele>0</ele>
        <time>2019-08-31T07:51:22Z</time>
      </trkpt>
      <trkpt lat="59.176945" lon="18.156897">
        <ele>54</ele>
        <time>2019-08-31T07:51:23Z</time>
      </trkpt>
      <trkpt lat="59.176942" lon="18.156946">
        <ele>53</ele>
        <time>2019-08-31T07:51:25Z</time>
      </trkpt>
      <trkpt lat="59.176942" lon="18.157">
        <ele>53</ele>
        <time>2019-08-31T07:51:26Z</time>
      </trkpt>
      <trkpt lat="59.176941" lon="18.157052">
        <ele>53</ele>
        <time>2019-08-31T07:51:27Z</time>
      </trkpt>
      <trkpt lat="59.176939" lon="18.157103">
        <ele>0</ele>
        <time>2019-08-31T07:51:27Z</time>
      </trkpt>
      <trkpt lat="59.176936" lon="18.157154">
        <ele>53</ele>
        <time>2019-08-31T07:51:28Z</time>
      </trkpt>
      <trkpt lat="59.176933" lon="18.157203">
        <ele>0</ele>
        <time>2019-08-31T07:51:29Z</time>
      </trkpt>
      <trkpt lat="59.176934" lon="18.157248">
        <ele>53</ele>
        <time>2019-08-31T07:51:30Z</time>
      </trkpt>
      <trkpt lat="59.176935" lon="18.157291">
        <ele>53</ele>
        <time>2019-08-31T07:51:32Z</time>
      </trkpt>
      <trkpt lat="59.17694" lon="18.15733">
        <ele>53</ele>
        <time>2019-08-31T07:51:33Z</time>
      </trkpt>
      <trkpt lat="59.176944" lon="18.157367">
        <ele>53</ele>
        <time>2019-08-31T07:51:34Z</time>
      </trkpt>
      <trkpt lat="59.176977" lon="18.157571">
        <ele>53</ele>
        <time>2019-08-31T07:51:38Z</time>
      </trkpt>
      <trkpt lat="59.176961" lon="18.157722">
        <ele>52</ele>
        <time>2019-08-31T07:51:40Z</time>
      </trkpt>
      <trkpt lat="59.176951" lon="18.157785">
        <ele>52</ele>
        <time>2019-08-31T07:51:41Z</time>
      </trkpt>
      <trkpt lat="59.176948" lon="18.157842">
        <ele>52</ele>
        <time>2019-08-31T07:51:42Z</time>
      </trkpt>
      <trkpt lat="59.176943" lon="18.157893">
        <ele>52</ele>
        <time>2019-08-31T07:51:43Z</time>
      </trkpt>
      <trkpt lat="59.176939" lon="18.157941">
        <ele>0</ele>
        <time>2019-08-31T07:51:43Z</time>
      </trkpt>
      <trkpt lat="59.176938" lon="18.157988">
        <ele>52</ele>
        <time>2019-08-31T07:51:44Z</time>
      </trkpt>
      <trkpt lat="59.176937" lon="18.158034">
        <ele>52</ele>
        <time>2019-08-31T07:51:46Z</time>
      </trkpt>
      <trkpt lat="59.176933" lon="18.158084">
        <ele>0</ele>
        <time>2019-08-31T07:51:46Z</time>
      </trkpt>
      <trkpt lat="59.176934" lon="18.158133">
        <ele>52</ele>
        <time>2019-08-31T07:51:47Z</time>
      </trkpt>
      <trkpt lat="59.176934" lon="18.158178">
        <ele>0</ele>
        <time>2019-08-31T07:51:48Z</time>
      </trkpt>
      <trkpt lat="59.176935" lon="18.158225">
        <ele>52</ele>
        <time>2019-08-31T07:51:49Z</time>
      </trkpt>
      <trkpt lat="59.176936" lon="18.158271">
        <ele>51</ele>
        <time>2019-08-31T07:51:51Z</time>
      </trkpt>
      <trkpt lat="59.176939" lon="18.15832">
        <ele>0</ele>
        <time>2019-08-31T07:51:51Z</time>
      </trkpt>
      <trkpt lat="59.176941" lon="18.158368">
        <ele>51</ele>
        <time>2019-08-31T07:51:52Z</time>
      </trkpt>
      <trkpt lat="59.176939" lon="18.158413">
        <ele>51</ele>
        <time>2019-08-31T07:51:53Z</time>
      </trkpt>
      <trkpt lat="59.17694" lon="18.15846">
        <ele>51</ele>
        <time>2019-08-31T07:51:55Z</time>
      </trkpt>
      <trkpt lat="59.176943" lon="18.158507">
        <ele>51</ele>
        <time>2019-08-31T07:51:56Z</time>
      </trkpt>
      <trkpt lat="59.176945" lon="18.158556">
        <ele>52</ele>
        <time>2019-08-31T07:51:57Z</time>
      </trkpt>
      <trkpt lat="59.176948" lon="18.158602">
        <ele>52</ele>
        <time>2019-08-31T07:51:58Z</time>
      </trkpt>
      <trkpt lat="59.176955" lon="18.158649">
        <ele>52</ele>
        <time>2019-08-31T07:51:59Z</time>
      </trkpt>
      <trkpt lat="59.176961" lon="18.158696">
        <ele>52</ele>
        <time>2019-08-31T07:52:00Z</time>
      </trkpt>
      <trkpt lat="59.176969" lon="18.158745">
        <ele>52</ele>
        <time>2019-08-31T07:52:01Z</time>
      </trkpt>
      <trkpt lat="59.176976" lon="18.158795">
        <ele>52</ele>
        <time>2019-08-31T07:52:02Z</time>
      </trkpt>
      <trkpt lat="59.176983" lon="18.15884">
        <ele>52</ele>
        <time>2019-08-31T07:52:03Z</time>
      </trkpt>
      <trkpt lat="59.176989" lon="18.158887">
        <ele>52</ele>
        <time>2019-08-31T07:52:04Z</time>
      </trkpt>
      <trkpt lat="59.176995" lon="18.158935">
        <ele>52</ele>
        <time>2019-08-31T07:52:05Z</time>
      </trkpt>
      <trkpt lat="59.177002" lon="18.158982">
        <ele>0</ele>
        <time>2019-08-31T07:52:05Z</time>
      </trkpt>
      <trkpt lat="59.177005" lon="18.159033">
        <ele>53</ele>
        <time>2019-08-31T07:52:06Z</time>
      </trkpt>
      <trkpt lat="59.17701" lon="18.159082">
        <ele>0</ele>
        <time>2019-08-31T07:52:07Z</time>
      </trkpt>
      <trkpt lat="59.177015" lon="18.159129">
        <ele>53</ele>
        <time>2019-08-31T07:52:08Z</time>
      </trkpt>
      <trkpt lat="59.17702" lon="18.159176">
        <ele>53</ele>
        <time>2019-08-31T07:52:10Z</time>
      </trkpt>
      <trkpt lat="59.177024" lon="18.159222">
        <ele>53</ele>
        <time>2019-08-31T07:52:11Z</time>
      </trkpt>
      <trkpt lat="59.177027" lon="18.159268">
        <ele>53</ele>
        <time>2019-08-31T07:52:12Z</time>
      </trkpt>
      <trkpt lat="59.177028" lon="18.159314">
        <ele>0</ele>
        <time>2019-08-31T07:52:12Z</time>
      </trkpt>
      <trkpt lat="59.177028" lon="18.15936">
        <ele>53</ele>
        <time>2019-08-31T07:52:13Z</time>
      </trkpt>
      <trkpt lat="59.177032" lon="18.159409">
        <ele>53</ele>
        <time>2019-08-31T07:52:15Z</time>
      </trkpt>
      <trkpt lat="59.177038" lon="18.15946">
        <ele>53</ele>
        <time>2019-08-31T07:52:16Z</time>
      </trkpt>
      <trkpt lat="59.177045" lon="18.159512">
        <ele>53</ele>
        <time>2019-08-31T07:52:17Z</time>
      </trkpt>
      <trkpt lat="59.177053" lon="18.15956">
        <ele>0</ele>
        <time>2019-08-31T07:52:17Z</time>
      </trkpt>
      <trkpt lat="59.17706" lon="18.159608">
        <ele>53</ele>
        <time>2019-08-31T07:52:18Z</time>
      </trkpt>
      <trkpt lat="59.177063" lon="18.159656">
        <ele>53</ele>
        <time>2019-08-31T07:52:20Z</time>
      </trkpt>
      <trkpt lat="59.177067" lon="18.159705">
        <ele>0</ele>
        <time>2019-08-31T07:52:20Z</time>
      </trkpt>
      <trkpt lat="59.17707" lon="18.159752">
        <ele>53</ele>
        <time>2019-08-31T07:52:21Z</time>
      </trkpt>
      <trkpt lat="59.177073" lon="18.159798">
        <ele>53</ele>
        <time>2019-08-31T07:52:23Z</time>
      </trkpt>
      <trkpt lat="59.177078" lon="18.159843">
        <ele>53</ele>
        <time>2019-08-31T07:52:24Z</time>
      </trkpt>
      <trkpt lat="59.177083" lon="18.159886">
        <ele>0</ele>
        <time>2019-08-31T07:52:24Z</time>
      </trkpt>
      <trkpt lat="59.17709" lon="18.159933">
        <ele>53</ele>
        <time>2019-08-31T07:52:25Z</time>
      </trkpt>
      <trkpt lat="59.177095" lon="18.159979">
        <ele>0</ele>
        <time>2019-08-31T07:52:26Z</time>
      </trkpt>
      <trkpt lat="59.177101" lon="18.160025">
        <ele>53</ele>
        <time>2019-08-31T07:52:27Z</time>
      </trkpt>
      <trkpt lat="59.177106" lon="18.160072">
        <ele>0</ele>
        <time>2019-08-31T07:52:28Z</time>
      </trkpt>
      <trkpt lat="59.177111" lon="18.160116">
        <ele>52</ele>
        <time>2019-08-31T07:52:29Z</time>
      </trkpt>
      <trkpt lat="59.177112" lon="18.160161">
        <ele>52</ele>
        <time>2019-08-31T07:52:31Z</time>
      </trkpt>
      <trkpt lat="59.177113" lon="18.160209">
        <ele>52</ele>
        <time>2019-08-31T07:52:32Z</time>
      </trkpt>
      <trkpt lat="59.177114" lon="18.160259">
        <ele>0</ele>
        <time>2019-08-31T07:52:32Z</time>
      </trkpt>
      <trkpt lat="59.177115" lon="18.16031">
        <ele>52</ele>
        <time>2019-08-31T07:52:33Z</time>
      </trkpt>
      <trkpt lat="59.177114" lon="18.160358">
        <ele>52</ele>
        <time>2019-08-31T07:52:35Z</time>
      </trkpt>
      <trkpt lat="59.17711" lon="18.160406">
        <ele>52</ele>
        <time>2019-08-31T07:52:36Z</time>
      </trkpt>
      <trkpt lat="59.177108" lon="18.160454">
        <ele>52</ele>
        <time>2019-08-31T07:52:37Z</time>
      </trkpt>
      <trkpt lat="59.177106" lon="18.160503">
        <ele>52</ele>
        <time>2019-08-31T07:52:38Z</time>
      </trkpt>
      <trkpt lat="59.177103" lon="18.160551">
        <ele>52</ele>
        <time>2019-08-31T07:52:39Z</time>
      </trkpt>
      <trkpt lat="59.177099" lon="18.160598">
        <ele>52</ele>
        <time>2019-08-31T07:52:40Z</time>
      </trkpt>
      <trkpt lat="59.177093" lon="18.160647">
        <ele>0</ele>
        <time>2019-08-31T07:52:40Z</time>
      </trkpt>
      <trkpt lat="59.177092" lon="18.160695">
        <ele>52</ele>
        <time>2019-08-31T07:52:41Z</time>
      </trkpt>
      <trkpt lat="59.177088" lon="18.160746">
        <ele>52</ele>
        <time>2019-08-31T07:52:43Z</time>
      </trkpt>
      <trkpt lat="59.177084" lon="18.160796">
        <ele>0</ele>
        <time>2019-08-31T07:52:43Z</time>
      </trkpt>
      <trkpt lat="59.177079" lon="18.160846">
        <ele>52</ele>
        <time>2019-08-31T07:52:44Z</time>
      </trkpt>
      <trkpt lat="59.177073" lon="18.160892">
        <ele>0</ele>
        <time>2019-08-31T07:52:45Z</time>
      </trkpt>
      <trkpt lat="59.177069" lon="18.160938">
        <ele>52</ele>
        <time>2019-08-31T07:52:46Z</time>
      </trkpt>
      <trkpt lat="59.177065" lon="18.160985">
        <ele>52</ele>
        <time>2019-08-31T07:52:48Z</time>
      </trkpt>
      <trkpt lat="59.177058" lon="18.161029">
        <ele>0</ele>
        <time>2019-08-31T07:52:48Z</time>
      </trkpt>
      <trkpt lat="59.177049" lon="18.161073">
        <ele>52</ele>
        <time>2019-08-31T07:52:49Z</time>
      </trkpt>
      <trkpt lat="59.177041" lon="18.16112">
        <ele>52</ele>
        <time>2019-08-31T07:52:51Z</time>
      </trkpt>
      <trkpt lat="59.177034" lon="18.161165">
        <ele>52</ele>
        <time>2019-08-31T07:52:52Z</time>
      </trkpt>
      <trkpt lat="59.177025" lon="18.16121">
        <ele>0</ele>
        <time>2019-08-31T07:52:52Z</time>
      </trkpt>
      <trkpt lat="59.177016" lon="18.161254">
        <ele>52</ele>
        <time>2019-08-31T07:52:53Z</time>
      </trkpt>
      <trkpt lat="59.177007" lon="18.1613">
        <ele>52</ele>
        <time>2019-08-31T07:52:55Z</time>
      </trkpt>
      <trkpt lat="59.176999" lon="18.161347">
        <ele>52</ele>
        <time>2019-08-31T07:52:56Z</time>
      </trkpt>
      <trkpt lat="59.176993" lon="18.161397">
        <ele>52</ele>
        <time>2019-08-31T07:52:57Z</time>
      </trkpt>
      <trkpt lat="59.176983" lon="18.161444">
        <ele>0</ele>
        <time>2019-08-31T07:52:57Z</time>
      </trkpt>
      <trkpt lat="59.176973" lon="18.161489">
        <ele>52</ele>
        <time>2019-08-31T07:52:58Z</time>
      </trkpt>
      <trkpt lat="59.17696" lon="18.161531">
        <ele>52</ele>
        <time>2019-08-31T07:53:00Z</time>
      </trkpt>
      <trkpt lat="59.176949" lon="18.161571">
        <ele>0</ele>
        <time>2019-08-31T07:53:00Z</time>
      </trkpt>
      <trkpt lat="59.176931" lon="18.161605">
        <ele>51</ele>
        <time>2019-08-31T07:53:01Z</time>
      </trkpt>
      <trkpt lat="59.176906" lon="18.161622">
        <ele>51</ele>
        <time>2019-08-31T07:53:02Z</time>
      </trkpt>
      <trkpt lat="59.176884" lon="18.161618">
        <ele>51</ele>
        <time>2019-08-31T07:53:03Z</time>
      </trkpt>
      <trkpt lat="59.176857" lon="18.161608">
        <ele>50</ele>
        <time>2019-08-31T07:53:05Z</time>
      </trkpt>
      <trkpt lat="59.17683" lon="18.161594">
        <ele>50</ele>
        <time>2019-08-31T07:53:06Z</time>
      </trkpt>
      <trkpt lat="59.176805" lon="18.161582">
        <ele>50</ele>
        <time>2019-08-31T07:53:07Z</time>
      </trkpt>
      <trkpt lat="59.17678" lon="18.161572">
        <ele>49</ele>
        <time>2019-08-31T07:53:08Z</time>
      </trkpt>
      <trkpt lat="59.176752" lon="18.161567">
        <ele>49</ele>
        <time>2019-08-31T07:53:09Z</time>
      </trkpt>
      <trkpt lat="59.176725" lon="18.161555">
        <ele>0</ele>
        <time>2019-08-31T07:53:09Z</time>
      </trkpt>
      <trkpt lat="59.1767" lon="18.161543">
        <ele>49</ele>
        <time>2019-08-31T07:53:10Z</time>
      </trkpt>
      <trkpt lat="59.176677" lon="18.161529">
        <ele>49</ele>
        <time>2019-08-31T07:53:12Z</time>
      </trkpt>
      <trkpt lat="59.176651" lon="18.161516">
        <ele>0</ele>
        <time>2019-08-31T07:53:12Z</time>
      </trkpt>
      <trkpt lat="59.176625" lon="18.161507">
        <ele>49</ele>
        <time>2019-08-31T07:53:13Z</time>
      </trkpt>
      <trkpt lat="59.176599" lon="18.161498">
        <ele>49</ele>
        <time>2019-08-31T07:53:15Z</time>
      </trkpt>
      <trkpt lat="59.176574" lon="18.161486">
        <ele>0</ele>
        <time>2019-08-31T07:53:15Z</time>
      </trkpt>
      <trkpt lat="59.17655" lon="18.161476">
        <ele>49</ele>
        <time>2019-08-31T07:53:16Z</time>
      </trkpt>
      <trkpt lat="59.176526" lon="18.161463">
        <ele>49</ele>
        <time>2019-08-31T07:53:18Z</time>
      </trkpt>
      <trkpt lat="59.176502" lon="18.161453">
        <ele>49</ele>
        <time>2019-08-31T07:53:19Z</time>
      </trkpt>
      <trkpt lat="59.176477" lon="18.161446">
        <ele>49</ele>
        <time>2019-08-31T07:53:20Z</time>
      </trkpt>
      <trkpt lat="59.176453" lon="18.161433">
        <ele>49</ele>
        <time>2019-08-31T07:53:21Z</time>
      </trkpt>
      <trkpt lat="59.176431" lon="18.161421">
        <ele>0</ele>
        <time>2019-08-31T07:53:21Z</time>
      </trkpt>
      <trkpt lat="59.176407" lon="18.161411">
        <ele>48</ele>
        <time>2019-08-31T07:53:22Z</time>
      </trkpt>
      <trkpt lat="59.176383" lon="18.161404">
        <ele>0</ele>
        <time>2019-08-31T07:53:23Z</time>
      </trkpt>
      <trkpt lat="59.17636" lon="18.161395">
        <ele>49</ele>
        <time>2019-08-31T07:53:24Z</time>
      </trkpt>
      <trkpt lat="59.176335" lon="18.161384">
        <ele>48</ele>
        <time>2019-08-31T07:53:26Z</time>
      </trkpt>
      <trkpt lat="59.176313" lon="18.161377">
        <ele>0</ele>
        <time>2019-08-31T07:53:26Z</time>
      </trkpt>
      <trkpt lat="59.17629" lon="18.161367">
        <ele>48</ele>
        <time>2019-08-31T07:53:27Z</time>
      </trkpt>
      <trkpt lat="59.176268" lon="18.161356">
        <ele>48</ele>
        <time>2019-08-31T07:53:28Z</time>
      </trkpt>
      <trkpt lat="59.176245" lon="18.161349">
        <ele>48</ele>
        <time>2019-08-31T07:53:30Z</time>
      </trkpt>
      <trkpt lat="59.176221" lon="18.16134">
        <ele>48</ele>
        <time>2019-08-31T07:53:31Z</time>
      </trkpt>
      <trkpt lat="59.176198" lon="18.161336">
        <ele>48</ele>
        <time>2019-08-31T07:53:32Z</time>
      </trkpt>
      <trkpt lat="59.176176" lon="18.161329">
        <ele>48</ele>
        <time>2019-08-31T07:53:33Z</time>
      </trkpt>
      <trkpt lat="59.176152" lon="18.161322">
        <ele>0</ele>
        <time>2019-08-31T07:53:33Z</time>
      </trkpt>
      <trkpt lat="59.176129" lon="18.161315">
        <ele>48</ele>
        <time>2019-08-31T07:53:34Z</time>
      </trkpt>
      <trkpt lat="59.176105" lon="18.16131">
        <ele>48</ele>
        <time>2019-08-31T07:53:36Z</time>
      </trkpt>
      <trkpt lat="59.176081" lon="18.161305">
        <ele>48</ele>
        <time>2019-08-31T07:53:37Z</time>
      </trkpt>
      <trkpt lat="59.176058" lon="18.161299">
        <ele>48</ele>
        <time>2019-08-31T07:53:38Z</time>
      </trkpt>
      <trkpt lat="59.176035" lon="18.161292">
        <ele>0</ele>
        <time>2019-08-31T07:53:38Z</time>
      </trkpt>
      <trkpt lat="59.176012" lon="18.161286">
        <ele>48</ele>
        <time>2019-08-31T07:53:39Z</time>
      </trkpt>
      <trkpt lat="59.175989" lon="18.161279">
        <ele>0</ele>
        <time>2019-08-31T07:53:40Z</time>
      </trkpt>
      <trkpt lat="59.175966" lon="18.161273">
        <ele>48</ele>
        <time>2019-08-31T07:53:41Z</time>
      </trkpt>
      <trkpt lat="59.175944" lon="18.161264">
        <ele>49</ele>
        <time>2019-08-31T07:53:43Z</time>
      </trkpt>
      <trkpt lat="59.175924" lon="18.161256">
        <ele>49</ele>
        <time>2019-08-31T07:53:44Z</time>
      </trkpt>
      <trkpt lat="59.175902" lon="18.16125">
        <ele>49</ele>
        <time>2019-08-31T07:53:45Z</time>
      </trkpt>
      <trkpt lat="59.17588" lon="18.161241">
        <ele>49</ele>
        <time>2019-08-31T07:53:46Z</time>
      </trkpt>
      <trkpt lat="59.175857" lon="18.161235">
        <ele>49</ele>
        <time>2019-08-31T07:53:47Z</time>
      </trkpt>
      <trkpt lat="59.175834" lon="18.161227">
        <ele>0</ele>
        <time>2019-08-31T07:53:47Z</time>
      </trkpt>
      <trkpt lat="59.175812" lon="18.161224">
        <ele>49</ele>
        <time>2019-08-31T07:53:48Z</time>
      </trkpt>
      <trkpt lat="59.175789" lon="18.161219">
        <ele>49</ele>
        <time>2019-08-31T07:53:50Z</time>
      </trkpt>
      <trkpt lat="59.175766" lon="18.161213">
        <ele>49</ele>
        <time>2019-08-31T07:53:51Z</time>
      </trkpt>
      <trkpt lat="59.175743" lon="18.161214">
        <ele>50</ele>
        <time>2019-08-31T07:53:52Z</time>
      </trkpt>
      <trkpt lat="59.17572" lon="18.161208">
        <ele>50</ele>
        <time>2019-08-31T07:53:53Z</time>
      </trkpt>
      <trkpt lat="59.175696" lon="18.161205">
        <ele>50</ele>
        <time>2019-08-31T07:53:54Z</time>
      </trkpt>
      <trkpt lat="59.175674" lon="18.1612">
        <ele>0</ele>
        <time>2019-08-31T07:53:54Z</time>
      </trkpt>
      <trkpt lat="59.175651" lon="18.161193">
        <ele>50</ele>
        <time>2019-08-31T07:53:55Z</time>
      </trkpt>
      <trkpt lat="59.175628" lon="18.161194">
        <ele>51</ele>
        <time>2019-08-31T07:53:57Z</time>
      </trkpt>
      <trkpt lat="59.175602" lon="18.161196">
        <ele>51</ele>
        <time>2019-08-31T07:53:58Z</time>
      </trkpt>
      <trkpt lat="59.175576" lon="18.161198">
        <ele>51</ele>
        <time>2019-08-31T07:53:59Z</time>
      </trkpt>
      <trkpt lat="59.175551" lon="18.161199">
        <ele>0</ele>
        <time>2019-08-31T07:53:59Z</time>
      </trkpt>
      <trkpt lat="59.175527" lon="18.161198">
        <ele>52</ele>
        <time>2019-08-31T07:54:00Z</time>
      </trkpt>
      <trkpt lat="59.175505" lon="18.161198">
        <ele>52</ele>
        <time>2019-08-31T07:54:02Z</time>
      </trkpt>
      <trkpt lat="59.175482" lon="18.161195">
        <ele>52</ele>
        <time>2019-08-31T07:54:03Z</time>
      </trkpt>
      <trkpt lat="59.175458" lon="18.161194">
        <ele>52</ele>
        <time>2019-08-31T07:54:04Z</time>
      </trkpt>
      <trkpt lat="59.175435" lon="18.161194">
        <ele>53</ele>
        <time>2019-08-31T07:54:05Z</time>
      </trkpt>
      <trkpt lat="59.175413" lon="18.161196">
        <ele>53</ele>
        <time>2019-08-31T07:54:06Z</time>
      </trkpt>
      <trkpt lat="59.175392" lon="18.161192">
        <ele>53</ele>
        <time>2019-08-31T07:54:07Z</time>
      </trkpt>
      <trkpt lat="59.17537" lon="18.161189">
        <ele>0</ele>
        <time>2019-08-31T07:54:07Z</time>
      </trkpt>
      <trkpt lat="59.175347" lon="18.161187">
        <ele>53</ele>
        <time>2019-08-31T07:54:08Z</time>
      </trkpt>
      <trkpt lat="59.175325" lon="18.161186">
        <ele>53</ele>
        <time>2019-08-31T07:54:10Z</time>
      </trkpt>
      <trkpt lat="59.175302" lon="18.161181">
        <ele>0</ele>
        <time>2019-08-31T07:54:10Z</time>
      </trkpt>
      <trkpt lat="59.175282" lon="18.161163">
        <ele>53</ele>
        <time>2019-08-31T07:54:11Z</time>
      </trkpt>
      <trkpt lat="59.175264" lon="18.161139">
        <ele>53</ele>
        <time>2019-08-31T07:54:13Z</time>
      </trkpt>
      <trkpt lat="59.175247" lon="18.161111">
        <ele>53</ele>
        <time>2019-08-31T07:54:14Z</time>
      </trkpt>
      <trkpt lat="59.175229" lon="18.161088">
        <ele>53</ele>
        <time>2019-08-31T07:54:15Z</time>
      </trkpt>
      <trkpt lat="59.175207" lon="18.161068">
        <ele>53</ele>
        <time>2019-08-31T07:54:16Z</time>
      </trkpt>
      <trkpt lat="59.175181" lon="18.161052">
        <ele>0</ele>
        <time>2019-08-31T07:54:16Z</time>
      </trkpt>
      <trkpt lat="59.175156" lon="18.161044">
        <ele>54</ele>
        <time>2019-08-31T07:54:17Z</time>
      </trkpt>
      <trkpt lat="59.175132" lon="18.161036">
        <ele>0</ele>
        <time>2019-08-31T07:54:18Z</time>
      </trkpt>
      <trkpt lat="59.175108" lon="18.161034">
        <ele>54</ele>
        <time>2019-08-31T07:54:19Z</time>
      </trkpt>
      <trkpt lat="59.175083" lon="18.161035">
        <ele>54</ele>
        <time>2019-08-31T07:54:21Z</time>
      </trkpt>
      <trkpt lat="59.175058" lon="18.161035">
        <ele>54</ele>
        <time>2019-08-31T07:54:22Z</time>
      </trkpt>
      <trkpt lat="59.175035" lon="18.161033">
        <ele>54</ele>
        <time>2019-08-31T07:54:23Z</time>
      </trkpt>
      <trkpt lat="59.175014" lon="18.161032">
        <ele>54</ele>
        <time>2019-08-31T07:54:24Z</time>
      </trkpt>
      <trkpt lat="59.174993" lon="18.161037">
        <ele>55</ele>
        <time>2019-08-31T07:54:25Z</time>
      </trkpt>
      <trkpt lat="59.174971" lon="18.161049">
        <ele>0</ele>
        <time>2019-08-31T07:54:25Z</time>
      </trkpt>
      <trkpt lat="59.174953" lon="18.161068">
        <ele>55</ele>
        <time>2019-08-31T07:54:26Z</time>
      </trkpt>
      <trkpt lat="59.174937" lon="18.161091">
        <ele>55</ele>
        <time>2019-08-31T07:54:28Z</time>
      </trkpt>
      <trkpt lat="59.174917" lon="18.161118">
        <ele>0</ele>
        <time>2019-08-31T07:54:28Z</time>
      </trkpt>
      <trkpt lat="59.174896" lon="18.161138">
        <ele>55</ele>
        <time>2019-08-31T07:54:29Z</time>
      </trkpt>
      <trkpt lat="59.174873" lon="18.161148">
        <ele>55</ele>
        <time>2019-08-31T07:54:31Z</time>
      </trkpt>
      <trkpt lat="59.174851" lon="18.16115">
        <ele>55</ele>
        <time>2019-08-31T07:54:32Z</time>
      </trkpt>
      <trkpt lat="59.17483" lon="18.161155">
        <ele>55</ele>
        <time>2019-08-31T07:54:33Z</time>
      </trkpt>
      <trkpt lat="59.174808" lon="18.161152">
        <ele>55</ele>
        <time>2019-08-31T07:54:34Z</time>
      </trkpt>
      <trkpt lat="59.174785" lon="18.161152">
        <ele>55</ele>
        <time>2019-08-31T07:54:35Z</time>
      </trkpt>
      <trkpt lat="59.174761" lon="18.161154">
        <ele>55</ele>
        <time>2019-08-31T07:54:36Z</time>
      </trkpt>
      <trkpt lat="59.174736" lon="18.16116">
        <ele>0</ele>
        <time>2019-08-31T07:54:36Z</time>
      </trkpt>
      <trkpt lat="59.174711" lon="18.161166">
        <ele>55</ele>
        <time>2019-08-31T07:54:37Z</time>
      </trkpt>
      <trkpt lat="59.174688" lon="18.161172">
        <ele>55</ele>
        <time>2019-08-31T07:54:38Z</time>
      </trkpt>
      <trkpt lat="59.174666" lon="18.161174">
        <ele>55</ele>
        <time>2019-08-31T07:54:39Z</time>
      </trkpt>
      <trkpt lat="59.174645" lon="18.161177">
        <ele>56</ele>
        <time>2019-08-31T07:54:41Z</time>
      </trkpt>
      <trkpt lat="59.174624" lon="18.161182">
        <ele>56</ele>
        <time>2019-08-31T07:54:42Z</time>
      </trkpt>
      <trkpt lat="59.174602" lon="18.161185">
        <ele>56</ele>
        <time>2019-08-31T07:54:43Z</time>
      </trkpt>
      <trkpt lat="59.174578" lon="18.161182">
        <ele>0</ele>
        <time>2019-08-31T07:54:43Z</time>
      </trkpt>
      <trkpt lat="59.174557" lon="18.161182">
        <ele>56</ele>
        <time>2019-08-31T07:54:44Z</time>
      </trkpt>
      <trkpt lat="59.174534" lon="18.16118">
        <ele>56</ele>
        <time>2019-08-31T07:54:46Z</time>
      </trkpt>
      <trkpt lat="59.174513" lon="18.161176">
        <ele>0</ele>
        <time>2019-08-31T07:54:46Z</time>
      </trkpt>
      <trkpt lat="59.174492" lon="18.161178">
        <ele>56</ele>
        <time>2019-08-31T07:54:47Z</time>
      </trkpt>
      <trkpt lat="59.174471" lon="18.161177">
        <ele>56</ele>
        <time>2019-08-31T07:54:49Z</time>
      </trkpt>
      <trkpt lat="59.174449" lon="18.16118">
        <ele>56</ele>
        <time>2019-08-31T07:54:50Z</time>
      </trkpt>
      <trkpt lat="59.174427" lon="18.161179">
        <ele>56</ele>
        <time>2019-08-31T07:54:51Z</time>
      </trkpt>
      <trkpt lat="59.174405" lon="18.161179">
        <ele>56</ele>
        <time>2019-08-31T07:54:52Z</time>
      </trkpt>
      <trkpt lat="59.174383" lon="18.161182">
        <ele>56</ele>
        <time>2019-08-31T07:54:53Z</time>
      </trkpt>
      <trkpt lat="59.174359" lon="18.16118">
        <ele>56</ele>
        <time>2019-08-31T07:54:54Z</time>
      </trkpt>
      <trkpt lat="59.174335" lon="18.161185">
        <ele>0</ele>
        <time>2019-08-31T07:54:54Z</time>
      </trkpt>
      <trkpt lat="59.17431" lon="18.161191">
        <ele>57</ele>
        <time>2019-08-31T07:54:55Z</time>
      </trkpt>
      <trkpt lat="59.174285" lon="18.161194">
        <ele>0</ele>
        <time>2019-08-31T07:54:56Z</time>
      </trkpt>
      <trkpt lat="59.17426" lon="18.161199">
        <ele>57</ele>
        <time>2019-08-31T07:54:57Z</time>
      </trkpt>
      <trkpt lat="59.174235" lon="18.161202">
        <ele>57</ele>
        <time>2019-08-31T07:54:59Z</time>
      </trkpt>
      <trkpt lat="59.174213" lon="18.1612">
        <ele>0</ele>
        <time>2019-08-31T07:54:59Z</time>
      </trkpt>
      <trkpt lat="59.174189" lon="18.161202">
        <ele>57</ele>
        <time>2019-08-31T07:55:00Z</time>
      </trkpt>
      <trkpt lat="59.174167" lon="18.161205">
        <ele>57</ele>
        <time>2019-08-31T07:55:01Z</time>
      </trkpt>
      <trkpt lat="59.174146" lon="18.161203">
        <ele>57</ele>
        <time>2019-08-31T07:55:03Z</time>
      </trkpt>
      <trkpt lat="59.174124" lon="18.161199">
        <ele>0</ele>
        <time>2019-08-31T07:55:03Z</time>
      </trkpt>
      <trkpt lat="59.174103" lon="18.161194">
        <ele>57</ele>
        <time>2019-08-31T07:55:04Z</time>
      </trkpt>
      <trkpt lat="59.17408" lon="18.16119">
        <ele>57</ele>
        <time>2019-08-31T07:55:06Z</time>
      </trkpt>
      <trkpt lat="59.174059" lon="18.161188">
        <ele>0</ele>
        <time>2019-08-31T07:55:06Z</time>
      </trkpt>
      <trkpt lat="59.174036" lon="18.161191">
        <ele>57</ele>
        <time>2019-08-31T07:55:07Z</time>
      </trkpt>
      <trkpt lat="59.174017" lon="18.161185">
        <ele>57</ele>
        <time>2019-08-31T07:55:09Z</time>
      </trkpt>
      <trkpt lat="59.173997" lon="18.161182">
        <ele>57</ele>
        <time>2019-08-31T07:55:10Z</time>
      </trkpt>
      <trkpt lat="59.173976" lon="18.161183">
        <ele>57</ele>
        <time>2019-08-31T07:55:11Z</time>
      </trkpt>
      <trkpt lat="59.173953" lon="18.161183">
        <ele>57</ele>
        <time>2019-08-31T07:55:12Z</time>
      </trkpt>
      <trkpt lat="59.17393" lon="18.161185">
        <ele>56</ele>
        <time>2019-08-31T07:55:13Z</time>
      </trkpt>
      <trkpt lat="59.173907" lon="18.161188">
        <ele>56</ele>
        <time>2019-08-31T07:55:14Z</time>
      </trkpt>
      <trkpt lat="59.173885" lon="18.161189">
        <ele>0</ele>
        <time>2019-08-31T07:55:14Z</time>
      </trkpt>
      <trkpt lat="59.173864" lon="18.161195">
        <ele>57</ele>
        <time>2019-08-31T07:55:15Z</time>
      </trkpt>
      <trkpt lat="59.173842" lon="18.161195">
        <ele>56</ele>
        <time>2019-08-31T07:55:16Z</time>
      </trkpt>
      <trkpt lat="59.173824" lon="18.161187">
        <ele>57</ele>
        <time>2019-08-31T07:55:18Z</time>
      </trkpt>
      <trkpt lat="59.173786" lon="18.161184">
        <ele>0</ele>
        <time>2019-08-31T07:55:19Z</time>
      </trkpt>
      <trkpt lat="59.173765" lon="18.161188">
        <ele>57</ele>
        <time>2019-08-31T07:55:20Z</time>
      </trkpt>
      <trkpt lat="59.173744" lon="18.161189">
        <ele>0</ele>
        <time>2019-08-31T07:55:21Z</time>
      </trkpt>
      <trkpt lat="59.173723" lon="18.16119">
        <ele>57</ele>
        <time>2019-08-31T07:55:22Z</time>
      </trkpt>
      <trkpt lat="59.1737" lon="18.161197">
        <ele>0</ele>
        <time>2019-08-31T07:55:23Z</time>
      </trkpt>
      <trkpt lat="59.173679" lon="18.161201">
        <ele>57</ele>
        <time>2019-08-31T07:55:24Z</time>
      </trkpt>
      <trkpt lat="59.173657" lon="18.161204">
        <ele>57</ele>
        <time>2019-08-31T07:55:26Z</time>
      </trkpt>
      <trkpt lat="59.173632" lon="18.161209">
        <ele>57</ele>
        <time>2019-08-31T07:55:27Z</time>
      </trkpt>
      <trkpt lat="59.173607" lon="18.16122">
        <ele>57</ele>
        <time>2019-08-31T07:55:28Z</time>
      </trkpt>
      <trkpt lat="59.17358" lon="18.161228">
        <ele>0</ele>
        <time>2019-08-31T07:55:28Z</time>
      </trkpt>
      <trkpt lat="59.173555" lon="18.161241">
        <ele>57</ele>
        <time>2019-08-31T07:55:29Z</time>
      </trkpt>
      <trkpt lat="59.173532" lon="18.16126">
        <ele>57</ele>
        <time>2019-08-31T07:55:31Z</time>
      </trkpt>
      <trkpt lat="59.173514" lon="18.161292">
        <ele>0</ele>
        <time>2019-08-31T07:55:31Z</time>
      </trkpt>
      <trkpt lat="59.173501" lon="18.161329">
        <ele>57</ele>
        <time>2019-08-31T07:55:32Z</time>
      </trkpt>
      <trkpt lat="59.173493" lon="18.16137">
        <ele>57</ele>
        <time>2019-08-31T07:55:34Z</time>
      </trkpt>
      <trkpt lat="59.173486" lon="18.161409">
        <ele>0</ele>
        <time>2019-08-31T07:55:34Z</time>
      </trkpt>
      <trkpt lat="59.173478" lon="18.161467">
        <ele>57</ele>
        <time>2019-08-31T07:55:37Z</time>
      </trkpt>
      <trkpt lat="59.173475" lon="18.161508">
        <ele>57</ele>
        <time>2019-08-31T07:55:38Z</time>
      </trkpt>
      <trkpt lat="59.173477" lon="18.161555">
        <ele>57</ele>
        <time>2019-08-31T07:55:39Z</time>
      </trkpt>
      <trkpt lat="59.173481" lon="18.1616">
        <ele>57</ele>
        <time>2019-08-31T07:55:40Z</time>
      </trkpt>
      <trkpt lat="59.173487" lon="18.161649">
        <ele>57</ele>
        <time>2019-08-31T07:55:41Z</time>
      </trkpt>
      <trkpt lat="59.173491" lon="18.161695">
        <ele>57</ele>
        <time>2019-08-31T07:55:42Z</time>
      </trkpt>
      <trkpt lat="59.173529" lon="18.161895">
        <ele>57</ele>
        <time>2019-08-31T07:55:45Z</time>
      </trkpt>
      <trkpt lat="59.173535" lon="18.161934">
        <ele>58</ele>
        <time>2019-08-31T07:55:47Z</time>
      </trkpt>
      <trkpt lat="59.17354" lon="18.161975">
        <ele>0</ele>
        <time>2019-08-31T07:55:47Z</time>
      </trkpt>
      <trkpt lat="59.17354" lon="18.162019">
        <ele>58</ele>
        <time>2019-08-31T07:55:48Z</time>
      </trkpt>
      <trkpt lat="59.173535" lon="18.162069">
        <ele>58</ele>
        <time>2019-08-31T07:55:50Z</time>
      </trkpt>
      <trkpt lat="59.173538" lon="18.162113">
        <ele>0</ele>
        <time>2019-08-31T07:55:50Z</time>
      </trkpt>
      <trkpt lat="59.173536" lon="18.162154">
        <ele>58</ele>
        <time>2019-08-31T07:55:51Z</time>
      </trkpt>
      <trkpt lat="59.173533" lon="18.162194">
        <ele>58</ele>
        <time>2019-08-31T07:55:53Z</time>
      </trkpt>
      <trkpt lat="59.173533" lon="18.162241">
        <ele>0</ele>
        <time>2019-08-31T07:55:53Z</time>
      </trkpt>
      <trkpt lat="59.173523" lon="18.162288">
        <ele>58</ele>
        <time>2019-08-31T07:55:54Z</time>
      </trkpt>
      <trkpt lat="59.173506" lon="18.162329">
        <ele>0</ele>
        <time>2019-08-31T07:55:55Z</time>
      </trkpt>
      <trkpt lat="59.173483" lon="18.162358">
        <ele>58</ele>
        <time>2019-08-31T07:55:56Z</time>
      </trkpt>
      <trkpt lat="59.173461" lon="18.162374">
        <ele>58</ele>
        <time>2019-08-31T07:55:58Z</time>
      </trkpt>
      <trkpt lat="59.173439" lon="18.162389">
        <ele>0</ele>
        <time>2019-08-31T07:55:58Z</time>
      </trkpt>
      <trkpt lat="59.173416" lon="18.1624">
        <ele>58</ele>
        <time>2019-08-31T07:55:59Z</time>
      </trkpt>
      <trkpt lat="59.173399" lon="18.162409">
        <ele>58</ele>
        <time>2019-08-31T07:56:01Z</time>
      </trkpt>
      <trkpt lat="59.17337" lon="18.16242">
        <ele>58</ele>
        <time>2019-08-31T07:56:03Z</time>
      </trkpt>
      <trkpt lat="59.17335" lon="18.16243">
        <ele>58</ele>
        <time>2019-08-31T07:56:04Z</time>
      </trkpt>
      <trkpt lat="59.173325" lon="18.16245">
        <ele>58</ele>
        <time>2019-08-31T07:56:05Z</time>
      </trkpt>
      <trkpt lat="59.173302" lon="18.16247">
        <ele>58</ele>
        <time>2019-08-31T07:56:06Z</time>
      </trkpt>
      <trkpt lat="59.173275" lon="18.162498">
        <ele>0</ele>
        <time>2019-08-31T07:56:06Z</time>
      </trkpt>
      <trkpt lat="59.173205" lon="18.162508">
        <ele>58</ele>
        <time>2019-08-31T07:56:09Z</time>
      </trkpt>
      <trkpt lat="59.173134" lon="18.16249">
        <ele>58</ele>
        <time>2019-08-31T07:56:10Z</time>
      </trkpt>
      <trkpt lat="59.173102" lon="18.16246">
        <ele>58</ele>
        <time>2019-08-31T07:56:12Z</time>
      </trkpt>
      <trkpt lat="59.173076" lon="18.162452">
        <ele>0</ele>
        <time>2019-08-31T07:56:12Z</time>
      </trkpt>
      <trkpt lat="59.17305" lon="18.162439">
        <ele>58</ele>
        <time>2019-08-31T07:56:13Z</time>
      </trkpt>
      <trkpt lat="59.17303" lon="18.162424">
        <ele>0</ele>
        <time>2019-08-31T07:56:14Z</time>
      </trkpt>
      <trkpt lat="59.17301" lon="18.162404">
        <ele>58</ele>
        <time>2019-08-31T07:56:15Z</time>
      </trkpt>
      <trkpt lat="59.172992" lon="18.162382">
        <ele>58</ele>
        <time>2019-08-31T07:56:17Z</time>
      </trkpt>
      <trkpt lat="59.172974" lon="18.162362">
        <ele>0</ele>
        <time>2019-08-31T07:56:17Z</time>
      </trkpt>
      <trkpt lat="59.172957" lon="18.162336">
        <ele>58</ele>
        <time>2019-08-31T07:56:18Z</time>
      </trkpt>
      <trkpt lat="59.172937" lon="18.16231">
        <ele>58</ele>
        <time>2019-08-31T07:56:20Z</time>
      </trkpt>
      <trkpt lat="59.17292" lon="18.162282">
        <ele>58</ele>
        <time>2019-08-31T07:56:21Z</time>
      </trkpt>
      <trkpt lat="59.1729" lon="18.162256">
        <ele>58</ele>
        <time>2019-08-31T07:56:22Z</time>
      </trkpt>
      <trkpt lat="59.172881" lon="18.162234">
        <ele>58</ele>
        <time>2019-08-31T07:56:23Z</time>
      </trkpt>
      <trkpt lat="59.172864" lon="18.162212">
        <ele>59</ele>
        <time>2019-08-31T07:56:24Z</time>
      </trkpt>
      <trkpt lat="59.172847" lon="18.162184">
        <ele>59</ele>
        <time>2019-08-31T07:56:25Z</time>
      </trkpt>
      <trkpt lat="59.172831" lon="18.162162">
        <ele>0</ele>
        <time>2019-08-31T07:56:25Z</time>
      </trkpt>
      <trkpt lat="59.172813" lon="18.162142">
        <ele>59</ele>
        <time>2019-08-31T07:56:26Z</time>
      </trkpt>
      <trkpt lat="59.172792" lon="18.162124">
        <ele>59</ele>
        <time>2019-08-31T07:56:28Z</time>
      </trkpt>
      <trkpt lat="59.172776" lon="18.162104">
        <ele>0</ele>
        <time>2019-08-31T07:56:28Z</time>
      </trkpt>
      <trkpt lat="59.172758" lon="18.162082">
        <ele>59</ele>
        <time>2019-08-31T07:56:29Z</time>
      </trkpt>
      <trkpt lat="59.172741" lon="18.162058">
        <ele>60</ele>
        <time>2019-08-31T07:56:31Z</time>
      </trkpt>
      <trkpt lat="59.172723" lon="18.162036">
        <ele>0</ele>
        <time>2019-08-31T07:56:31Z</time>
      </trkpt>
      <trkpt lat="59.172704" lon="18.16202">
        <ele>60</ele>
        <time>2019-08-31T07:56:32Z</time>
      </trkpt>
      <trkpt lat="59.172685" lon="18.162002">
        <ele>60</ele>
        <time>2019-08-31T07:56:34Z</time>
      </trkpt>
      <trkpt lat="59.172667" lon="18.161979">
        <ele>60</ele>
        <time>2019-08-31T07:56:35Z</time>
      </trkpt>
      <trkpt lat="59.172649" lon="18.161956">
        <ele>60</ele>
        <time>2019-08-31T07:56:36Z</time>
      </trkpt>
      <trkpt lat="59.172631" lon="18.161941">
        <ele>0</ele>
        <time>2019-08-31T07:56:36Z</time>
      </trkpt>
      <trkpt lat="59.172613" lon="18.161928">
        <ele>60</ele>
        <time>2019-08-31T07:56:37Z</time>
      </trkpt>
      <trkpt lat="59.172597" lon="18.161912">
        <ele>60</ele>
        <time>2019-08-31T07:56:39Z</time>
      </trkpt>
      <trkpt lat="59.172579" lon="18.161898">
        <ele>60</ele>
        <time>2019-08-31T07:56:40Z</time>
      </trkpt>
      <trkpt lat="59.172561" lon="18.161879">
        <ele>60</ele>
        <time>2019-08-31T07:56:41Z</time>
      </trkpt>
      <trkpt lat="59.172542" lon="18.161868">
        <ele>60</ele>
        <time>2019-08-31T07:56:42Z</time>
      </trkpt>
      <trkpt lat="59.172523" lon="18.161854">
        <ele>60</ele>
        <time>2019-08-31T07:56:43Z</time>
      </trkpt>
      <trkpt lat="59.172504" lon="18.161838">
        <ele>61</ele>
        <time>2019-08-31T07:56:44Z</time>
      </trkpt>
      <trkpt lat="59.172485" lon="18.16183">
        <ele>61</ele>
        <time>2019-08-31T07:56:45Z</time>
      </trkpt>
      <trkpt lat="59.172467" lon="18.161822">
        <ele>61</ele>
        <time>2019-08-31T07:56:46Z</time>
      </trkpt>
      <trkpt lat="59.172446" lon="18.161812">
        <ele>61</ele>
        <time>2019-08-31T07:56:47Z</time>
      </trkpt>
      <trkpt lat="59.172423" lon="18.161805">
        <ele>0</ele>
        <time>2019-08-31T07:56:47Z</time>
      </trkpt>
      <trkpt lat="59.1724" lon="18.161798">
        <ele>61</ele>
        <time>2019-08-31T07:56:48Z</time>
      </trkpt>
      <trkpt lat="59.17238" lon="18.161789">
        <ele>0</ele>
        <time>2019-08-31T07:56:49Z</time>
      </trkpt>
      <trkpt lat="59.172359" lon="18.161784">
        <ele>61</ele>
        <time>2019-08-31T07:56:50Z</time>
      </trkpt>
      <trkpt lat="59.17234" lon="18.161774">
        <ele>61</ele>
        <time>2019-08-31T07:56:51Z</time>
      </trkpt>
      <trkpt lat="59.172318" lon="18.161766">
        <ele>61</ele>
        <time>2019-08-31T07:56:53Z</time>
      </trkpt>
      <trkpt lat="59.172298" lon="18.161754">
        <ele>61</ele>
        <time>2019-08-31T07:56:54Z</time>
      </trkpt>
      <trkpt lat="59.172278" lon="18.161746">
        <ele>61</ele>
        <time>2019-08-31T07:56:55Z</time>
      </trkpt>
      <trkpt lat="59.17226" lon="18.161732">
        <ele>61</ele>
        <time>2019-08-31T07:56:56Z</time>
      </trkpt>
      <trkpt lat="59.172243" lon="18.161718">
        <ele>61</ele>
        <time>2019-08-31T07:56:57Z</time>
      </trkpt>
      <trkpt lat="59.172224" lon="18.16171">
        <ele>0</ele>
        <time>2019-08-31T07:56:57Z</time>
      </trkpt>
      <trkpt lat="59.172205" lon="18.161702">
        <ele>61</ele>
        <time>2019-08-31T07:56:58Z</time>
      </trkpt>
      <trkpt lat="59.172186" lon="18.161689">
        <ele>61</ele>
        <time>2019-08-31T07:57:00Z</time>
      </trkpt>
      <trkpt lat="59.172168" lon="18.161682">
        <ele>61</ele>
        <time>2019-08-31T07:57:01Z</time>
      </trkpt>
      <trkpt lat="59.172149" lon="18.16168">
        <ele>61</ele>
        <time>2019-08-31T07:57:02Z</time>
      </trkpt>
      <trkpt lat="59.17213" lon="18.161676">
        <ele>61</ele>
        <time>2019-08-31T07:57:03Z</time>
      </trkpt>
      <trkpt lat="59.172112" lon="18.161667">
        <ele>61</ele>
        <time>2019-08-31T07:57:04Z</time>
      </trkpt>
      <trkpt lat="59.172092" lon="18.16166">
        <ele>61</ele>
        <time>2019-08-31T07:57:05Z</time>
      </trkpt>
      <trkpt lat="59.172073" lon="18.161658">
        <ele>62</ele>
        <time>2019-08-31T07:57:06Z</time>
      </trkpt>
      <trkpt lat="59.172055" lon="18.161654">
        <ele>62</ele>
        <time>2019-08-31T07:57:07Z</time>
      </trkpt>
      <trkpt lat="59.172035" lon="18.16165">
        <ele>62</ele>
        <time>2019-08-31T07:57:08Z</time>
      </trkpt>
      <trkpt lat="59.172015" lon="18.16165">
        <ele>0</ele>
        <time>2019-08-31T07:57:08Z</time>
      </trkpt>
      <trkpt lat="59.171993" lon="18.161651">
        <ele>62</ele>
        <time>2019-08-31T07:57:09Z</time>
      </trkpt>
      <trkpt lat="59.171975" lon="18.161642">
        <ele>62</ele>
        <time>2019-08-31T07:57:10Z</time>
      </trkpt>
      <trkpt lat="59.171954" lon="18.161632">
        <ele>62</ele>
        <time>2019-08-31T07:57:12Z</time>
      </trkpt>
      <trkpt lat="59.171936" lon="18.16162">
        <ele>62</ele>
        <time>2019-08-31T07:57:13Z</time>
      </trkpt>
      <trkpt lat="59.171917" lon="18.161608">
        <ele>62</ele>
        <time>2019-08-31T07:57:14Z</time>
      </trkpt>
      <trkpt lat="59.171899" lon="18.161595">
        <ele>0</ele>
        <time>2019-08-31T07:57:14Z</time>
      </trkpt>
      <trkpt lat="59.17188" lon="18.161587">
        <ele>62</ele>
        <time>2019-08-31T07:57:15Z</time>
      </trkpt>
      <trkpt lat="59.171859" lon="18.161576">
        <ele>0</ele>
        <time>2019-08-31T07:57:16Z</time>
      </trkpt>
      <trkpt lat="59.171837" lon="18.161567">
        <ele>63</ele>
        <time>2019-08-31T07:57:17Z</time>
      </trkpt>
      <trkpt lat="59.171817" lon="18.161562">
        <ele>63</ele>
        <time>2019-08-31T07:57:19Z</time>
      </trkpt>
      <trkpt lat="59.171799" lon="18.161556">
        <ele>63</ele>
        <time>2019-08-31T07:57:20Z</time>
      </trkpt>
      <trkpt lat="59.17178" lon="18.16155">
        <ele>63</ele>
        <time>2019-08-31T07:57:21Z</time>
      </trkpt>
      <trkpt lat="59.17176" lon="18.161542">
        <ele>63</ele>
        <time>2019-08-31T07:57:22Z</time>
      </trkpt>
      <trkpt lat="59.171742" lon="18.161532">
        <ele>63</ele>
        <time>2019-08-31T07:57:23Z</time>
      </trkpt>
      <trkpt lat="59.171723" lon="18.161524">
        <ele>63</ele>
        <time>2019-08-31T07:57:24Z</time>
      </trkpt>
      <trkpt lat="59.1717" lon="18.161521">
        <ele>0</ele>
        <time>2019-08-31T07:57:24Z</time>
      </trkpt>
      <trkpt lat="59.171678" lon="18.16152">
        <ele>63</ele>
        <time>2019-08-31T07:57:25Z</time>
      </trkpt>
      <trkpt lat="59.171656" lon="18.161514">
        <ele>63</ele>
        <time>2019-08-31T07:57:27Z</time>
      </trkpt>
      <trkpt lat="59.171633" lon="18.161506">
        <ele>63</ele>
        <time>2019-08-31T07:57:28Z</time>
      </trkpt>
      <trkpt lat="59.171609" lon="18.161502">
        <ele>0</ele>
        <time>2019-08-31T07:57:28Z</time>
      </trkpt>
      <trkpt lat="59.171586" lon="18.161501">
        <ele>64</ele>
        <time>2019-08-31T07:57:29Z</time>
      </trkpt>
      <trkpt lat="59.17156" lon="18.161497">
        <ele>64</ele>
        <time>2019-08-31T07:57:31Z</time>
      </trkpt>
      <trkpt lat="59.171533" lon="18.161493">
        <ele>64</ele>
        <time>2019-08-31T07:57:32Z</time>
      </trkpt>
      <trkpt lat="59.171509" lon="18.161491">
        <ele>64</ele>
        <time>2019-08-31T07:57:33Z</time>
      </trkpt>
      <trkpt lat="59.171488" lon="18.161485">
        <ele>64</ele>
        <time>2019-08-31T07:57:34Z</time>
      </trkpt>
      <trkpt lat="59.171465" lon="18.161479">
        <ele>64</ele>
        <time>2019-08-31T07:57:35Z</time>
      </trkpt>
      <trkpt lat="59.171442" lon="18.161469">
        <ele>0</ele>
        <time>2019-08-31T07:57:35Z</time>
      </trkpt>
      <trkpt lat="59.171418" lon="18.161463">
        <ele>64</ele>
        <time>2019-08-31T07:57:36Z</time>
      </trkpt>
      <trkpt lat="59.171391" lon="18.161458">
        <ele>0</ele>
        <time>2019-08-31T07:57:37Z</time>
      </trkpt>
      <trkpt lat="59.171366" lon="18.161452">
        <ele>65</ele>
        <time>2019-08-31T07:57:38Z</time>
      </trkpt>
      <trkpt lat="59.171343" lon="18.161445">
        <ele>65</ele>
        <time>2019-08-31T07:57:40Z</time>
      </trkpt>
      <trkpt lat="59.17132" lon="18.161438">
        <ele>65</ele>
        <time>2019-08-31T07:57:41Z</time>
      </trkpt>
      <trkpt lat="59.171295" lon="18.161434">
        <ele>65</ele>
        <time>2019-08-31T07:57:42Z</time>
      </trkpt>
      <trkpt lat="59.171273" lon="18.161435">
        <ele>65</ele>
        <time>2019-08-31T07:57:43Z</time>
      </trkpt>
      <trkpt lat="59.171251" lon="18.161428">
        <ele>65</ele>
        <time>2019-08-31T07:57:44Z</time>
      </trkpt>
      <trkpt lat="59.171228" lon="18.16142">
        <ele>65</ele>
        <time>2019-08-31T07:57:45Z</time>
      </trkpt>
      <trkpt lat="59.171206" lon="18.161417">
        <ele>0</ele>
        <time>2019-08-31T07:57:45Z</time>
      </trkpt>
      <trkpt lat="59.171183" lon="18.161418">
        <ele>65</ele>
        <time>2019-08-31T07:57:46Z</time>
      </trkpt>
      <trkpt lat="59.171162" lon="18.161411">
        <ele>0</ele>
        <time>2019-08-31T07:57:47Z</time>
      </trkpt>
      <trkpt lat="59.171141" lon="18.161406">
        <ele>65</ele>
        <time>2019-08-31T07:57:48Z</time>
      </trkpt>
      <trkpt lat="59.171119" lon="18.161397">
        <ele>66</ele>
        <time>2019-08-31T07:57:50Z</time>
      </trkpt>
      <trkpt lat="59.171098" lon="18.161387">
        <ele>66</ele>
        <time>2019-08-31T07:57:51Z</time>
      </trkpt>
      <trkpt lat="59.171075" lon="18.161381">
        <ele>66</ele>
        <time>2019-08-31T07:57:52Z</time>
      </trkpt>
      <trkpt lat="59.171051" lon="18.161375">
        <ele>66</ele>
        <time>2019-08-31T07:57:53Z</time>
      </trkpt>
      <trkpt lat="59.171028" lon="18.161372">
        <ele>66</ele>
        <time>2019-08-31T07:57:54Z</time>
      </trkpt>
      <trkpt lat="59.171004" lon="18.161371">
        <ele>0</ele>
        <time>2019-08-31T07:57:54Z</time>
      </trkpt>
      <trkpt lat="59.170979" lon="18.161372">
        <ele>66</ele>
        <time>2019-08-31T07:57:55Z</time>
      </trkpt>
      <trkpt lat="59.170955" lon="18.161368">
        <ele>66</ele>
        <time>2019-08-31T07:57:57Z</time>
      </trkpt>
      <trkpt lat="59.170933" lon="18.161367">
        <ele>66</ele>
        <time>2019-08-31T07:57:58Z</time>
      </trkpt>
      <trkpt lat="59.170911" lon="18.161365">
        <ele>66</ele>
        <time>2019-08-31T07:57:59Z</time>
      </trkpt>
      <trkpt lat="59.170888" lon="18.161362">
        <ele>0</ele>
        <time>2019-08-31T07:57:59Z</time>
      </trkpt>
      <trkpt lat="59.170866" lon="18.16136">
        <ele>66</ele>
        <time>2019-08-31T07:58:00Z</time>
      </trkpt>
      <trkpt lat="59.170842" lon="18.161359">
        <ele>67</ele>
        <time>2019-08-31T07:58:02Z</time>
      </trkpt>
      <trkpt lat="59.170817" lon="18.161361">
        <ele>67</ele>
        <time>2019-08-31T07:58:03Z</time>
      </trkpt>
      <trkpt lat="59.170793" lon="18.161362">
        <ele>67</ele>
        <time>2019-08-31T07:58:04Z</time>
      </trkpt>
      <trkpt lat="59.170769" lon="18.16136">
        <ele>67</ele>
        <time>2019-08-31T07:58:05Z</time>
      </trkpt>
      <trkpt lat="59.170747" lon="18.161361">
        <ele>67</ele>
        <time>2019-08-31T07:58:06Z</time>
      </trkpt>
      <trkpt lat="59.170724" lon="18.161368">
        <ele>0</ele>
        <time>2019-08-31T07:58:06Z</time>
      </trkpt>
      <trkpt lat="59.170701" lon="18.16137">
        <ele>67</ele>
        <time>2019-08-31T07:58:07Z</time>
      </trkpt>
      <trkpt lat="59.170679" lon="18.161374">
        <ele>68</ele>
        <time>2019-08-31T07:58:09Z</time>
      </trkpt>
      <trkpt lat="59.170655" lon="18.161377">
        <ele>68</ele>
        <time>2019-08-31T07:58:10Z</time>
      </trkpt>
      <trkpt lat="59.170632" lon="18.161381">
        <ele>68</ele>
        <time>2019-08-31T07:58:11Z</time>
      </trkpt>
      <trkpt lat="59.170611" lon="18.161388">
        <ele>68</ele>
        <time>2019-08-31T07:58:12Z</time>
      </trkpt>
      <trkpt lat="59.170592" lon="18.161392">
        <ele>68</ele>
        <time>2019-08-31T07:58:13Z</time>
      </trkpt>
      <trkpt lat="59.170573" lon="18.161395">
        <ele>0</ele>
        <time>2019-08-31T07:58:13Z</time>
      </trkpt>
      <trkpt lat="59.170551" lon="18.161396">
        <ele>68</ele>
        <time>2019-08-31T07:58:14Z</time>
      </trkpt>
      <trkpt lat="59.170532" lon="18.161395">
        <ele>68</ele>
        <time>2019-08-31T07:58:16Z</time>
      </trkpt>
      <trkpt lat="59.170511" lon="18.161398">
        <ele>68</ele>
        <time>2019-08-31T07:58:17Z</time>
      </trkpt>
      <trkpt lat="59.170491" lon="18.161395">
        <ele>68</ele>
        <time>2019-08-31T07:58:18Z</time>
      </trkpt>
      <trkpt lat="59.170472" lon="18.161399">
        <ele>68</ele>
        <time>2019-08-31T07:58:19Z</time>
      </trkpt>
      <trkpt lat="59.170448" lon="18.161409">
        <ele>68</ele>
        <time>2019-08-31T07:58:20Z</time>
      </trkpt>
      <trkpt lat="59.170429" lon="18.161418">
        <ele>68</ele>
        <time>2019-08-31T07:58:21Z</time>
      </trkpt>
      <trkpt lat="59.170409" lon="18.161424">
        <ele>0</ele>
        <time>2019-08-31T07:58:21Z</time>
      </trkpt>
      <trkpt lat="59.170387" lon="18.161434">
        <ele>68</ele>
        <time>2019-08-31T07:58:22Z</time>
      </trkpt>
      <trkpt lat="59.170365" lon="18.161447">
        <ele>69</ele>
        <time>2019-08-31T07:58:24Z</time>
      </trkpt>
      <trkpt lat="59.170342" lon="18.161466">
        <ele>69</ele>
        <time>2019-08-31T07:58:25Z</time>
      </trkpt>
      <trkpt lat="59.17032" lon="18.161485">
        <ele>0</ele>
        <time>2019-08-31T07:58:25Z</time>
      </trkpt>
      <trkpt lat="59.170297" lon="18.161502">
        <ele>69</ele>
        <time>2019-08-31T07:58:26Z</time>
      </trkpt>
      <trkpt lat="59.170272" lon="18.161527">
        <ele>0</ele>
        <time>2019-08-31T07:58:27Z</time>
      </trkpt>
      <trkpt lat="59.170247" lon="18.161556">
        <ele>70</ele>
        <time>2019-08-31T07:58:28Z</time>
      </trkpt>
      <trkpt lat="59.170222" lon="18.161578">
        <ele>70</ele>
        <time>2019-08-31T07:58:30Z</time>
      </trkpt>
      <trkpt lat="59.170201" lon="18.161588">
        <ele>70</ele>
        <time>2019-08-31T07:58:31Z</time>
      </trkpt>
      <trkpt lat="59.170177" lon="18.161592">
        <ele>70</ele>
        <time>2019-08-31T07:58:32Z</time>
      </trkpt>
      <trkpt lat="59.170152" lon="18.1616">
        <ele>70</ele>
        <time>2019-08-31T07:58:33Z</time>
      </trkpt>
      <trkpt lat="59.17013" lon="18.161607">
        <ele>70</ele>
        <time>2019-08-31T07:58:34Z</time>
      </trkpt>
      <trkpt lat="59.170108" lon="18.161613">
        <ele>70</ele>
        <time>2019-08-31T07:58:35Z</time>
      </trkpt>
      <trkpt lat="59.170085" lon="18.161617">
        <ele>0</ele>
        <time>2019-08-31T07:58:35Z</time>
      </trkpt>
      <trkpt lat="59.170061" lon="18.161626">
        <ele>70</ele>
        <time>2019-08-31T07:58:36Z</time>
      </trkpt>
      <trkpt lat="59.170037" lon="18.161635">
        <ele>70</ele>
        <time>2019-08-31T07:58:38Z</time>
      </trkpt>
      <trkpt lat="59.170015" lon="18.161639">
        <ele>70</ele>
        <time>2019-08-31T07:58:39Z</time>
      </trkpt>
      <trkpt lat="59.169991" lon="18.161643">
        <ele>70</ele>
        <time>2019-08-31T07:58:40Z</time>
      </trkpt>
      <trkpt lat="59.169967" lon="18.161648">
        <ele>70</ele>
        <time>2019-08-31T07:58:41Z</time>
      </trkpt>
      <trkpt lat="59.169943" lon="18.161647">
        <ele>70</ele>
        <time>2019-08-31T07:58:42Z</time>
      </trkpt>
      <trkpt lat="59.169918" lon="18.161645">
        <ele>0</ele>
        <time>2019-08-31T07:58:42Z</time>
      </trkpt>
      <trkpt lat="59.169895" lon="18.161644">
        <ele>70</ele>
        <time>2019-08-31T07:58:43Z</time>
      </trkpt>
      <trkpt lat="59.169868" lon="18.161647">
        <ele>0</ele>
        <time>2019-08-31T07:58:44Z</time>
      </trkpt>
      <trkpt lat="59.169844" lon="18.16165">
        <ele>70</ele>
        <time>2019-08-31T07:58:45Z</time>
      </trkpt>
      <trkpt lat="59.16982" lon="18.16166">
        <ele>70</ele>
        <time>2019-08-31T07:58:47Z</time>
      </trkpt>
      <trkpt lat="59.169797" lon="18.161672">
        <ele>70</ele>
        <time>2019-08-31T07:58:48Z</time>
      </trkpt>
      <trkpt lat="59.169774" lon="18.161685">
        <ele>70</ele>
        <time>2019-08-31T07:58:49Z</time>
      </trkpt>
      <trkpt lat="59.16975" lon="18.161698">
        <ele>70</ele>
        <time>2019-08-31T07:58:50Z</time>
      </trkpt>
      <trkpt lat="59.169728" lon="18.16171">
        <ele>70</ele>
        <time>2019-08-31T07:58:51Z</time>
      </trkpt>
      <trkpt lat="59.169705" lon="18.161724">
        <ele>0</ele>
        <time>2019-08-31T07:58:51Z</time>
      </trkpt>
      <trkpt lat="59.169681" lon="18.161737">
        <ele>70</ele>
        <time>2019-08-31T07:58:52Z</time>
      </trkpt>
      <trkpt lat="59.169659" lon="18.161748">
        <ele>70</ele>
        <time>2019-08-31T07:58:54Z</time>
      </trkpt>
      <trkpt lat="59.169633" lon="18.16176">
        <ele>0</ele>
        <time>2019-08-31T07:58:54Z</time>
      </trkpt>
      <trkpt lat="59.169609" lon="18.161771">
        <ele>71</ele>
        <time>2019-08-31T07:58:55Z</time>
      </trkpt>
      <trkpt lat="59.169586" lon="18.161789">
        <ele>71</ele>
        <time>2019-08-31T07:58:57Z</time>
      </trkpt>
      <trkpt lat="59.169563" lon="18.16181">
        <ele>71</ele>
        <time>2019-08-31T07:58:58Z</time>
      </trkpt>
      <trkpt lat="59.169541" lon="18.161829">
        <ele>71</ele>
        <time>2019-08-31T07:58:59Z</time>
      </trkpt>
      <trkpt lat="59.169516" lon="18.161848">
        <ele>71</ele>
        <time>2019-08-31T07:59:00Z</time>
      </trkpt>
      <trkpt lat="59.169493" lon="18.161866">
        <ele>71</ele>
        <time>2019-08-31T07:59:01Z</time>
      </trkpt>
      <trkpt lat="59.169467" lon="18.161877">
        <ele>71</ele>
        <time>2019-08-31T07:59:02Z</time>
      </trkpt>
      <trkpt lat="59.169445" lon="18.161888">
        <ele>70</ele>
        <time>2019-08-31T07:59:02Z</time>
      </trkpt>
      <trkpt lat="59.169422" lon="18.161898">
        <ele>71</ele>
        <time>2019-08-31T07:59:03Z</time>
      </trkpt>
      <trkpt lat="59.169398" lon="18.161911">
        <ele>71</ele>
        <time>2019-08-31T07:59:04Z</time>
      </trkpt>
      <trkpt lat="59.169377" lon="18.161925">
        <ele>0</ele>
        <time>2019-08-31T07:59:05Z</time>
      </trkpt>
      <trkpt lat="59.169353" lon="18.161936">
        <ele>71</ele>
        <time>2019-08-31T07:59:06Z</time>
      </trkpt>
      <trkpt lat="59.169329" lon="18.161947">
        <ele>71</ele>
        <time>2019-08-31T07:59:07Z</time>
      </trkpt>
      <trkpt lat="59.169308" lon="18.161958">
        <ele>71</ele>
        <time>2019-08-31T07:59:09Z</time>
      </trkpt>
      <trkpt lat="59.169286" lon="18.161974">
        <ele>71</ele>
        <time>2019-08-31T07:59:10Z</time>
      </trkpt>
      <trkpt lat="59.169265" lon="18.161997">
        <ele>71</ele>
        <time>2019-08-31T07:59:11Z</time>
      </trkpt>
      <trkpt lat="59.169241" lon="18.162017">
        <ele>71</ele>
        <time>2019-08-31T07:59:12Z</time>
      </trkpt>
      <trkpt lat="59.169217" lon="18.162034">
        <ele>71</ele>
        <time>2019-08-31T07:59:13Z</time>
      </trkpt>
      <trkpt lat="59.169195" lon="18.162042">
        <ele>0</ele>
        <time>2019-08-31T07:59:13Z</time>
      </trkpt>
      <trkpt lat="59.169172" lon="18.162046">
        <ele>71</ele>
        <time>2019-08-31T07:59:14Z</time>
      </trkpt>
      <trkpt lat="59.16915" lon="18.162051">
        <ele>71</ele>
        <time>2019-08-31T07:59:16Z</time>
      </trkpt>
      <trkpt lat="59.169129" lon="18.16206">
        <ele>0</ele>
        <time>2019-08-31T07:59:16Z</time>
      </trkpt>
      <trkpt lat="59.169109" lon="18.162074">
        <ele>71</ele>
        <time>2019-08-31T07:59:17Z</time>
      </trkpt>
      <trkpt lat="59.169086" lon="18.162085">
        <ele>71</ele>
        <time>2019-08-31T07:59:19Z</time>
      </trkpt>
      <trkpt lat="59.169064" lon="18.16209">
        <ele>71</ele>
        <time>2019-08-31T07:59:20Z</time>
      </trkpt>
      <trkpt lat="59.169042" lon="18.162104">
        <ele>71</ele>
        <time>2019-08-31T07:59:21Z</time>
      </trkpt>
      <trkpt lat="59.169021" lon="18.162113">
        <ele>71</ele>
        <time>2019-08-31T07:59:22Z</time>
      </trkpt>
      <trkpt lat="59.169002" lon="18.162125">
        <ele>0</ele>
        <time>2019-08-31T07:59:22Z</time>
      </trkpt>
      <trkpt lat="59.16898" lon="18.162134">
        <ele>71</ele>
        <time>2019-08-31T07:59:23Z</time>
      </trkpt>
      <trkpt lat="59.168957" lon="18.162146">
        <ele>0</ele>
        <time>2019-08-31T07:59:24Z</time>
      </trkpt>
      <trkpt lat="59.168935" lon="18.162161">
        <ele>71</ele>
        <time>2019-08-31T07:59:25Z</time>
      </trkpt>
      <trkpt lat="59.168909" lon="18.162182">
        <ele>71</ele>
        <time>2019-08-31T07:59:27Z</time>
      </trkpt>
      <trkpt lat="59.168883" lon="18.1622">
        <ele>71</ele>
        <time>2019-08-31T07:59:28Z</time>
      </trkpt>
      <trkpt lat="59.168858" lon="18.162216">
        <ele>71</ele>
        <time>2019-08-31T07:59:29Z</time>
      </trkpt>
      <trkpt lat="59.168832" lon="18.162232">
        <ele>71</ele>
        <time>2019-08-31T07:59:30Z</time>
      </trkpt>
      <trkpt lat="59.168807" lon="18.162252">
        <ele>71</ele>
        <time>2019-08-31T07:59:31Z</time>
      </trkpt>
      <trkpt lat="59.168782" lon="18.16227">
        <ele>71</ele>
        <time>2019-08-31T07:59:32Z</time>
      </trkpt>
      <trkpt lat="59.168757" lon="18.162286">
        <ele>0</ele>
        <time>2019-08-31T07:59:32Z</time>
      </trkpt>
      <trkpt lat="59.168733" lon="18.162304">
        <ele>71</ele>
        <time>2019-08-31T07:59:33Z</time>
      </trkpt>
      <trkpt lat="59.168711" lon="18.162322">
        <ele>71</ele>
        <time>2019-08-31T07:59:35Z</time>
      </trkpt>
      <trkpt lat="59.168689" lon="18.162341">
        <ele>0</ele>
        <time>2019-08-31T07:59:35Z</time>
      </trkpt>
      <trkpt lat="59.168664" lon="18.162355">
        <ele>71</ele>
        <time>2019-08-31T07:59:36Z</time>
      </trkpt>
      <trkpt lat="59.168637" lon="18.162366">
        <ele>72</ele>
        <time>2019-08-31T07:59:38Z</time>
      </trkpt>
      <trkpt lat="59.168613" lon="18.16238">
        <ele>72</ele>
        <time>2019-08-31T07:59:39Z</time>
      </trkpt>
      <trkpt lat="59.16859" lon="18.162391">
        <ele>72</ele>
        <time>2019-08-31T07:59:40Z</time>
      </trkpt>
      <trkpt lat="59.16857" lon="18.162398">
        <ele>72</ele>
        <time>2019-08-31T07:59:41Z</time>
      </trkpt>
      <trkpt lat="59.168549" lon="18.162407">
        <ele>0</ele>
        <time>2019-08-31T07:59:41Z</time>
      </trkpt>
      <trkpt lat="59.168527" lon="18.162416">
        <ele>72</ele>
        <time>2019-08-31T07:59:42Z</time>
      </trkpt>
      <trkpt lat="59.168505" lon="18.162422">
        <ele>0</ele>
        <time>2019-08-31T07:59:43Z</time>
      </trkpt>
      <trkpt lat="59.168482" lon="18.162429">
        <ele>72</ele>
        <time>2019-08-31T07:59:44Z</time>
      </trkpt>
      <trkpt lat="59.168451" lon="18.162442">
        <ele>71</ele>
        <time>2019-08-31T07:59:46Z</time>
      </trkpt>
      <trkpt lat="59.168422" lon="18.162459">
        <ele>0</ele>
        <time>2019-08-31T07:59:46Z</time>
      </trkpt>
      <trkpt lat="59.168394" lon="18.162473">
        <ele>71</ele>
        <time>2019-08-31T07:59:47Z</time>
      </trkpt>
      <trkpt lat="59.168367" lon="18.162483">
        <ele>71</ele>
        <time>2019-08-31T07:59:49Z</time>
      </trkpt>
      <trkpt lat="59.168341" lon="18.162498">
        <ele>71</ele>
        <time>2019-08-31T07:59:50Z</time>
      </trkpt>
      <trkpt lat="59.168314" lon="18.162511">
        <ele>71</ele>
        <time>2019-08-31T07:59:51Z</time>
      </trkpt>
      <trkpt lat="59.168293" lon="18.162526">
        <ele>71</ele>
        <time>2019-08-31T07:59:52Z</time>
      </trkpt>
      <trkpt lat="59.168274" lon="18.162547">
        <ele>71</ele>
        <time>2019-08-31T07:59:53Z</time>
      </trkpt>
      <trkpt lat="59.168253" lon="18.162558">
        <ele>71</ele>
        <time>2019-08-31T07:59:54Z</time>
      </trkpt>
      <trkpt lat="59.168228" lon="18.16257">
        <ele>70</ele>
        <time>2019-08-31T07:59:55Z</time>
      </trkpt>
      <trkpt lat="59.168204" lon="18.162575">
        <ele>70</ele>
        <time>2019-08-31T07:59:56Z</time>
      </trkpt>
      <trkpt lat="59.168182" lon="18.162581">
        <ele>0</ele>
        <time>2019-08-31T07:59:56Z</time>
      </trkpt>
      <trkpt lat="59.168159" lon="18.162594">
        <ele>71</ele>
        <time>2019-08-31T07:59:57Z</time>
      </trkpt>
      <trkpt lat="59.168135" lon="18.162614">
        <ele>70</ele>
        <time>2019-08-31T07:59:59Z</time>
      </trkpt>
      <trkpt lat="59.168111" lon="18.162634">
        <ele>70</ele>
        <time>2019-08-31T08:00:00Z</time>
      </trkpt>
      <trkpt lat="59.168087" lon="18.162645">
        <ele>0</ele>
        <time>2019-08-31T08:00:00Z</time>
      </trkpt>
      <trkpt lat="59.168066" lon="18.162651">
        <ele>70</ele>
        <time>2019-08-31T08:00:02Z</time>
      </trkpt>
      <trkpt lat="59.168047" lon="18.16266">
        <ele>70</ele>
        <time>2019-08-31T08:00:02Z</time>
      </trkpt>
      <trkpt lat="59.168022" lon="18.162674">
        <ele>70</ele>
        <time>2019-08-31T08:00:04Z</time>
      </trkpt>
      <trkpt lat="59.167999" lon="18.162689">
        <ele>0</ele>
        <time>2019-08-31T08:00:04Z</time>
      </trkpt>
      <trkpt lat="59.167974" lon="18.162704">
        <ele>70</ele>
        <time>2019-08-31T08:00:05Z</time>
      </trkpt>
      <trkpt lat="59.167949" lon="18.162715">
        <ele>70</ele>
        <time>2019-08-31T08:00:07Z</time>
      </trkpt>
      <trkpt lat="59.167929" lon="18.162727">
        <ele>70</ele>
        <time>2019-08-31T08:00:08Z</time>
      </trkpt>
      <trkpt lat="59.167908" lon="18.162742">
        <ele>69</ele>
        <time>2019-08-31T08:00:09Z</time>
      </trkpt>
      <trkpt lat="59.167882" lon="18.162756">
        <ele>0</ele>
        <time>2019-08-31T08:00:09Z</time>
      </trkpt>
      <trkpt lat="59.167858" lon="18.162774">
        <ele>69</ele>
        <time>2019-08-31T08:00:10Z</time>
      </trkpt>
      <trkpt lat="59.167829" lon="18.1628">
        <ele>69</ele>
        <time>2019-08-31T08:00:12Z</time>
      </trkpt>
      <trkpt lat="59.1678" lon="18.162821">
        <ele>0</ele>
        <time>2019-08-31T08:00:12Z</time>
      </trkpt>
      <trkpt lat="59.16777" lon="18.162835">
        <ele>69</ele>
        <time>2019-08-31T08:00:13Z</time>
      </trkpt>
      <trkpt lat="59.16774" lon="18.162852">
        <ele>69</ele>
        <time>2019-08-31T08:00:15Z</time>
      </trkpt>
      <trkpt lat="59.167712" lon="18.162866">
        <ele>69</ele>
        <time>2019-08-31T08:00:16Z</time>
      </trkpt>
      <trkpt lat="59.167684" lon="18.162873">
        <ele>69</ele>
        <time>2019-08-31T08:00:17Z</time>
      </trkpt>
      <trkpt lat="59.167658" lon="18.162884">
        <ele>68</ele>
        <time>2019-08-31T08:00:18Z</time>
      </trkpt>
      <trkpt lat="59.167633" lon="18.162903">
        <ele>68</ele>
        <time>2019-08-31T08:00:19Z</time>
      </trkpt>
      <trkpt lat="59.167609" lon="18.162913">
        <ele>0</ele>
        <time>2019-08-31T08:00:19Z</time>
      </trkpt>
      <trkpt lat="59.167584" lon="18.162925">
        <ele>68</ele>
        <time>2019-08-31T08:00:20Z</time>
      </trkpt>
      <trkpt lat="59.167558" lon="18.162934">
        <ele>68</ele>
        <time>2019-08-31T08:00:22Z</time>
      </trkpt>
      <trkpt lat="59.167528" lon="18.162941">
        <ele>0</ele>
        <time>2019-08-31T08:00:22Z</time>
      </trkpt>
      <trkpt lat="59.167498" lon="18.162934">
        <ele>68</ele>
        <time>2019-08-31T08:00:23Z</time>
      </trkpt>
      <trkpt lat="59.167471" lon="18.162916">
        <ele>68</ele>
        <time>2019-08-31T08:00:25Z</time>
      </trkpt>
      <trkpt lat="59.167441" lon="18.162892">
        <ele>68</ele>
        <time>2019-08-31T08:00:26Z</time>
      </trkpt>
      <trkpt lat="59.167411" lon="18.162863">
        <ele>68</ele>
        <time>2019-08-31T08:00:27Z</time>
      </trkpt>
      <trkpt lat="59.167382" lon="18.162837">
        <ele>0</ele>
        <time>2019-08-31T08:00:27Z</time>
      </trkpt>
      <trkpt lat="59.167356" lon="18.162818">
        <ele>68</ele>
        <time>2019-08-31T08:00:28Z</time>
      </trkpt>
      <trkpt lat="59.16733" lon="18.162798">
        <ele>68</ele>
        <time>2019-08-31T08:00:30Z</time>
      </trkpt>
      <trkpt lat="59.167301" lon="18.16278">
        <ele>0</ele>
        <time>2019-08-31T08:00:30Z</time>
      </trkpt>
      <trkpt lat="59.167274" lon="18.162766">
        <ele>68</ele>
        <time>2019-08-31T08:00:31Z</time>
      </trkpt>
      <trkpt lat="59.167247" lon="18.162754">
        <ele>68</ele>
        <time>2019-08-31T08:00:33Z</time>
      </trkpt>
      <trkpt lat="59.16722" lon="18.162741">
        <ele>68</ele>
        <time>2019-08-31T08:00:34Z</time>
      </trkpt>
      <trkpt lat="59.167193" lon="18.162723">
        <ele>68</ele>
        <time>2019-08-31T08:00:35Z</time>
      </trkpt>
      <trkpt lat="59.167167" lon="18.162703">
        <ele>68</ele>
        <time>2019-08-31T08:00:36Z</time>
      </trkpt>
      <trkpt lat="59.167142" lon="18.162681">
        <ele>68</ele>
        <time>2019-08-31T08:00:37Z</time>
      </trkpt>
      <trkpt lat="59.167118" lon="18.16265">
        <ele>67</ele>
        <time>2019-08-31T08:00:38Z</time>
      </trkpt>
      <trkpt lat="59.167095" lon="18.162627">
        <ele>0</ele>
        <time>2019-08-31T08:00:38Z</time>
      </trkpt>
      <trkpt lat="59.167069" lon="18.162613">
        <ele>67</ele>
        <time>2019-08-31T08:00:39Z</time>
      </trkpt>
      <trkpt lat="59.167044" lon="18.162608">
        <ele>67</ele>
        <time>2019-08-31T08:00:40Z</time>
      </trkpt>
      <trkpt lat="59.167017" lon="18.162602">
        <ele>67</ele>
        <time>2019-08-31T08:00:42Z</time>
      </trkpt>
      <trkpt lat="59.166988" lon="18.162602">
        <ele>67</ele>
        <time>2019-08-31T08:00:43Z</time>
      </trkpt>
      <trkpt lat="59.166957" lon="18.162604">
        <ele>67</ele>
        <time>2019-08-31T08:00:44Z</time>
      </trkpt>
      <trkpt lat="59.166925" lon="18.162604">
        <ele>67</ele>
        <time>2019-08-31T08:00:45Z</time>
      </trkpt>
      <trkpt lat="59.166893" lon="18.162606">
        <ele>67</ele>
        <time>2019-08-31T08:00:46Z</time>
      </trkpt>
      <trkpt lat="59.166865" lon="18.162608">
        <ele>67</ele>
        <time>2019-08-31T08:00:47Z</time>
      </trkpt>
      <trkpt lat="59.166838" lon="18.162609">
        <ele>0</ele>
        <time>2019-08-31T08:00:47Z</time>
      </trkpt>
      <trkpt lat="59.166812" lon="18.16261">
        <ele>67</ele>
        <time>2019-08-31T08:00:48Z</time>
      </trkpt>
      <trkpt lat="59.166783" lon="18.162614">
        <ele>66</ele>
        <time>2019-08-31T08:00:50Z</time>
      </trkpt>
      <trkpt lat="59.166755" lon="18.162614">
        <ele>0</ele>
        <time>2019-08-31T08:00:50Z</time>
      </trkpt>
      <trkpt lat="59.166728" lon="18.162616">
        <ele>66</ele>
        <time>2019-08-31T08:00:51Z</time>
      </trkpt>
      <trkpt lat="59.166701" lon="18.162617">
        <ele>66</ele>
        <time>2019-08-31T08:00:53Z</time>
      </trkpt>
      <trkpt lat="59.166674" lon="18.162617">
        <ele>66</ele>
        <time>2019-08-31T08:00:54Z</time>
      </trkpt>
      <trkpt lat="59.166647" lon="18.162617">
        <ele>66</ele>
        <time>2019-08-31T08:00:55Z</time>
      </trkpt>
      <trkpt lat="59.16662" lon="18.162609">
        <ele>66</ele>
        <time>2019-08-31T08:00:56Z</time>
      </trkpt>
      <trkpt lat="59.166593" lon="18.162596">
        <ele>66</ele>
        <time>2019-08-31T08:00:57Z</time>
      </trkpt>
      <trkpt lat="59.166568" lon="18.162583">
        <ele>0</ele>
        <time>2019-08-31T08:00:57Z</time>
      </trkpt>
      <trkpt lat="59.166542" lon="18.162569">
        <ele>66</ele>
        <time>2019-08-31T08:00:59Z</time>
      </trkpt>
      <trkpt lat="59.166519" lon="18.162549">
        <ele>0</ele>
        <time>2019-08-31T08:00:59Z</time>
      </trkpt>
      <trkpt lat="59.166495" lon="18.162525">
        <ele>66</ele>
        <time>2019-08-31T08:01:00Z</time>
      </trkpt>
      <trkpt lat="59.166474" lon="18.162492">
        <ele>66</ele>
        <time>2019-08-31T08:01:01Z</time>
      </trkpt>
      <trkpt lat="59.166453" lon="18.16246">
        <ele>66</ele>
        <time>2019-08-31T08:01:02Z</time>
      </trkpt>
      <trkpt lat="59.166433" lon="18.162423">
        <ele>65</ele>
        <time>2019-08-31T08:01:04Z</time>
      </trkpt>
      <trkpt lat="59.166415" lon="18.162384">
        <ele>65</ele>
        <time>2019-08-31T08:01:05Z</time>
      </trkpt>
      <trkpt lat="59.166397" lon="18.162348">
        <ele>65</ele>
        <time>2019-08-31T08:01:06Z</time>
      </trkpt>
      <trkpt lat="59.16638" lon="18.162309">
        <ele>65</ele>
        <time>2019-08-31T08:01:07Z</time>
      </trkpt>
      <trkpt lat="59.166362" lon="18.162274">
        <ele>65</ele>
        <time>2019-08-31T08:01:08Z</time>
      </trkpt>
      <trkpt lat="59.166344" lon="18.162239">
        <ele>65</ele>
        <time>2019-08-31T08:01:09Z</time>
      </trkpt>
      <trkpt lat="59.166326" lon="18.162202">
        <ele>0</ele>
        <time>2019-08-31T08:01:09Z</time>
      </trkpt>
      <trkpt lat="59.16631" lon="18.162166">
        <ele>65</ele>
        <time>2019-08-31T08:01:10Z</time>
      </trkpt>
      <trkpt lat="59.16629" lon="18.162136">
        <ele>65</ele>
        <time>2019-08-31T08:01:12Z</time>
      </trkpt>
      <trkpt lat="59.16627" lon="18.162109">
        <ele>0</ele>
        <time>2019-08-31T08:01:12Z</time>
      </trkpt>
      <trkpt lat="59.16625" lon="18.162084">
        <ele>65</ele>
        <time>2019-08-31T08:01:13Z</time>
      </trkpt>
      <trkpt lat="59.166227" lon="18.162067">
        <ele>64</ele>
        <time>2019-08-31T08:01:15Z</time>
      </trkpt>
      <trkpt lat="59.166202" lon="18.162058">
        <ele>65</ele>
        <time>2019-08-31T08:01:16Z</time>
      </trkpt>
      <trkpt lat="59.166174" lon="18.162055">
        <ele>0</ele>
        <time>2019-08-31T08:01:16Z</time>
      </trkpt>
      <trkpt lat="59.166145" lon="18.162056">
        <ele>65</ele>
        <time>2019-08-31T08:01:18Z</time>
      </trkpt>
      <trkpt lat="59.166117" lon="18.162062">
        <ele>0</ele>
        <time>2019-08-31T08:01:18Z</time>
      </trkpt>
      <trkpt lat="59.166089" lon="18.162067">
        <ele>65</ele>
        <time>2019-08-31T08:01:19Z</time>
      </trkpt>
      <trkpt lat="59.166065" lon="18.162068">
        <ele>65</ele>
        <time>2019-08-31T08:01:21Z</time>
      </trkpt>
      <trkpt lat="59.166038" lon="18.162073">
        <ele>65</ele>
        <time>2019-08-31T08:01:22Z</time>
      </trkpt>
      <trkpt lat="59.166012" lon="18.162076">
        <ele>65</ele>
        <time>2019-08-31T08:01:23Z</time>
      </trkpt>
      <trkpt lat="59.165985" lon="18.162072">
        <ele>65</ele>
        <time>2019-08-31T08:01:24Z</time>
      </trkpt>
      <trkpt lat="59.16596" lon="18.16207">
        <ele>65</ele>
        <time>2019-08-31T08:01:25Z</time>
      </trkpt>
      <trkpt lat="59.165937" lon="18.162064">
        <ele>65</ele>
        <time>2019-08-31T08:01:26Z</time>
      </trkpt>
      <trkpt lat="59.165911" lon="18.16206">
        <ele>0</ele>
        <time>2019-08-31T08:01:26Z</time>
      </trkpt>
      <trkpt lat="59.165887" lon="18.162058">
        <ele>65</ele>
        <time>2019-08-31T08:01:27Z</time>
      </trkpt>
      <trkpt lat="59.165861" lon="18.162054">
        <ele>65</ele>
        <time>2019-08-31T08:01:29Z</time>
      </trkpt>
      <trkpt lat="59.165834" lon="18.162048">
        <ele>0</ele>
        <time>2019-08-31T08:01:29Z</time>
      </trkpt>
      <trkpt lat="59.16581" lon="18.162041">
        <ele>65</ele>
        <time>2019-08-31T08:01:30Z</time>
      </trkpt>
      <trkpt lat="59.165786" lon="18.162035">
        <ele>65</ele>
        <time>2019-08-31T08:01:32Z</time>
      </trkpt>
      <trkpt lat="59.165761" lon="18.162032">
        <ele>65</ele>
        <time>2019-08-31T08:01:33Z</time>
      </trkpt>
      <trkpt lat="59.165738" lon="18.162029">
        <ele>65</ele>
        <time>2019-08-31T08:01:34Z</time>
      </trkpt>
      <trkpt lat="59.165713" lon="18.162029">
        <ele>65</ele>
        <time>2019-08-31T08:01:35Z</time>
      </trkpt>
      <trkpt lat="59.165688" lon="18.162027">
        <ele>0</ele>
        <time>2019-08-31T08:01:35Z</time>
      </trkpt>
      <trkpt lat="59.165662" lon="18.162023">
        <ele>65</ele>
        <time>2019-08-31T08:01:36Z</time>
      </trkpt>
      <trkpt lat="59.165638" lon="18.162015">
        <ele>65</ele>
        <time>2019-08-31T08:01:37Z</time>
      </trkpt>
      <trkpt lat="59.165612" lon="18.162011">
        <ele>65</ele>
        <time>2019-08-31T08:01:39Z</time>
      </trkpt>
      <trkpt lat="59.165588" lon="18.162011">
        <ele>65</ele>
        <time>2019-08-31T08:01:40Z</time>
      </trkpt>
      <trkpt lat="59.165559" lon="18.162011">
        <ele>65</ele>
        <time>2019-08-31T08:01:41Z</time>
      </trkpt>
      <trkpt lat="59.16553" lon="18.162008">
        <ele>0</ele>
        <time>2019-08-31T08:01:41Z</time>
      </trkpt>
      <trkpt lat="59.165504" lon="18.162004">
        <ele>65</ele>
        <time>2019-08-31T08:01:42Z</time>
      </trkpt>
      <trkpt lat="59.165478" lon="18.162002">
        <ele>65</ele>
        <time>2019-08-31T08:01:44Z</time>
      </trkpt>
      <trkpt lat="59.165454" lon="18.162">
        <ele>0</ele>
        <time>2019-08-31T08:01:44Z</time>
      </trkpt>
      <trkpt lat="59.16543" lon="18.162">
        <ele>65</ele>
        <time>2019-08-31T08:01:45Z</time>
      </trkpt>
      <trkpt lat="59.165406" lon="18.161997">
        <ele>65</ele>
        <time>2019-08-31T08:01:47Z</time>
      </trkpt>
      <trkpt lat="59.165382" lon="18.161994">
        <ele>65</ele>
        <time>2019-08-31T08:01:48Z</time>
      </trkpt>
      <trkpt lat="59.165357" lon="18.161987">
        <ele>65</ele>
        <time>2019-08-31T08:01:49Z</time>
      </trkpt>
      <trkpt lat="59.165331" lon="18.161985">
        <ele>65</ele>
        <time>2019-08-31T08:01:50Z</time>
      </trkpt>
      <trkpt lat="59.165305" lon="18.161982">
        <ele>65</ele>
        <time>2019-08-31T08:01:51Z</time>
      </trkpt>
      <trkpt lat="59.165281" lon="18.161979">
        <ele>65</ele>
        <time>2019-08-31T08:01:52Z</time>
      </trkpt>
      <trkpt lat="59.165258" lon="18.161974">
        <ele>0</ele>
        <time>2019-08-31T08:01:52Z</time>
      </trkpt>
      <trkpt lat="59.165236" lon="18.161966">
        <ele>65</ele>
        <time>2019-08-31T08:01:53Z</time>
      </trkpt>
      <trkpt lat="59.165213" lon="18.161958">
        <ele>0</ele>
        <time>2019-08-31T08:01:54Z</time>
      </trkpt>
      <trkpt lat="59.16519" lon="18.161947">
        <ele>65</ele>
        <time>2019-08-31T08:01:55Z</time>
      </trkpt>
      <trkpt lat="59.165166" lon="18.161937">
        <ele>0</ele>
        <time>2019-08-31T08:01:56Z</time>
      </trkpt>
      <trkpt lat="59.165139" lon="18.161934">
        <ele>65</ele>
        <time>2019-08-31T08:01:57Z</time>
      </trkpt>
      <trkpt lat="59.165114" lon="18.161934">
        <ele>65</ele>
        <time>2019-08-31T08:01:59Z</time>
      </trkpt>
      <trkpt lat="59.165089" lon="18.161932">
        <ele>65</ele>
        <time>2019-08-31T08:02:00Z</time>
      </trkpt>
      <trkpt lat="59.165062" lon="18.161932">
        <ele>65</ele>
        <time>2019-08-31T08:02:01Z</time>
      </trkpt>
      <trkpt lat="59.165036" lon="18.161933">
        <ele>65</ele>
        <time>2019-08-31T08:02:02Z</time>
      </trkpt>
      <trkpt lat="59.16501" lon="18.161929">
        <ele>65</ele>
        <time>2019-08-31T08:02:03Z</time>
      </trkpt>
      <trkpt lat="59.164982" lon="18.16193">
        <ele>65</ele>
        <time>2019-08-31T08:02:04Z</time>
      </trkpt>
      <trkpt lat="59.164955" lon="18.161926">
        <ele>65</ele>
        <time>2019-08-31T08:02:05Z</time>
      </trkpt>
      <trkpt lat="59.164931" lon="18.16192">
        <ele>65</ele>
        <time>2019-08-31T08:02:06Z</time>
      </trkpt>
      <trkpt lat="59.164907" lon="18.161919">
        <ele>65</ele>
        <time>2019-08-31T08:02:07Z</time>
      </trkpt>
      <trkpt lat="59.164881" lon="18.161915">
        <ele>0</ele>
        <time>2019-08-31T08:02:07Z</time>
      </trkpt>
      <trkpt lat="59.164853" lon="18.161914">
        <ele>65</ele>
        <time>2019-08-31T08:02:08Z</time>
      </trkpt>
      <trkpt lat="59.164826" lon="18.161912">
        <ele>65</ele>
        <time>2019-08-31T08:02:10Z</time>
      </trkpt>
      <trkpt lat="59.164801" lon="18.16191">
        <ele>65</ele>
        <time>2019-08-31T08:02:11Z</time>
      </trkpt>
      <trkpt lat="59.164778" lon="18.161906">
        <ele>65</ele>
        <time>2019-08-31T08:02:12Z</time>
      </trkpt>
      <trkpt lat="59.164754" lon="18.161902">
        <ele>65</ele>
        <time>2019-08-31T08:02:13Z</time>
      </trkpt>
      <trkpt lat="59.164729" lon="18.161903">
        <ele>0</ele>
        <time>2019-08-31T08:02:13Z</time>
      </trkpt>
      <trkpt lat="59.164702" lon="18.161899">
        <ele>65</ele>
        <time>2019-08-31T08:02:14Z</time>
      </trkpt>
      <trkpt lat="59.164674" lon="18.161898">
        <ele>0</ele>
        <time>2019-08-31T08:02:15Z</time>
      </trkpt>
      <trkpt lat="59.164647" lon="18.161903">
        <ele>65</ele>
        <time>2019-08-31T08:02:16Z</time>
      </trkpt>
      <trkpt lat="59.164622" lon="18.161906">
        <ele>65</ele>
        <time>2019-08-31T08:02:18Z</time>
      </trkpt>
      <trkpt lat="59.164598" lon="18.161904">
        <ele>0</ele>
        <time>2019-08-31T08:02:18Z</time>
      </trkpt>
      <trkpt lat="59.164574" lon="18.161903">
        <ele>65</ele>
        <time>2019-08-31T08:02:19Z</time>
      </trkpt>
      <trkpt lat="59.16455" lon="18.161906">
        <ele>65</ele>
        <time>2019-08-31T08:02:21Z</time>
      </trkpt>
      <trkpt lat="59.164528" lon="18.161903">
        <ele>0</ele>
        <time>2019-08-31T08:02:21Z</time>
      </trkpt>
      <trkpt lat="59.164507" lon="18.161898">
        <ele>65</ele>
        <time>2019-08-31T08:02:22Z</time>
      </trkpt>
      <trkpt lat="59.164483" lon="18.161892">
        <ele>65</ele>
        <time>2019-08-31T08:02:24Z</time>
      </trkpt>
      <trkpt lat="59.16446" lon="18.161886">
        <ele>65</ele>
        <time>2019-08-31T08:02:25Z</time>
      </trkpt>
      <trkpt lat="59.164437" lon="18.161879">
        <ele>65</ele>
        <time>2019-08-31T08:02:26Z</time>
      </trkpt>
      <trkpt lat="59.164413" lon="18.161869">
        <ele>65</ele>
        <time>2019-08-31T08:02:27Z</time>
      </trkpt>
      <trkpt lat="59.164389" lon="18.161862">
        <ele>65</ele>
        <time>2019-08-31T08:02:28Z</time>
      </trkpt>
      <trkpt lat="59.164364" lon="18.161858">
        <ele>65</ele>
        <time>2019-08-31T08:02:29Z</time>
      </trkpt>
      <trkpt lat="59.164338" lon="18.16185">
        <ele>0</ele>
        <time>2019-08-31T08:02:29Z</time>
      </trkpt>
      <trkpt lat="59.164315" lon="18.161844">
        <ele>65</ele>
        <time>2019-08-31T08:02:30Z</time>
      </trkpt>
      <trkpt lat="59.16429" lon="18.161842">
        <ele>65</ele>
        <time>2019-08-31T08:02:32Z</time>
      </trkpt>
      <trkpt lat="59.164265" lon="18.161839">
        <ele>0</ele>
        <time>2019-08-31T08:02:32Z</time>
      </trkpt>
      <trkpt lat="59.164241" lon="18.161833">
        <ele>65</ele>
        <time>2019-08-31T08:02:33Z</time>
      </trkpt>
      <trkpt lat="59.164218" lon="18.161829">
        <ele>0</ele>
        <time>2019-08-31T08:02:34Z</time>
      </trkpt>
      <trkpt lat="59.164194" lon="18.161825">
        <ele>64</ele>
        <time>2019-08-31T08:02:35Z</time>
      </trkpt>
      <trkpt lat="59.164168" lon="18.161823">
        <ele>0</ele>
        <time>2019-08-31T08:02:36Z</time>
      </trkpt>
      <trkpt lat="59.164142" lon="18.161824">
        <ele>64</ele>
        <time>2019-08-31T08:02:37Z</time>
      </trkpt>
      <trkpt lat="59.164117" lon="18.161821">
        <ele>64</ele>
        <time>2019-08-31T08:02:39Z</time>
      </trkpt>
      <trkpt lat="59.164094" lon="18.161816">
        <ele>64</ele>
        <time>2019-08-31T08:02:40Z</time>
      </trkpt>
      <trkpt lat="59.164068" lon="18.161812">
        <ele>64</ele>
        <time>2019-08-31T08:02:41Z</time>
      </trkpt>
      <trkpt lat="59.164043" lon="18.161805">
        <ele>64</ele>
        <time>2019-08-31T08:02:42Z</time>
      </trkpt>
      <trkpt lat="59.164017" lon="18.161801">
        <ele>64</ele>
        <time>2019-08-31T08:02:43Z</time>
      </trkpt>
      <trkpt lat="59.163992" lon="18.161796">
        <ele>64</ele>
        <time>2019-08-31T08:02:44Z</time>
      </trkpt>
      <trkpt lat="59.163966" lon="18.161795">
        <ele>0</ele>
        <time>2019-08-31T08:02:44Z</time>
      </trkpt>
      <trkpt lat="59.163941" lon="18.161792">
        <ele>64</ele>
        <time>2019-08-31T08:02:45Z</time>
      </trkpt>
      <trkpt lat="59.163918" lon="18.161789">
        <ele>64</ele>
        <time>2019-08-31T08:02:47Z</time>
      </trkpt>
      <trkpt lat="59.163895" lon="18.161782">
        <ele>63</ele>
        <time>2019-08-31T08:02:48Z</time>
      </trkpt>
      <trkpt lat="59.16387" lon="18.161776">
        <ele>63</ele>
        <time>2019-08-31T08:02:49Z</time>
      </trkpt>
      <trkpt lat="59.163845" lon="18.161769">
        <ele>64</ele>
        <time>2019-08-31T08:02:50Z</time>
      </trkpt>
      <trkpt lat="59.163817" lon="18.161769">
        <ele>64</ele>
        <time>2019-08-31T08:02:51Z</time>
      </trkpt>
      <trkpt lat="59.16379" lon="18.16177">
        <ele>0</ele>
        <time>2019-08-31T08:02:51Z</time>
      </trkpt>
      <trkpt lat="59.163764" lon="18.16177">
        <ele>64</ele>
        <time>2019-08-31T08:02:52Z</time>
      </trkpt>
      <trkpt lat="59.163739" lon="18.161768">
        <ele>64</ele>
        <time>2019-08-31T08:02:54Z</time>
      </trkpt>
      <trkpt lat="59.163713" lon="18.161764">
        <ele>0</ele>
        <time>2019-08-31T08:02:54Z</time>
      </trkpt>
      <trkpt lat="59.16369" lon="18.161758">
        <ele>64</ele>
        <time>2019-08-31T08:02:55Z</time>
      </trkpt>
      <trkpt lat="59.163671" lon="18.161752">
        <ele>0</ele>
        <time>2019-08-31T08:02:56Z</time>
      </trkpt>
      <trkpt lat="59.163649" lon="18.161762">
        <ele>63</ele>
        <time>2019-08-31T08:02:57Z</time>
      </trkpt>
      <trkpt lat="59.163626" lon="18.161776">
        <ele>63</ele>
        <time>2019-08-31T08:02:59Z</time>
      </trkpt>
      <trkpt lat="59.163604" lon="18.161793">
        <ele>63</ele>
        <time>2019-08-31T08:03:00Z</time>
      </trkpt>
      <trkpt lat="59.163582" lon="18.161807">
        <ele>63</ele>
        <time>2019-08-31T08:03:01Z</time>
      </trkpt>
      <trkpt lat="59.163563" lon="18.16182">
        <ele>0</ele>
        <time>2019-08-31T08:03:01Z</time>
      </trkpt>
      <trkpt lat="59.163542" lon="18.16183">
        <ele>63</ele>
        <time>2019-08-31T08:03:02Z</time>
      </trkpt>
      <trkpt lat="59.163521" lon="18.161844">
        <ele>63</ele>
        <time>2019-08-31T08:03:04Z</time>
      </trkpt>
      <trkpt lat="59.1635" lon="18.161858">
        <ele>0</ele>
        <time>2019-08-31T08:03:04Z</time>
      </trkpt>
      <trkpt lat="59.163476" lon="18.161865">
        <ele>63</ele>
        <time>2019-08-31T08:03:05Z</time>
      </trkpt>
      <trkpt lat="59.163452" lon="18.161879">
        <ele>62</ele>
        <time>2019-08-31T08:03:07Z</time>
      </trkpt>
      <trkpt lat="59.163431" lon="18.161902">
        <ele>63</ele>
        <time>2019-08-31T08:03:08Z</time>
      </trkpt>
      <trkpt lat="59.163412" lon="18.161928">
        <ele>63</ele>
        <time>2019-08-31T08:03:09Z</time>
      </trkpt>
      <trkpt lat="59.163393" lon="18.161945">
        <ele>63</ele>
        <time>2019-08-31T08:03:10Z</time>
      </trkpt>
      <trkpt lat="59.163374" lon="18.16196">
        <ele>0</ele>
        <time>2019-08-31T08:03:10Z</time>
      </trkpt>
      <trkpt lat="59.16335" lon="18.161969">
        <ele>63</ele>
        <time>2019-08-31T08:03:11Z</time>
      </trkpt>
      <trkpt lat="59.163329" lon="18.161976">
        <ele>63</ele>
        <time>2019-08-31T08:03:13Z</time>
      </trkpt>
      <trkpt lat="59.163307" lon="18.161988">
        <ele>63</ele>
        <time>2019-08-31T08:03:14Z</time>
      </trkpt>
      <trkpt lat="59.163284" lon="18.162004">
        <ele>63</ele>
        <time>2019-08-31T08:03:15Z</time>
      </trkpt>
      <trkpt lat="59.163265" lon="18.16202">
        <ele>63</ele>
        <time>2019-08-31T08:03:16Z</time>
      </trkpt>
      <trkpt lat="59.163242" lon="18.16204">
        <ele>63</ele>
        <time>2019-08-31T08:03:17Z</time>
      </trkpt>
      <trkpt lat="59.16322" lon="18.162058">
        <ele>0</ele>
        <time>2019-08-31T08:03:17Z</time>
      </trkpt>
      <trkpt lat="59.1632" lon="18.162074">
        <ele>63</ele>
        <time>2019-08-31T08:03:18Z</time>
      </trkpt>
      <trkpt lat="59.163177" lon="18.162088">
        <ele>63</ele>
        <time>2019-08-31T08:03:19Z</time>
      </trkpt>
      <trkpt lat="59.163158" lon="18.162097">
        <ele>63</ele>
        <time>2019-08-31T08:03:21Z</time>
      </trkpt>
      <trkpt lat="59.163138" lon="18.162102">
        <ele>63</ele>
        <time>2019-08-31T08:03:22Z</time>
      </trkpt>
      <trkpt lat="59.163113" lon="18.162106">
        <ele>63</ele>
        <time>2019-08-31T08:03:23Z</time>
      </trkpt>
      <trkpt lat="59.163084" lon="18.16211">
        <ele>0</ele>
        <time>2019-08-31T08:03:23Z</time>
      </trkpt>
      <trkpt lat="59.163055" lon="18.162121">
        <ele>62</ele>
        <time>2019-08-31T08:03:24Z</time>
      </trkpt>
      <trkpt lat="59.16303" lon="18.16213">
        <ele>62</ele>
        <time>2019-08-31T08:03:26Z</time>
      </trkpt>
      <trkpt lat="59.163005" lon="18.162144">
        <ele>0</ele>
        <time>2019-08-31T08:03:26Z</time>
      </trkpt>
      <trkpt lat="59.162982" lon="18.162158">
        <ele>62</ele>
        <time>2019-08-31T08:03:27Z</time>
      </trkpt>
      <trkpt lat="59.162959" lon="18.162166">
        <ele>62</ele>
        <time>2019-08-31T08:03:29Z</time>
      </trkpt>
      <trkpt lat="59.162936" lon="18.162171">
        <ele>0</ele>
        <time>2019-08-31T08:03:29Z</time>
      </trkpt>
      <trkpt lat="59.162913" lon="18.162182">
        <ele>62</ele>
        <time>2019-08-31T08:03:30Z</time>
      </trkpt>
      <trkpt lat="59.162888" lon="18.162194">
        <ele>0</ele>
        <time>2019-08-31T08:03:31Z</time>
      </trkpt>
      <trkpt lat="59.162864" lon="18.1622">
        <ele>62</ele>
        <time>2019-08-31T08:03:32Z</time>
      </trkpt>
      <trkpt lat="59.162841" lon="18.162204">
        <ele>62</ele>
        <time>2019-08-31T08:03:34Z</time>
      </trkpt>
      <trkpt lat="59.162816" lon="18.162208">
        <ele>0</ele>
        <time>2019-08-31T08:03:34Z</time>
      </trkpt>
      <trkpt lat="59.162792" lon="18.162216">
        <ele>62</ele>
        <time>2019-08-31T08:03:35Z</time>
      </trkpt>
      <trkpt lat="59.162769" lon="18.162224">
        <ele>62</ele>
        <time>2019-08-31T08:03:37Z</time>
      </trkpt>
      <trkpt lat="59.162748" lon="18.162232">
        <ele>62</ele>
        <time>2019-08-31T08:03:38Z</time>
      </trkpt>
      <trkpt lat="59.162722" lon="18.162232">
        <ele>0</ele>
        <time>2019-08-31T08:03:38Z</time>
      </trkpt>
      <trkpt lat="59.162695" lon="18.162242">
        <ele>61</ele>
        <time>2019-08-31T08:03:39Z</time>
      </trkpt>
      <trkpt lat="59.16267" lon="18.162252">
        <ele>61</ele>
        <time>2019-08-31T08:03:41Z</time>
      </trkpt>
      <trkpt lat="59.162644" lon="18.162259">
        <ele>61</ele>
        <time>2019-08-31T08:03:42Z</time>
      </trkpt>
      <trkpt lat="59.162617" lon="18.162263">
        <ele>61</ele>
        <time>2019-08-31T08:03:43Z</time>
      </trkpt>
      <trkpt lat="59.162592" lon="18.16227">
        <ele>0</ele>
        <time>2019-08-31T08:03:43Z</time>
      </trkpt>
      <trkpt lat="59.162566" lon="18.162274">
        <ele>61</ele>
        <time>2019-08-31T08:03:44Z</time>
      </trkpt>
      <trkpt lat="59.162538" lon="18.162288">
        <ele>60</ele>
        <time>2019-08-31T08:03:46Z</time>
      </trkpt>
      <trkpt lat="59.162512" lon="18.162306">
        <ele>0</ele>
        <time>2019-08-31T08:03:46Z</time>
      </trkpt>
      <trkpt lat="59.16248" lon="18.162325">
        <ele>60</ele>
        <time>2019-08-31T08:03:47Z</time>
      </trkpt>
      <trkpt lat="59.162454" lon="18.162334">
        <ele>0</ele>
        <time>2019-08-31T08:03:48Z</time>
      </trkpt>
      <trkpt lat="59.162423" lon="18.162346">
        <ele>59</ele>
        <time>2019-08-31T08:03:49Z</time>
      </trkpt>
      <trkpt lat="59.162394" lon="18.162354">
        <ele>59</ele>
        <time>2019-08-31T08:03:51Z</time>
      </trkpt>
      <trkpt lat="59.162371" lon="18.162354">
        <ele>59</ele>
        <time>2019-08-31T08:03:52Z</time>
      </trkpt>
      <trkpt lat="59.162347" lon="18.162358">
        <ele>59</ele>
        <time>2019-08-31T08:03:53Z</time>
      </trkpt>
      <trkpt lat="59.162322" lon="18.162363">
        <ele>59</ele>
        <time>2019-08-31T08:03:54Z</time>
      </trkpt>
      <trkpt lat="59.162302" lon="18.162369">
        <ele>59</ele>
        <time>2019-08-31T08:03:55Z</time>
      </trkpt>
      <trkpt lat="59.16228" lon="18.162376">
        <ele>0</ele>
        <time>2019-08-31T08:03:55Z</time>
      </trkpt>
      <trkpt lat="59.162258" lon="18.16238">
        <ele>59</ele>
        <time>2019-08-31T08:03:56Z</time>
      </trkpt>
      <trkpt lat="59.162236" lon="18.16239">
        <ele>59</ele>
        <time>2019-08-31T08:03:58Z</time>
      </trkpt>
      <trkpt lat="59.162212" lon="18.162404">
        <ele>0</ele>
        <time>2019-08-31T08:03:58Z</time>
      </trkpt>
      <trkpt lat="59.162188" lon="18.162412">
        <ele>59</ele>
        <time>2019-08-31T08:03:59Z</time>
      </trkpt>
      <trkpt lat="59.162162" lon="18.162418">
        <ele>59</ele>
        <time>2019-08-31T08:04:01Z</time>
      </trkpt>
      <trkpt lat="59.162138" lon="18.162424">
        <ele>0</ele>
        <time>2019-08-31T08:04:01Z</time>
      </trkpt>
      <trkpt lat="59.162117" lon="18.162432">
        <ele>58</ele>
        <time>2019-08-31T08:04:02Z</time>
      </trkpt>
      <trkpt lat="59.162095" lon="18.16244">
        <ele>58</ele>
        <time>2019-08-31T08:04:04Z</time>
      </trkpt>
      <trkpt lat="59.162071" lon="18.162451">
        <ele>58</ele>
        <time>2019-08-31T08:04:05Z</time>
      </trkpt>
      <trkpt lat="59.162042" lon="18.16246">
        <ele>58</ele>
        <time>2019-08-31T08:04:06Z</time>
      </trkpt>
      <trkpt lat="59.162013" lon="18.162466">
        <ele>57</ele>
        <time>2019-08-31T08:04:07Z</time>
      </trkpt>
      <trkpt lat="59.161989" lon="18.162458">
        <ele>0</ele>
        <time>2019-08-31T08:04:07Z</time>
      </trkpt>
      <trkpt lat="59.161962" lon="18.16244">
        <ele>57</ele>
        <time>2019-08-31T08:04:08Z</time>
      </trkpt>
      <trkpt lat="59.161931" lon="18.162419">
        <ele>0</ele>
        <time>2019-08-31T08:04:09Z</time>
      </trkpt>
      <trkpt lat="59.161905" lon="18.162384">
        <ele>56</ele>
        <time>2019-08-31T08:04:10Z</time>
      </trkpt>
      <trkpt lat="59.16188" lon="18.162354">
        <ele>56</ele>
        <time>2019-08-31T08:04:12Z</time>
      </trkpt>
      <trkpt lat="59.16186" lon="18.162319">
        <ele>56</ele>
        <time>2019-08-31T08:04:13Z</time>
      </trkpt>
      <trkpt lat="59.161843" lon="18.162274">
        <ele>55</ele>
        <time>2019-08-31T08:04:14Z</time>
      </trkpt>
      <trkpt lat="59.161823" lon="18.16223">
        <ele>55</ele>
        <time>2019-08-31T08:04:15Z</time>
      </trkpt>
      <trkpt lat="59.161804" lon="18.162182">
        <ele>55</ele>
        <time>2019-08-31T08:04:16Z</time>
      </trkpt>
      <trkpt lat="59.161787" lon="18.162138">
        <ele>0</ele>
        <time>2019-08-31T08:04:16Z</time>
      </trkpt>
      <trkpt lat="59.161768" lon="18.16209">
        <ele>55</ele>
        <time>2019-08-31T08:04:17Z</time>
      </trkpt>
      <trkpt lat="59.161751" lon="18.162046">
        <ele>55</ele>
        <time>2019-08-31T08:04:19Z</time>
      </trkpt>
      <trkpt lat="59.161736" lon="18.162002">
        <ele>55</ele>
        <time>2019-08-31T08:04:20Z</time>
      </trkpt>
      <trkpt lat="59.161719" lon="18.161962">
        <ele>55</ele>
        <time>2019-08-31T08:04:21Z</time>
      </trkpt>
      <trkpt lat="59.161705" lon="18.161921">
        <ele>0</ele>
        <time>2019-08-31T08:04:21Z</time>
      </trkpt>
      <trkpt lat="59.161688" lon="18.161879">
        <ele>55</ele>
        <time>2019-08-31T08:04:22Z</time>
      </trkpt>
      <trkpt lat="59.161676" lon="18.161836">
        <ele>55</ele>
        <time>2019-08-31T08:04:24Z</time>
      </trkpt>
      <trkpt lat="59.161663" lon="18.161796">
        <ele>0</ele>
        <time>2019-08-31T08:04:24Z</time>
      </trkpt>
      <trkpt lat="59.161651" lon="18.161754">
        <ele>55</ele>
        <time>2019-08-31T08:04:25Z</time>
      </trkpt>
      <trkpt lat="59.161637" lon="18.161711">
        <ele>0</ele>
        <time>2019-08-31T08:04:26Z</time>
      </trkpt>
      <trkpt lat="59.161624" lon="18.16167">
        <ele>55</ele>
        <time>2019-08-31T08:04:27Z</time>
      </trkpt>
      <trkpt lat="59.161611" lon="18.161626">
        <ele>54</ele>
        <time>2019-08-31T08:04:29Z</time>
      </trkpt>
      <trkpt lat="59.161597" lon="18.161582">
        <ele>54</ele>
        <time>2019-08-31T08:04:30Z</time>
      </trkpt>
      <trkpt lat="59.161584" lon="18.16154">
        <ele>54</ele>
        <time>2019-08-31T08:04:31Z</time>
      </trkpt>
      <trkpt lat="59.161571" lon="18.161499">
        <ele>54</ele>
        <time>2019-08-31T08:04:32Z</time>
      </trkpt>
      <trkpt lat="59.161559" lon="18.161458">
        <ele>54</ele>
        <time>2019-08-31T08:04:33Z</time>
      </trkpt>
      <trkpt lat="59.161546" lon="18.161415">
        <ele>0</ele>
        <time>2019-08-31T08:04:33Z</time>
      </trkpt>
      <trkpt lat="59.161533" lon="18.161371">
        <ele>54</ele>
        <time>2019-08-31T08:04:34Z</time>
      </trkpt>
      <trkpt lat="59.161519" lon="18.161329">
        <ele>0</ele>
        <time>2019-08-31T08:04:35Z</time>
      </trkpt>
      <trkpt lat="59.161507" lon="18.161284">
        <ele>54</ele>
        <time>2019-08-31T08:04:36Z</time>
      </trkpt>
      <trkpt lat="59.161495" lon="18.161243">
        <ele>54</ele>
        <time>2019-08-31T08:04:38Z</time>
      </trkpt>
      <trkpt lat="59.161484" lon="18.1612">
        <ele>54</ele>
        <time>2019-08-31T08:04:39Z</time>
      </trkpt>
      <trkpt lat="59.16147" lon="18.161157">
        <ele>54</ele>
        <time>2019-08-31T08:04:40Z</time>
      </trkpt>
      <trkpt lat="59.161458" lon="18.161115">
        <ele>54</ele>
        <time>2019-08-31T08:04:41Z</time>
      </trkpt>
      <trkpt lat="59.161445" lon="18.161074">
        <ele>54</ele>
        <time>2019-08-31T08:04:42Z</time>
      </trkpt>
      <trkpt lat="59.161436" lon="18.161037">
        <ele>54</ele>
        <time>2019-08-31T08:04:43Z</time>
      </trkpt>
      <trkpt lat="59.161425" lon="18.160995">
        <ele>0</ele>
        <time>2019-08-31T08:04:43Z</time>
      </trkpt>
      <trkpt lat="59.161413" lon="18.160953">
        <ele>54</ele>
        <time>2019-08-31T08:04:44Z</time>
      </trkpt>
      <trkpt lat="59.161402" lon="18.160908">
        <ele>0</ele>
        <time>2019-08-31T08:04:45Z</time>
      </trkpt>
      <trkpt lat="59.161388" lon="18.160866">
        <ele>54</ele>
        <time>2019-08-31T08:04:46Z</time>
      </trkpt>
      <trkpt lat="59.161377" lon="18.160826">
        <ele>54</ele>
        <time>2019-08-31T08:04:48Z</time>
      </trkpt>
      <trkpt lat="59.161366" lon="18.160782">
        <ele>54</ele>
        <time>2019-08-31T08:04:49Z</time>
      </trkpt>
      <trkpt lat="59.161352" lon="18.160743">
        <ele>54</ele>
        <time>2019-08-31T08:04:50Z</time>
      </trkpt>
      <trkpt lat="59.161339" lon="18.160701">
        <ele>54</ele>
        <time>2019-08-31T08:04:51Z</time>
      </trkpt>
      <trkpt lat="59.161326" lon="18.160661">
        <ele>54</ele>
        <time>2019-08-31T08:04:52Z</time>
      </trkpt>
      <trkpt lat="59.161311" lon="18.160622">
        <ele>0</ele>
        <time>2019-08-31T08:04:52Z</time>
      </trkpt>
      <trkpt lat="59.161297" lon="18.16058">
        <ele>54</ele>
        <time>2019-08-31T08:04:53Z</time>
      </trkpt>
      <trkpt lat="59.161285" lon="18.16054">
        <ele>54</ele>
        <time>2019-08-31T08:04:55Z</time>
      </trkpt>
      <trkpt lat="59.161272" lon="18.1605">
        <ele>0</ele>
        <time>2019-08-31T08:04:55Z</time>
      </trkpt>
      <trkpt lat="59.161259" lon="18.160465">
        <ele>54</ele>
        <time>2019-08-31T08:04:56Z</time>
      </trkpt>
      <trkpt lat="59.161243" lon="18.160429">
        <ele>54</ele>
        <time>2019-08-31T08:04:57Z</time>
      </trkpt>
      <trkpt lat="59.161223" lon="18.160397">
        <ele>53</ele>
        <time>2019-08-31T08:04:59Z</time>
      </trkpt>
      <trkpt lat="59.161203" lon="18.160374">
        <ele>53</ele>
        <time>2019-08-31T08:05:00Z</time>
      </trkpt>
      <trkpt lat="59.161181" lon="18.160352">
        <ele>53</ele>
        <time>2019-08-31T08:05:01Z</time>
      </trkpt>
      <trkpt lat="59.161157" lon="18.160335">
        <ele>0</ele>
        <time>2019-08-31T08:05:01Z</time>
      </trkpt>
      <trkpt lat="59.161132" lon="18.160318">
        <ele>53</ele>
        <time>2019-08-31T08:05:02Z</time>
      </trkpt>
      <trkpt lat="59.161108" lon="18.160302">
        <ele>53</ele>
        <time>2019-08-31T08:05:04Z</time>
      </trkpt>
      <trkpt lat="59.161086" lon="18.160287">
        <ele>0</ele>
        <time>2019-08-31T08:05:04Z</time>
      </trkpt>
      <trkpt lat="59.161062" lon="18.160267">
        <ele>53</ele>
        <time>2019-08-31T08:05:05Z</time>
      </trkpt>
      <trkpt lat="59.161043" lon="18.160246">
        <ele>0</ele>
        <time>2019-08-31T08:05:06Z</time>
      </trkpt>
      <trkpt lat="59.161019" lon="18.160224">
        <ele>53</ele>
        <time>2019-08-31T08:05:07Z</time>
      </trkpt>
      <trkpt lat="59.160994" lon="18.160202">
        <ele>53</ele>
        <time>2019-08-31T08:05:09Z</time>
      </trkpt>
      <trkpt lat="59.16097" lon="18.160182">
        <ele>0</ele>
        <time>2019-08-31T08:05:09Z</time>
      </trkpt>
      <trkpt lat="59.160948" lon="18.160159">
        <ele>53</ele>
        <time>2019-08-31T08:05:10Z</time>
      </trkpt>
      <trkpt lat="59.160922" lon="18.160139">
        <ele>53</ele>
        <time>2019-08-31T08:05:12Z</time>
      </trkpt>
      <trkpt lat="59.160898" lon="18.160113">
        <ele>53</ele>
        <time>2019-08-31T08:05:13Z</time>
      </trkpt>
      <trkpt lat="59.160873" lon="18.16009">
        <ele>53</ele>
        <time>2019-08-31T08:05:14Z</time>
      </trkpt>
      <trkpt lat="59.160849" lon="18.160071">
        <ele>53</ele>
        <time>2019-08-31T08:05:15Z</time>
      </trkpt>
      <trkpt lat="59.160822" lon="18.160055">
        <ele>0</ele>
        <time>2019-08-31T08:05:15Z</time>
      </trkpt>
      <trkpt lat="59.160796" lon="18.160036">
        <ele>53</ele>
        <time>2019-08-31T08:05:16Z</time>
      </trkpt>
      <trkpt lat="59.16077" lon="18.160016">
        <ele>54</ele>
        <time>2019-08-31T08:05:18Z</time>
      </trkpt>
      <trkpt lat="59.160743" lon="18.160001">
        <ele>54</ele>
        <time>2019-08-31T08:05:19Z</time>
      </trkpt>
      <trkpt lat="59.16072" lon="18.159981">
        <ele>54</ele>
        <time>2019-08-31T08:05:20Z</time>
      </trkpt>
      <trkpt lat="59.160698" lon="18.159962">
        <ele>54</ele>
        <time>2019-08-31T08:05:21Z</time>
      </trkpt>
      <trkpt lat="59.160674" lon="18.159942">
        <ele>54</ele>
        <time>2019-08-31T08:05:22Z</time>
      </trkpt>
      <trkpt lat="59.16065" lon="18.159922">
        <ele>54</ele>
        <time>2019-08-31T08:05:23Z</time>
      </trkpt>
      <trkpt lat="59.160628" lon="18.159903">
        <ele>0</ele>
        <time>2019-08-31T08:05:23Z</time>
      </trkpt>
      <trkpt lat="59.160605" lon="18.159881">
        <ele>54</ele>
        <time>2019-08-31T08:05:24Z</time>
      </trkpt>
      <trkpt lat="59.160582" lon="18.159859">
        <ele>54</ele>
        <time>2019-08-31T08:05:26Z</time>
      </trkpt>
      <trkpt lat="59.16056" lon="18.159838">
        <ele>54</ele>
        <time>2019-08-31T08:05:27Z</time>
      </trkpt>
      <trkpt lat="59.160536" lon="18.15982">
        <ele>54</ele>
        <time>2019-08-31T08:05:28Z</time>
      </trkpt>
      <trkpt lat="59.160514" lon="18.1598">
        <ele>0</ele>
        <time>2019-08-31T08:05:28Z</time>
      </trkpt>
      <trkpt lat="59.160492" lon="18.159778">
        <ele>54</ele>
        <time>2019-08-31T08:05:29Z</time>
      </trkpt>
      <trkpt lat="59.160473" lon="18.159755">
        <ele>54</ele>
        <time>2019-08-31T08:05:31Z</time>
      </trkpt>
      <trkpt lat="59.160453" lon="18.159726">
        <ele>0</ele>
        <time>2019-08-31T08:05:31Z</time>
      </trkpt>
      <trkpt lat="59.160431" lon="18.1597">
        <ele>54</ele>
        <time>2019-08-31T08:05:32Z</time>
      </trkpt>
      <trkpt lat="59.160411" lon="18.159674">
        <ele>54</ele>
        <time>2019-08-31T08:05:34Z</time>
      </trkpt>
      <trkpt lat="59.16039" lon="18.159649">
        <ele>54</ele>
        <time>2019-08-31T08:05:35Z</time>
      </trkpt>
      <trkpt lat="59.160371" lon="18.15962">
        <ele>0</ele>
        <time>2019-08-31T08:05:35Z</time>
      </trkpt>
      <trkpt lat="59.160352" lon="18.159589">
        <ele>54</ele>
        <time>2019-08-31T08:05:36Z</time>
      </trkpt>
      <trkpt lat="59.160332" lon="18.159561">
        <ele>54</ele>
        <time>2019-08-31T08:05:38Z</time>
      </trkpt>
      <trkpt lat="59.160314" lon="18.15953">
        <ele>54</ele>
        <time>2019-08-31T08:05:39Z</time>
      </trkpt>
      <trkpt lat="59.160296" lon="18.1595">
        <ele>54</ele>
        <time>2019-08-31T08:05:40Z</time>
      </trkpt>
      <trkpt lat="59.160279" lon="18.15947">
        <ele>54</ele>
        <time>2019-08-31T08:05:41Z</time>
      </trkpt>
      <trkpt lat="59.16026" lon="18.15944">
        <ele>54</ele>
        <time>2019-08-31T08:05:42Z</time>
      </trkpt>
      <trkpt lat="59.160242" lon="18.159412">
        <ele>0</ele>
        <time>2019-08-31T08:05:42Z</time>
      </trkpt>
      <trkpt lat="59.160221" lon="18.159385">
        <ele>54</ele>
        <time>2019-08-31T08:05:43Z</time>
      </trkpt>
      <trkpt lat="59.160201" lon="18.159358">
        <ele>54</ele>
        <time>2019-08-31T08:05:45Z</time>
      </trkpt>
      <trkpt lat="59.16018" lon="18.159329">
        <ele>54</ele>
        <time>2019-08-31T08:05:46Z</time>
      </trkpt>
      <trkpt lat="59.160161" lon="18.1593">
        <ele>54</ele>
        <time>2019-08-31T08:05:47Z</time>
      </trkpt>
      <trkpt lat="59.160142" lon="18.159268">
        <ele>53</ele>
        <time>2019-08-31T08:05:48Z</time>
      </trkpt>
      <trkpt lat="59.160124" lon="18.159231">
        <ele>54</ele>
        <time>2019-08-31T08:05:49Z</time>
      </trkpt>
      <trkpt lat="59.16011" lon="18.159192">
        <ele>0</ele>
        <time>2019-08-31T08:05:49Z</time>
      </trkpt>
      <trkpt lat="59.1601" lon="18.159145">
        <ele>54</ele>
        <time>2019-08-31T08:05:50Z</time>
      </trkpt>
      <trkpt lat="59.16009" lon="18.159099">
        <ele>54</ele>
        <time>2019-08-31T08:05:52Z</time>
      </trkpt>
      <trkpt lat="59.160087" lon="18.159053">
        <ele>0</ele>
        <time>2019-08-31T08:05:52Z</time>
      </trkpt>
      <trkpt lat="59.160082" lon="18.159008">
        <ele>53</ele>
        <time>2019-08-31T08:05:53Z</time>
      </trkpt>
      <trkpt lat="59.16008" lon="18.158967">
        <ele>53</ele>
        <time>2019-08-31T08:05:55Z</time>
      </trkpt>
      <trkpt lat="59.160079" lon="18.158921">
        <ele>53</ele>
        <time>2019-08-31T08:05:56Z</time>
      </trkpt>
      <trkpt lat="59.160076" lon="18.158874">
        <ele>0</ele>
        <time>2019-08-31T08:05:56Z</time>
      </trkpt>
      <trkpt lat="59.160074" lon="18.158826">
        <ele>53</ele>
        <time>2019-08-31T08:05:57Z</time>
      </trkpt>
      <trkpt lat="59.160074" lon="18.15878">
        <ele>54</ele>
        <time>2019-08-31T08:05:59Z</time>
      </trkpt>
      <trkpt lat="59.160073" lon="18.158735">
        <ele>53</ele>
        <time>2019-08-31T08:06:00Z</time>
      </trkpt>
      <trkpt lat="59.160073" lon="18.158687">
        <ele>53</ele>
        <time>2019-08-31T08:06:01Z</time>
      </trkpt>
      <trkpt lat="59.160073" lon="18.158642">
        <ele>0</ele>
        <time>2019-08-31T08:06:01Z</time>
      </trkpt>
      <trkpt lat="59.160074" lon="18.158595">
        <ele>53</ele>
        <time>2019-08-31T08:06:02Z</time>
      </trkpt>
      <trkpt lat="59.160071" lon="18.158552">
        <ele>53</ele>
        <time>2019-08-31T08:06:04Z</time>
      </trkpt>
      <trkpt lat="59.160067" lon="18.158507">
        <ele>54</ele>
        <time>2019-08-31T08:06:05Z</time>
      </trkpt>
      <trkpt lat="59.160063" lon="18.158463">
        <ele>54</ele>
        <time>2019-08-31T08:06:06Z</time>
      </trkpt>
      <trkpt lat="59.160063" lon="18.158423">
        <ele>54</ele>
        <time>2019-08-31T08:06:07Z</time>
      </trkpt>
      <trkpt lat="59.160064" lon="18.158387">
        <ele>54</ele>
        <time>2019-08-31T08:06:08Z</time>
      </trkpt>
      <trkpt lat="59.160071" lon="18.15835">
        <ele>0</ele>
        <time>2019-08-31T08:06:08Z</time>
      </trkpt>
      <trkpt lat="59.160081" lon="18.158318">
        <ele>54</ele>
        <time>2019-08-31T08:06:09Z</time>
      </trkpt>
      <trkpt lat="59.1601" lon="18.15829">
        <ele>54</ele>
        <time>2019-08-31T08:06:11Z</time>
      </trkpt>
      <trkpt lat="59.16012" lon="18.158266">
        <ele>0</ele>
        <time>2019-08-31T08:06:11Z</time>
      </trkpt>
      <trkpt lat="59.160137" lon="18.15824">
        <ele>54</ele>
        <time>2019-08-31T08:06:12Z</time>
      </trkpt>
      <trkpt lat="59.160155" lon="18.158214">
        <ele>54</ele>
        <time>2019-08-31T08:06:14Z</time>
      </trkpt>
      <trkpt lat="59.160176" lon="18.158186">
        <ele>54</ele>
        <time>2019-08-31T08:06:15Z</time>
      </trkpt>
      <trkpt lat="59.160194" lon="18.158156">
        <ele>54</ele>
        <time>2019-08-31T08:06:16Z</time>
      </trkpt>
      <trkpt lat="59.160212" lon="18.158118">
        <ele>54</ele>
        <time>2019-08-31T08:06:17Z</time>
      </trkpt>
      <trkpt lat="59.160228" lon="18.158079">
        <ele>0</ele>
        <time>2019-08-31T08:06:17Z</time>
      </trkpt>
      <trkpt lat="59.160244" lon="18.158047">
        <ele>54</ele>
        <time>2019-08-31T08:06:18Z</time>
      </trkpt>
      <trkpt lat="59.160257" lon="18.158006">
        <ele>55</ele>
        <time>2019-08-31T08:06:20Z</time>
      </trkpt>
      <trkpt lat="59.160267" lon="18.157961">
        <ele>0</ele>
        <time>2019-08-31T08:06:20Z</time>
      </trkpt>
      <trkpt lat="59.160273" lon="18.157912">
        <ele>55</ele>
        <time>2019-08-31T08:06:21Z</time>
      </trkpt>
      <trkpt lat="59.160276" lon="18.157866">
        <ele>55</ele>
        <time>2019-08-31T08:06:23Z</time>
      </trkpt>
      <trkpt lat="59.16028" lon="18.157819">
        <ele>55</ele>
        <time>2019-08-31T08:06:24Z</time>
      </trkpt>
      <trkpt lat="59.160286" lon="18.15778">
        <ele>55</ele>
        <time>2019-08-31T08:06:25Z</time>
      </trkpt>
      <trkpt lat="59.160294" lon="18.157744">
        <ele>55</ele>
        <time>2019-08-31T08:06:26Z</time>
      </trkpt>
      <trkpt lat="59.160302" lon="18.157713">
        <ele>55</ele>
        <time>2019-08-31T08:06:27Z</time>
      </trkpt>
      <trkpt lat="59.160321" lon="18.15765">
        <ele>55</ele>
        <time>2019-08-31T08:06:29Z</time>
      </trkpt>
      <trkpt lat="59.160361" lon="18.157459">
        <ele>55</ele>
        <time>2019-08-31T08:06:33Z</time>
      </trkpt>
      <trkpt lat="59.160374" lon="18.157274">
        <ele>55</ele>
        <time>2019-08-31T08:06:35Z</time>
      </trkpt>
      <trkpt lat="59.160412" lon="18.157078">
        <ele>55</ele>
        <time>2019-08-31T08:06:38Z</time>
      </trkpt>
      <trkpt lat="59.160427" lon="18.157034">
        <ele>55</ele>
        <time>2019-08-31T08:06:39Z</time>
      </trkpt>
      <trkpt lat="59.160446" lon="18.157002">
        <ele>0</ele>
        <time>2019-08-31T08:06:39Z</time>
      </trkpt>
      <trkpt lat="59.160469" lon="18.156979">
        <ele>55</ele>
        <time>2019-08-31T08:06:40Z</time>
      </trkpt>
      <trkpt lat="59.160495" lon="18.156972">
        <ele>55</ele>
        <time>2019-08-31T08:06:41Z</time>
      </trkpt>
      <trkpt lat="59.160518" lon="18.156967">
        <ele>56</ele>
        <time>2019-08-31T08:06:43Z</time>
      </trkpt>
      <trkpt lat="59.160541" lon="18.156971">
        <ele>0</ele>
        <time>2019-08-31T08:06:43Z</time>
      </trkpt>
      <trkpt lat="59.160563" lon="18.156963">
        <ele>56</ele>
        <time>2019-08-31T08:06:44Z</time>
      </trkpt>
      <trkpt lat="59.160585" lon="18.156956">
        <ele>55</ele>
        <time>2019-08-31T08:06:46Z</time>
      </trkpt>
      <trkpt lat="59.160606" lon="18.156946">
        <ele>55</ele>
        <time>2019-08-31T08:06:47Z</time>
      </trkpt>
      <trkpt lat="59.160627" lon="18.156942">
        <ele>55</ele>
        <time>2019-08-31T08:06:48Z</time>
      </trkpt>
      <trkpt lat="59.16065" lon="18.156937">
        <ele>55</ele>
        <time>2019-08-31T08:06:49Z</time>
      </trkpt>
      <trkpt lat="59.160673" lon="18.156917">
        <ele>55</ele>
        <time>2019-08-31T08:06:50Z</time>
      </trkpt>
      <trkpt lat="59.160698" lon="18.156891">
        <ele>55</ele>
        <time>2019-08-31T08:06:51Z</time>
      </trkpt>
      <trkpt lat="59.160723" lon="18.156868">
        <ele>0</ele>
        <time>2019-08-31T08:06:51Z</time>
      </trkpt>
      <trkpt lat="59.160747" lon="18.156848">
        <ele>55</ele>
        <time>2019-08-31T08:06:52Z</time>
      </trkpt>
      <trkpt lat="59.160769" lon="18.156822">
        <ele>56</ele>
        <time>2019-08-31T08:06:54Z</time>
      </trkpt>
      <trkpt lat="59.16079" lon="18.156793">
        <ele>56</ele>
        <time>2019-08-31T08:06:55Z</time>
      </trkpt>
      <trkpt lat="59.160808" lon="18.156765">
        <ele>0</ele>
        <time>2019-08-31T08:06:55Z</time>
      </trkpt>
      <trkpt lat="59.160826" lon="18.156729">
        <ele>55</ele>
        <time>2019-08-31T08:06:56Z</time>
      </trkpt>
      <trkpt lat="59.160848" lon="18.156702">
        <ele>55</ele>
        <time>2019-08-31T08:06:58Z</time>
      </trkpt>
      <trkpt lat="59.160867" lon="18.156686">
        <ele>0</ele>
        <time>2019-08-31T08:06:58Z</time>
      </trkpt>
      <trkpt lat="59.160888" lon="18.156682">
        <ele>55</ele>
        <time>2019-08-31T08:06:59Z</time>
      </trkpt>
      <trkpt lat="59.160911" lon="18.156678">
        <ele>55</ele>
        <time>2019-08-31T08:07:01Z</time>
      </trkpt>
      <trkpt lat="59.160932" lon="18.156678">
        <ele>55</ele>
        <time>2019-08-31T08:07:02Z</time>
      </trkpt>
      <trkpt lat="59.160954" lon="18.156681">
        <ele>55</ele>
        <time>2019-08-31T08:07:03Z</time>
      </trkpt>
      <trkpt lat="59.160976" lon="18.156685">
        <ele>55</ele>
        <time>2019-08-31T08:07:04Z</time>
      </trkpt>
      <trkpt lat="59.160999" lon="18.15669">
        <ele>56</ele>
        <time>2019-08-31T08:07:05Z</time>
      </trkpt>
      <trkpt lat="59.16102" lon="18.156694">
        <ele>56</ele>
        <time>2019-08-31T08:07:06Z</time>
      </trkpt>
      <trkpt lat="59.161042" lon="18.156696">
        <ele>56</ele>
        <time>2019-08-31T08:07:07Z</time>
      </trkpt>
      <trkpt lat="59.161064" lon="18.156699">
        <ele>56</ele>
        <time>2019-08-31T08:07:08Z</time>
      </trkpt>
      <trkpt lat="59.161085" lon="18.156703">
        <ele>0</ele>
        <time>2019-08-31T08:07:08Z</time>
      </trkpt>
      <trkpt lat="59.161108" lon="18.156705">
        <ele>56</ele>
        <time>2019-08-31T08:07:09Z</time>
      </trkpt>
      <trkpt lat="59.161127" lon="18.156712">
        <ele>56</ele>
        <time>2019-08-31T08:07:11Z</time>
      </trkpt>
      <trkpt lat="59.16115" lon="18.156718">
        <ele>56</ele>
        <time>2019-08-31T08:07:12Z</time>
      </trkpt>
      <trkpt lat="59.161173" lon="18.156725">
        <ele>56</ele>
        <time>2019-08-31T08:07:13Z</time>
      </trkpt>
      <trkpt lat="59.161194" lon="18.156725">
        <ele>57</ele>
        <time>2019-08-31T08:07:14Z</time>
      </trkpt>
      <trkpt lat="59.161217" lon="18.156728">
        <ele>57</ele>
        <time>2019-08-31T08:07:15Z</time>
      </trkpt>
      <trkpt lat="59.161241" lon="18.156735">
        <ele>57</ele>
        <time>2019-08-31T08:07:16Z</time>
      </trkpt>
      <trkpt lat="59.161266" lon="18.156744">
        <ele>57</ele>
        <time>2019-08-31T08:07:17Z</time>
      </trkpt>
      <trkpt lat="59.161287" lon="18.156765">
        <ele>0</ele>
        <time>2019-08-31T08:07:17Z</time>
      </trkpt>
      <trkpt lat="59.161311" lon="18.156779">
        <ele>57</ele>
        <time>2019-08-31T08:07:18Z</time>
      </trkpt>
      <trkpt lat="59.161333" lon="18.156785">
        <ele>57</ele>
        <time>2019-08-31T08:07:19Z</time>
      </trkpt>
      <trkpt lat="59.161355" lon="18.156794">
        <ele>58</ele>
        <time>2019-08-31T08:07:21Z</time>
      </trkpt>
      <trkpt lat="59.161378" lon="18.156806">
        <ele>58</ele>
        <time>2019-08-31T08:07:22Z</time>
      </trkpt>
      <trkpt lat="59.161401" lon="18.156817">
        <ele>58</ele>
        <time>2019-08-31T08:07:23Z</time>
      </trkpt>
      <trkpt lat="59.161426" lon="18.156825">
        <ele>0</ele>
        <time>2019-08-31T08:07:23Z</time>
      </trkpt>
      <trkpt lat="59.16145" lon="18.156831">
        <ele>59</ele>
        <time>2019-08-31T08:07:24Z</time>
      </trkpt>
      <trkpt lat="59.161475" lon="18.156833">
        <ele>59</ele>
        <time>2019-08-31T08:07:26Z</time>
      </trkpt>
      <trkpt lat="59.161496" lon="18.156832">
        <ele>0</ele>
        <time>2019-08-31T08:07:26Z</time>
      </trkpt>
      <trkpt lat="59.16152" lon="18.15684">
        <ele>60</ele>
        <time>2019-08-31T08:07:27Z</time>
      </trkpt>
      <trkpt lat="59.161542" lon="18.15685">
        <ele>0</ele>
        <time>2019-08-31T08:07:28Z</time>
      </trkpt>
      <trkpt lat="59.161566" lon="18.156862">
        <ele>60</ele>
        <time>2019-08-31T08:07:29Z</time>
      </trkpt>
      <trkpt lat="59.161589" lon="18.156876">
        <ele>60</ele>
        <time>2019-08-31T08:07:31Z</time>
      </trkpt>
      <trkpt lat="59.161615" lon="18.156879">
        <ele>0</ele>
        <time>2019-08-31T08:07:31Z</time>
      </trkpt>
      <trkpt lat="59.161641" lon="18.156889">
        <ele>60</ele>
        <time>2019-08-31T08:07:32Z</time>
      </trkpt>
      <trkpt lat="59.161666" lon="18.156895">
        <ele>60</ele>
        <time>2019-08-31T08:07:34Z</time>
      </trkpt>
      <trkpt lat="59.161689" lon="18.156897">
        <ele>60</ele>
        <time>2019-08-31T08:07:35Z</time>
      </trkpt>
      <trkpt lat="59.161719" lon="18.1569">
        <ele>60</ele>
        <time>2019-08-31T08:07:36Z</time>
      </trkpt>
      <trkpt lat="59.161745" lon="18.156895">
        <ele>0</ele>
        <time>2019-08-31T08:07:36Z</time>
      </trkpt>
      <trkpt lat="59.16177" lon="18.156891">
        <ele>60</ele>
        <time>2019-08-31T08:07:37Z</time>
      </trkpt>
      <trkpt lat="59.161795" lon="18.156887">
        <ele>0</ele>
        <time>2019-08-31T08:07:38Z</time>
      </trkpt>
      <trkpt lat="59.161819" lon="18.156883">
        <ele>60</ele>
        <time>2019-08-31T08:07:39Z</time>
      </trkpt>
      <trkpt lat="59.161845" lon="18.156885">
        <ele>61</ele>
        <time>2019-08-31T08:07:41Z</time>
      </trkpt>
      <trkpt lat="59.161873" lon="18.156886">
        <ele>61</ele>
        <time>2019-08-31T08:07:42Z</time>
      </trkpt>
      <trkpt lat="59.161896" lon="18.156883">
        <ele>60</ele>
        <time>2019-08-31T08:07:43Z</time>
      </trkpt>
      <trkpt lat="59.161923" lon="18.15689">
        <ele>60</ele>
        <time>2019-08-31T08:07:44Z</time>
      </trkpt>
      <trkpt lat="59.161952" lon="18.156907">
        <ele>60</ele>
        <time>2019-08-31T08:07:45Z</time>
      </trkpt>
      <trkpt lat="59.161981" lon="18.156923">
        <ele>60</ele>
        <time>2019-08-31T08:07:46Z</time>
      </trkpt>
      <trkpt lat="59.162011" lon="18.156939">
        <ele>0</ele>
        <time>2019-08-31T08:07:46Z</time>
      </trkpt>
      <trkpt lat="59.162041" lon="18.156951">
        <ele>60</ele>
        <time>2019-08-31T08:07:47Z</time>
      </trkpt>
      <trkpt lat="59.162068" lon="18.156965">
        <ele>60</ele>
        <time>2019-08-31T08:07:49Z</time>
      </trkpt>
      <trkpt lat="59.162096" lon="18.156979">
        <ele>0</ele>
        <time>2019-08-31T08:07:49Z</time>
      </trkpt>
      <trkpt lat="59.162123" lon="18.157006">
        <ele>60</ele>
        <time>2019-08-31T08:07:50Z</time>
      </trkpt>
      <trkpt lat="59.16215" lon="18.157036">
        <ele>59</ele>
        <time>2019-08-31T08:07:52Z</time>
      </trkpt>
      <trkpt lat="59.162177" lon="18.157072">
        <ele>59</ele>
        <time>2019-08-31T08:07:53Z</time>
      </trkpt>
      <trkpt lat="59.162204" lon="18.157107">
        <ele>59</ele>
        <time>2019-08-31T08:07:54Z</time>
      </trkpt>
      <trkpt lat="59.16223" lon="18.157136">
        <ele>59</ele>
        <time>2019-08-31T08:07:55Z</time>
      </trkpt>
      <trkpt lat="59.162257" lon="18.157163">
        <ele>0</ele>
        <time>2019-08-31T08:07:55Z</time>
      </trkpt>
      <trkpt lat="59.162283" lon="18.157191">
        <ele>59</ele>
        <time>2019-08-31T08:07:57Z</time>
      </trkpt>
      <trkpt lat="59.162309" lon="18.157219">
        <ele>59</ele>
        <time>2019-08-31T08:07:58Z</time>
      </trkpt>
      <trkpt lat="59.162335" lon="18.157249">
        <ele>59</ele>
        <time>2019-08-31T08:07:59Z</time>
      </trkpt>
      <trkpt lat="59.162362" lon="18.157274">
        <ele>59</ele>
        <time>2019-08-31T08:08:00Z</time>
      </trkpt>
      <trkpt lat="59.162389" lon="18.157291">
        <ele>0</ele>
        <time>2019-08-31T08:08:00Z</time>
      </trkpt>
      <trkpt lat="59.162412" lon="18.157308">
        <ele>59</ele>
        <time>2019-08-31T08:08:01Z</time>
      </trkpt>
      <trkpt lat="59.16244" lon="18.157328">
        <ele>59</ele>
        <time>2019-08-31T08:08:03Z</time>
      </trkpt>
      <trkpt lat="59.162469" lon="18.157345">
        <ele>0</ele>
        <time>2019-08-31T08:08:03Z</time>
      </trkpt>
      <trkpt lat="59.162501" lon="18.157363">
        <ele>58</ele>
        <time>2019-08-31T08:08:04Z</time>
      </trkpt>
      <trkpt lat="59.162531" lon="18.157374">
        <ele>58</ele>
        <time>2019-08-31T08:08:06Z</time>
      </trkpt>
      <trkpt lat="59.16256" lon="18.157386">
        <ele>58</ele>
        <time>2019-08-31T08:08:07Z</time>
      </trkpt>
      <trkpt lat="59.162589" lon="18.157394">
        <ele>58</ele>
        <time>2019-08-31T08:08:08Z</time>
      </trkpt>
      <trkpt lat="59.16262" lon="18.157402">
        <ele>58</ele>
        <time>2019-08-31T08:08:09Z</time>
      </trkpt>
      <trkpt lat="59.162649" lon="18.157408">
        <ele>58</ele>
        <time>2019-08-31T08:08:10Z</time>
      </trkpt>
      <trkpt lat="59.162677" lon="18.157419">
        <ele>58</ele>
        <time>2019-08-31T08:08:11Z</time>
      </trkpt>
      <trkpt lat="59.162709" lon="18.157436">
        <ele>0</ele>
        <time>2019-08-31T08:08:11Z</time>
      </trkpt>
      <trkpt lat="59.162738" lon="18.157449">
        <ele>59</ele>
        <time>2019-08-31T08:08:12Z</time>
      </trkpt>
      <trkpt lat="59.162765" lon="18.15746">
        <ele>59</ele>
        <time>2019-08-31T08:08:13Z</time>
      </trkpt>
      <trkpt lat="59.162794" lon="18.157467">
        <ele>0</ele>
        <time>2019-08-31T08:08:14Z</time>
      </trkpt>
      <trkpt lat="59.162824" lon="18.157471">
        <ele>59</ele>
        <time>2019-08-31T08:08:15Z</time>
      </trkpt>
      <trkpt lat="59.162851" lon="18.157479">
        <ele>60</ele>
        <time>2019-08-31T08:08:17Z</time>
      </trkpt>
      <trkpt lat="59.162882" lon="18.157488">
        <ele>60</ele>
        <time>2019-08-31T08:08:18Z</time>
      </trkpt>
      <trkpt lat="59.16291" lon="18.157491">
        <ele>60</ele>
        <time>2019-08-31T08:08:19Z</time>
      </trkpt>
      <trkpt lat="59.162938" lon="18.157497">
        <ele>60</ele>
        <time>2019-08-31T08:08:20Z</time>
      </trkpt>
      <trkpt lat="59.162965" lon="18.157507">
        <ele>60</ele>
        <time>2019-08-31T08:08:21Z</time>
      </trkpt>
      <trkpt lat="59.162993" lon="18.157519">
        <ele>0</ele>
        <time>2019-08-31T08:08:21Z</time>
      </trkpt>
      <trkpt lat="59.16302" lon="18.157532">
        <ele>60</ele>
        <time>2019-08-31T08:08:22Z</time>
      </trkpt>
      <trkpt lat="59.163046" lon="18.157536">
        <ele>60</ele>
        <time>2019-08-31T08:08:24Z</time>
      </trkpt>
      <trkpt lat="59.163073" lon="18.157542">
        <ele>0</ele>
        <time>2019-08-31T08:08:24Z</time>
      </trkpt>
      <trkpt lat="59.1631" lon="18.157545">
        <ele>60</ele>
        <time>2019-08-31T08:08:25Z</time>
      </trkpt>
      <trkpt lat="59.163127" lon="18.157545">
        <ele>61</ele>
        <time>2019-08-31T08:08:27Z</time>
      </trkpt>
      <trkpt lat="59.163155" lon="18.157549">
        <ele>61</ele>
        <time>2019-08-31T08:08:28Z</time>
      </trkpt>
      <trkpt lat="59.16318" lon="18.157553">
        <ele>61</ele>
        <time>2019-08-31T08:08:29Z</time>
      </trkpt>
      <trkpt lat="59.163206" lon="18.157558">
        <ele>61</ele>
        <time>2019-08-31T08:08:30Z</time>
      </trkpt>
      <trkpt lat="59.163233" lon="18.157558">
        <ele>0</ele>
        <time>2019-08-31T08:08:30Z</time>
      </trkpt>
      <trkpt lat="59.16326" lon="18.157557">
        <ele>61</ele>
        <time>2019-08-31T08:08:31Z</time>
      </trkpt>
      <trkpt lat="59.163284" lon="18.157556">
        <ele>62</ele>
        <time>2019-08-31T08:08:33Z</time>
      </trkpt>
      <trkpt lat="59.163305" lon="18.157553">
        <ele>0</ele>
        <time>2019-08-31T08:08:33Z</time>
      </trkpt>
      <trkpt lat="59.163328" lon="18.157554">
        <ele>62</ele>
        <time>2019-08-31T08:08:34Z</time>
      </trkpt>
      <trkpt lat="59.163352" lon="18.157556">
        <ele>62</ele>
        <time>2019-08-31T08:08:36Z</time>
      </trkpt>
      <trkpt lat="59.163377" lon="18.157557">
        <ele>62</ele>
        <time>2019-08-31T08:08:37Z</time>
      </trkpt>
      <trkpt lat="59.163401" lon="18.15756">
        <ele>62</ele>
        <time>2019-08-31T08:08:38Z</time>
      </trkpt>
      <trkpt lat="59.163424" lon="18.157565">
        <ele>62</ele>
        <time>2019-08-31T08:08:39Z</time>
      </trkpt>
      <trkpt lat="59.163447" lon="18.157568">
        <ele>63</ele>
        <time>2019-08-31T08:08:40Z</time>
      </trkpt>
      <trkpt lat="59.163471" lon="18.15757">
        <ele>63</ele>
        <time>2019-08-31T08:08:41Z</time>
      </trkpt>
      <trkpt lat="59.163493" lon="18.157569">
        <ele>63</ele>
        <time>2019-08-31T08:08:42Z</time>
      </trkpt>
      <trkpt lat="59.163516" lon="18.157569">
        <ele>63</ele>
        <time>2019-08-31T08:08:43Z</time>
      </trkpt>
      <trkpt lat="59.163541" lon="18.157573">
        <ele>0</ele>
        <time>2019-08-31T08:08:43Z</time>
      </trkpt>
      <trkpt lat="59.163565" lon="18.157577">
        <ele>63</ele>
        <time>2019-08-31T08:08:44Z</time>
      </trkpt>
      <trkpt lat="59.163589" lon="18.157579">
        <ele>64</ele>
        <time>2019-08-31T08:08:46Z</time>
      </trkpt>
      <trkpt lat="59.163612" lon="18.157583">
        <ele>64</ele>
        <time>2019-08-31T08:08:47Z</time>
      </trkpt>
      <trkpt lat="59.163636" lon="18.157585">
        <ele>64</ele>
        <time>2019-08-31T08:08:48Z</time>
      </trkpt>
      <trkpt lat="59.163659" lon="18.157585">
        <ele>65</ele>
        <time>2019-08-31T08:08:49Z</time>
      </trkpt>
      <trkpt lat="59.163682" lon="18.15759">
        <ele>65</ele>
        <time>2019-08-31T08:08:50Z</time>
      </trkpt>
      <trkpt lat="59.163705" lon="18.157592">
        <ele>65</ele>
        <time>2019-08-31T08:08:51Z</time>
      </trkpt>
      <trkpt lat="59.163735" lon="18.1576">
        <ele>0</ele>
        <time>2019-08-31T08:08:51Z</time>
      </trkpt>
      <trkpt lat="59.163764" lon="18.157605">
        <ele>65</ele>
        <time>2019-08-31T08:08:52Z</time>
      </trkpt>
      <trkpt lat="59.163795" lon="18.157609">
        <ele>65</ele>
        <time>2019-08-31T08:08:53Z</time>
      </trkpt>
      <trkpt lat="59.163826" lon="18.157618">
        <ele>65</ele>
        <time>2019-08-31T08:08:55Z</time>
      </trkpt>
      <trkpt lat="59.163859" lon="18.157623">
        <ele>65</ele>
        <time>2019-08-31T08:08:56Z</time>
      </trkpt>
      <trkpt lat="59.163887" lon="18.15763">
        <ele>65</ele>
        <time>2019-08-31T08:08:57Z</time>
      </trkpt>
      <trkpt lat="59.163915" lon="18.15764">
        <ele>65</ele>
        <time>2019-08-31T08:08:58Z</time>
      </trkpt>
      <trkpt lat="59.163942" lon="18.157648">
        <ele>65</ele>
        <time>2019-08-31T08:08:59Z</time>
      </trkpt>
      <trkpt lat="59.163968" lon="18.157654">
        <ele>0</ele>
        <time>2019-08-31T08:08:59Z</time>
      </trkpt>
      <trkpt lat="59.163994" lon="18.157662">
        <ele>65</ele>
        <time>2019-08-31T08:09:00Z</time>
      </trkpt>
      <trkpt lat="59.164015" lon="18.157669">
        <ele>66</ele>
        <time>2019-08-31T08:09:02Z</time>
      </trkpt>
      <trkpt lat="59.164037" lon="18.157677">
        <ele>65</ele>
        <time>2019-08-31T08:09:02Z</time>
      </trkpt>
      <trkpt lat="59.16406" lon="18.157686">
        <ele>66</ele>
        <time>2019-08-31T08:09:03Z</time>
      </trkpt>
      <trkpt lat="59.164084" lon="18.157694">
        <ele>66</ele>
        <time>2019-08-31T08:09:05Z</time>
      </trkpt>
      <trkpt lat="59.164107" lon="18.157712">
        <ele>66</ele>
        <time>2019-08-31T08:09:06Z</time>
      </trkpt>
      <trkpt lat="59.164132" lon="18.157722">
        <ele>66</ele>
        <time>2019-08-31T08:09:07Z</time>
      </trkpt>
      <trkpt lat="59.164154" lon="18.157729">
        <ele>66</ele>
        <time>2019-08-31T08:09:08Z</time>
      </trkpt>
      <trkpt lat="59.164177" lon="18.157732">
        <ele>66</ele>
        <time>2019-08-31T08:09:09Z</time>
      </trkpt>
      <trkpt lat="59.164204" lon="18.157739">
        <ele>0</ele>
        <time>2019-08-31T08:09:09Z</time>
      </trkpt>
      <trkpt lat="59.164234" lon="18.157744">
        <ele>66</ele>
        <time>2019-08-31T08:09:10Z</time>
      </trkpt>
      <trkpt lat="59.164269" lon="18.157748">
        <ele>0</ele>
        <time>2019-08-31T08:09:11Z</time>
      </trkpt>
      <trkpt lat="59.164303" lon="18.157762">
        <ele>66</ele>
        <time>2019-08-31T08:09:12Z</time>
      </trkpt>
      <trkpt lat="59.164334" lon="18.157771">
        <ele>65</ele>
        <time>2019-08-31T08:09:14Z</time>
      </trkpt>
      <trkpt lat="59.164368" lon="18.157781">
        <ele>65</ele>
        <time>2019-08-31T08:09:15Z</time>
      </trkpt>
      <trkpt lat="59.164399" lon="18.157786">
        <ele>65</ele>
        <time>2019-08-31T08:09:16Z</time>
      </trkpt>
      <trkpt lat="59.164433" lon="18.157797">
        <ele>64</ele>
        <time>2019-08-31T08:09:17Z</time>
      </trkpt>
      <trkpt lat="59.164466" lon="18.157804">
        <ele>64</ele>
        <time>2019-08-31T08:09:18Z</time>
      </trkpt>
      <trkpt lat="59.164497" lon="18.157812">
        <ele>64</ele>
        <time>2019-08-31T08:09:19Z</time>
      </trkpt>
      <trkpt lat="59.164526" lon="18.157824">
        <ele>64</ele>
        <time>2019-08-31T08:09:20Z</time>
      </trkpt>
      <trkpt lat="59.16455" lon="18.15783">
        <ele>64</ele>
        <time>2019-08-31T08:09:21Z</time>
      </trkpt>
      <trkpt lat="59.164576" lon="18.157837">
        <ele>0</ele>
        <time>2019-08-31T08:09:21Z</time>
      </trkpt>
      <trkpt lat="59.1646" lon="18.157842">
        <ele>64</ele>
        <time>2019-08-31T08:09:22Z</time>
      </trkpt>
      <trkpt lat="59.164624" lon="18.157846">
        <ele>64</ele>
        <time>2019-08-31T08:09:24Z</time>
      </trkpt>
      <trkpt lat="59.164646" lon="18.157853">
        <ele>63</ele>
        <time>2019-08-31T08:09:25Z</time>
      </trkpt>
      <trkpt lat="59.164668" lon="18.157858">
        <ele>63</ele>
        <time>2019-08-31T08:09:26Z</time>
      </trkpt>
      <trkpt lat="59.164686" lon="18.157865">
        <ele>63</ele>
        <time>2019-08-31T08:09:27Z</time>
      </trkpt>
      <trkpt lat="59.164705" lon="18.15787">
        <ele>0</ele>
        <time>2019-08-31T08:09:27Z</time>
      </trkpt>
      <trkpt lat="59.164728" lon="18.157875">
        <ele>63</ele>
        <time>2019-08-31T08:09:28Z</time>
      </trkpt>
      <trkpt lat="59.164754" lon="18.157881">
        <ele>63</ele>
        <time>2019-08-31T08:09:30Z</time>
      </trkpt>
      <trkpt lat="59.164784" lon="18.157886">
        <ele>0</ele>
        <time>2019-08-31T08:09:30Z</time>
      </trkpt>
      <trkpt lat="59.164818" lon="18.157894">
        <ele>63</ele>
        <time>2019-08-31T08:09:31Z</time>
      </trkpt>
      <trkpt lat="59.16485" lon="18.157902">
        <ele>0</ele>
        <time>2019-08-31T08:09:32Z</time>
      </trkpt>
      <trkpt lat="59.164883" lon="18.157911">
        <ele>63</ele>
        <time>2019-08-31T08:09:33Z</time>
      </trkpt>
      <trkpt lat="59.164914" lon="18.157913">
        <ele>63</ele>
        <time>2019-08-31T08:09:35Z</time>
      </trkpt>
      <trkpt lat="59.164942" lon="18.157916">
        <ele>63</ele>
        <time>2019-08-31T08:09:36Z</time>
      </trkpt>
      <trkpt lat="59.16497" lon="18.157922">
        <ele>63</ele>
        <time>2019-08-31T08:09:37Z</time>
      </trkpt>
      <trkpt lat="59.164998" lon="18.157925">
        <ele>63</ele>
        <time>2019-08-31T08:09:38Z</time>
      </trkpt>
      <trkpt lat="59.165022" lon="18.157924">
        <ele>63</ele>
        <time>2019-08-31T08:09:39Z</time>
      </trkpt>
      <trkpt lat="59.165046" lon="18.157923">
        <ele>63</ele>
        <time>2019-08-31T08:09:40Z</time>
      </trkpt>
      <trkpt lat="59.165071" lon="18.157929">
        <ele>62</ele>
        <time>2019-08-31T08:09:41Z</time>
      </trkpt>
      <trkpt lat="59.165096" lon="18.157935">
        <ele>62</ele>
        <time>2019-08-31T08:09:42Z</time>
      </trkpt>
      <trkpt lat="59.165117" lon="18.15794">
        <ele>62</ele>
        <time>2019-08-31T08:09:43Z</time>
      </trkpt>
      <trkpt lat="59.16514" lon="18.157947">
        <ele>0</ele>
        <time>2019-08-31T08:09:43Z</time>
      </trkpt>
      <trkpt lat="59.165163" lon="18.157959">
        <ele>62</ele>
        <time>2019-08-31T08:09:44Z</time>
      </trkpt>
      <trkpt lat="59.165184" lon="18.157977">
        <ele>62</ele>
        <time>2019-08-31T08:09:46Z</time>
      </trkpt>
      <trkpt lat="59.165206" lon="18.157998">
        <ele>0</ele>
        <time>2019-08-31T08:09:46Z</time>
      </trkpt>
      <trkpt lat="59.165233" lon="18.158014">
        <ele>62</ele>
        <time>2019-08-31T08:09:47Z</time>
      </trkpt>
      <trkpt lat="59.165268" lon="18.158025">
        <ele>62</ele>
        <time>2019-08-31T08:09:49Z</time>
      </trkpt>
      <trkpt lat="59.165304" lon="18.158035">
        <ele>0</ele>
        <time>2019-08-31T08:09:49Z</time>
      </trkpt>
      <trkpt lat="59.165339" lon="18.158049">
        <ele>61</ele>
        <time>2019-08-31T08:09:50Z</time>
      </trkpt>
      <trkpt lat="59.165373" lon="18.158063">
        <ele>61</ele>
        <time>2019-08-31T08:09:52Z</time>
      </trkpt>
      <trkpt lat="59.165406" lon="18.158069">
        <ele>61</ele>
        <time>2019-08-31T08:09:53Z</time>
      </trkpt>
      <trkpt lat="59.165435" lon="18.158073">
        <ele>61</ele>
        <time>2019-08-31T08:09:54Z</time>
      </trkpt>
      <trkpt lat="59.16546" lon="18.158074">
        <ele>0</ele>
        <time>2019-08-31T08:09:54Z</time>
      </trkpt>
      <trkpt lat="59.165482" lon="18.158069">
        <ele>61</ele>
        <time>2019-08-31T08:09:55Z</time>
      </trkpt>
      <trkpt lat="59.165503" lon="18.158067">
        <ele>61</ele>
        <time>2019-08-31T08:09:57Z</time>
      </trkpt>
      <trkpt lat="59.165524" lon="18.158071">
        <ele>0</ele>
        <time>2019-08-31T08:09:57Z</time>
      </trkpt>
      <trkpt lat="59.165548" lon="18.158076">
        <ele>61</ele>
        <time>2019-08-31T08:09:58Z</time>
      </trkpt>
      <trkpt lat="59.165572" lon="18.158084">
        <ele>61</ele>
        <time>2019-08-31T08:10:00Z</time>
      </trkpt>
      <trkpt lat="59.165592" lon="18.158091">
        <ele>61</ele>
        <time>2019-08-31T08:10:01Z</time>
      </trkpt>
      <trkpt lat="59.165614" lon="18.158094">
        <ele>61</ele>
        <time>2019-08-31T08:10:02Z</time>
      </trkpt>
      <trkpt lat="59.165636" lon="18.158097">
        <ele>60</ele>
        <time>2019-08-31T08:10:03Z</time>
      </trkpt>
      <trkpt lat="59.16566" lon="18.158098">
        <ele>60</ele>
        <time>2019-08-31T08:10:04Z</time>
      </trkpt>
      <trkpt lat="59.165689" lon="18.158099">
        <ele>0</ele>
        <time>2019-08-31T08:10:04Z</time>
      </trkpt>
      <trkpt lat="59.16572" lon="18.158099">
        <ele>60</ele>
        <time>2019-08-31T08:10:05Z</time>
      </trkpt>
      <trkpt lat="59.165752" lon="18.158101">
        <ele>60</ele>
        <time>2019-08-31T08:10:07Z</time>
      </trkpt>
      <trkpt lat="59.165784" lon="18.1581">
        <ele>60</ele>
        <time>2019-08-31T08:10:08Z</time>
      </trkpt>
      <trkpt lat="59.165815" lon="18.158096">
        <ele>0</ele>
        <time>2019-08-31T08:10:08Z</time>
      </trkpt>
      <trkpt lat="59.165846" lon="18.158096">
        <ele>60</ele>
        <time>2019-08-31T08:10:09Z</time>
      </trkpt>
      <trkpt lat="59.165873" lon="18.158091">
        <ele>60</ele>
        <time>2019-08-31T08:10:11Z</time>
      </trkpt>
      <trkpt lat="59.165896" lon="18.15808">
        <ele>60</ele>
        <time>2019-08-31T08:10:12Z</time>
      </trkpt>
      <trkpt lat="59.165919" lon="18.15807">
        <ele>60</ele>
        <time>2019-08-31T08:10:13Z</time>
      </trkpt>
      <trkpt lat="59.165942" lon="18.158061">
        <ele>60</ele>
        <time>2019-08-31T08:10:14Z</time>
      </trkpt>
      <trkpt lat="59.165965" lon="18.15805">
        <ele>60</ele>
        <time>2019-08-31T08:10:15Z</time>
      </trkpt>
      <trkpt lat="59.165988" lon="18.158038">
        <ele>0</ele>
        <time>2019-08-31T08:10:15Z</time>
      </trkpt>
      <trkpt lat="59.166009" lon="18.15802">
        <ele>60</ele>
        <time>2019-08-31T08:10:16Z</time>
      </trkpt>
      <trkpt lat="59.166028" lon="18.158001">
        <ele>60</ele>
        <time>2019-08-31T08:10:18Z</time>
      </trkpt>
      <trkpt lat="59.16605" lon="18.157984">
        <ele>0</ele>
        <time>2019-08-31T08:10:18Z</time>
      </trkpt>
      <trkpt lat="59.166073" lon="18.157967">
        <ele>60</ele>
        <time>2019-08-31T08:10:19Z</time>
      </trkpt>
      <trkpt lat="59.166094" lon="18.157951">
        <ele>60</ele>
        <time>2019-08-31T08:10:21Z</time>
      </trkpt>
      <trkpt lat="59.166116" lon="18.157935">
        <ele>60</ele>
        <time>2019-08-31T08:10:22Z</time>
      </trkpt>
      <trkpt lat="59.166135" lon="18.157915">
        <ele>60</ele>
        <time>2019-08-31T08:10:23Z</time>
      </trkpt>
      <trkpt lat="59.16615" lon="18.157887">
        <ele>60</ele>
        <time>2019-08-31T08:10:24Z</time>
      </trkpt>
      <trkpt lat="59.166159" lon="18.157847">
        <ele>60</ele>
        <time>2019-08-31T08:10:25Z</time>
      </trkpt>
      <trkpt lat="59.166167" lon="18.157812">
        <ele>0</ele>
        <time>2019-08-31T08:10:25Z</time>
      </trkpt>
      <trkpt lat="59.166174" lon="18.157774">
        <ele>60</ele>
        <time>2019-08-31T08:10:26Z</time>
      </trkpt>
      <trkpt lat="59.166187" lon="18.157739">
        <ele>0</ele>
        <time>2019-08-31T08:10:27Z</time>
      </trkpt>
      <trkpt lat="59.166206" lon="18.157716">
        <ele>60</ele>
        <time>2019-08-31T08:10:28Z</time>
      </trkpt>
      <trkpt lat="59.166229" lon="18.157705">
        <ele>61</ele>
        <time>2019-08-31T08:10:30Z</time>
      </trkpt>
      <trkpt lat="59.16625" lon="18.15769">
        <ele>61</ele>
        <time>2019-08-31T08:10:31Z</time>
      </trkpt>
      <trkpt lat="59.166271" lon="18.157671">
        <ele>61</ele>
        <time>2019-08-31T08:10:32Z</time>
      </trkpt>
      <trkpt lat="59.166291" lon="18.157655">
        <ele>61</ele>
        <time>2019-08-31T08:10:33Z</time>
      </trkpt>
      <trkpt lat="59.166313" lon="18.157637">
        <ele>61</ele>
        <time>2019-08-31T08:10:34Z</time>
      </trkpt>
      <trkpt lat="59.166334" lon="18.157617">
        <ele>0</ele>
        <time>2019-08-31T08:10:34Z</time>
      </trkpt>
      <trkpt lat="59.166355" lon="18.157603">
        <ele>61</ele>
        <time>2019-08-31T08:10:35Z</time>
      </trkpt>
      <trkpt lat="59.166372" lon="18.157584">
        <ele>61</ele>
        <time>2019-08-31T08:10:37Z</time>
      </trkpt>
      <trkpt lat="59.16639" lon="18.15757">
        <ele>0</ele>
        <time>2019-08-31T08:10:37Z</time>
      </trkpt>
      <trkpt lat="59.166408" lon="18.157553">
        <ele>62</ele>
        <time>2019-08-31T08:10:38Z</time>
      </trkpt>
      <trkpt lat="59.166425" lon="18.157533">
        <ele>62</ele>
        <time>2019-08-31T08:10:40Z</time>
      </trkpt>
      <trkpt lat="59.166442" lon="18.157507">
        <ele>62</ele>
        <time>2019-08-31T08:10:41Z</time>
      </trkpt>
      <trkpt lat="59.166461" lon="18.157488">
        <ele>62</ele>
        <time>2019-08-31T08:10:42Z</time>
      </trkpt>
      <trkpt lat="59.166483" lon="18.157475">
        <ele>62</ele>
        <time>2019-08-31T08:10:43Z</time>
      </trkpt>
      <trkpt lat="59.166501" lon="18.157459">
        <ele>63</ele>
        <time>2019-08-31T08:10:44Z</time>
      </trkpt>
      <trkpt lat="59.166519" lon="18.15744">
        <ele>63</ele>
        <time>2019-08-31T08:10:45Z</time>
      </trkpt>
      <trkpt lat="59.166537" lon="18.15743">
        <ele>0</ele>
        <time>2019-08-31T08:10:45Z</time>
      </trkpt>
      <trkpt lat="59.166554" lon="18.157419">
        <ele>63</ele>
        <time>2019-08-31T08:10:46Z</time>
      </trkpt>
      <trkpt lat="59.16657" lon="18.157397">
        <ele>63</ele>
        <time>2019-08-31T08:10:47Z</time>
      </trkpt>
      <trkpt lat="59.166588" lon="18.157373">
        <ele>0</ele>
        <time>2019-08-31T08:10:48Z</time>
      </trkpt>
      <trkpt lat="59.166608" lon="18.157348">
        <ele>64</ele>
        <time>2019-08-31T08:10:49Z</time>
      </trkpt>
      <trkpt lat="59.166626" lon="18.157317">
        <ele>65</ele>
        <time>2019-08-31T08:10:51Z</time>
      </trkpt>
      <trkpt lat="59.166645" lon="18.15729">
        <ele>0</ele>
        <time>2019-08-31T08:10:51Z</time>
      </trkpt>
      <trkpt lat="59.166664" lon="18.157263">
        <ele>65</ele>
        <time>2019-08-31T08:10:52Z</time>
      </trkpt>
      <trkpt lat="59.166684" lon="18.157234">
        <ele>65</ele>
        <time>2019-08-31T08:10:54Z</time>
      </trkpt>
      <trkpt lat="59.166702" lon="18.157207">
        <ele>65</ele>
        <time>2019-08-31T08:10:55Z</time>
      </trkpt>
      <trkpt lat="59.166719" lon="18.157178">
        <ele>66</ele>
        <time>2019-08-31T08:10:56Z</time>
      </trkpt>
      <trkpt lat="59.166737" lon="18.157152">
        <ele>66</ele>
        <time>2019-08-31T08:10:57Z</time>
      </trkpt>
      <trkpt lat="59.166754" lon="18.157132">
        <ele>66</ele>
        <time>2019-08-31T08:10:58Z</time>
      </trkpt>
      <trkpt lat="59.166774" lon="18.157111">
        <ele>66</ele>
        <time>2019-08-31T08:10:59Z</time>
      </trkpt>
      <trkpt lat="59.166795" lon="18.157089">
        <ele>0</ele>
        <time>2019-08-31T08:10:59Z</time>
      </trkpt>
      <trkpt lat="59.166814" lon="18.157065">
        <ele>66</ele>
        <time>2019-08-31T08:11:00Z</time>
      </trkpt>
      <trkpt lat="59.166834" lon="18.157044">
        <ele>66</ele>
        <time>2019-08-31T08:11:02Z</time>
      </trkpt>
      <trkpt lat="59.166853" lon="18.157025">
        <ele>66</ele>
        <time>2019-08-31T08:11:03Z</time>
      </trkpt>
      <trkpt lat="59.166871" lon="18.157006">
        <ele>66</ele>
        <time>2019-08-31T08:11:04Z</time>
      </trkpt>
      <trkpt lat="59.166891" lon="18.156986">
        <ele>66</ele>
        <time>2019-08-31T08:11:05Z</time>
      </trkpt>
      <trkpt lat="59.166912" lon="18.156961">
        <ele>0</ele>
        <time>2019-08-31T08:11:05Z</time>
      </trkpt>
      <trkpt lat="59.166933" lon="18.156937">
        <ele>66</ele>
        <time>2019-08-31T08:11:06Z</time>
      </trkpt>
      <trkpt lat="59.166953" lon="18.156904">
        <ele>0</ele>
        <time>2019-08-31T08:11:07Z</time>
      </trkpt>
      <trkpt lat="59.166975" lon="18.156868">
        <ele>66</ele>
        <time>2019-08-31T08:11:08Z</time>
      </trkpt>
      <trkpt lat="59.166996" lon="18.156838">
        <ele>0</ele>
        <time>2019-08-31T08:11:09Z</time>
      </trkpt>
      <trkpt lat="59.167017" lon="18.15681">
        <ele>65</ele>
        <time>2019-08-31T08:11:10Z</time>
      </trkpt>
      <trkpt lat="59.167038" lon="18.156786">
        <ele>65</ele>
        <time>2019-08-31T08:11:12Z</time>
      </trkpt>
      <trkpt lat="59.16706" lon="18.156766">
        <ele>65</ele>
        <time>2019-08-31T08:11:13Z</time>
      </trkpt>
      <trkpt lat="59.167084" lon="18.156737">
        <ele>65</ele>
        <time>2019-08-31T08:11:14Z</time>
      </trkpt>
      <trkpt lat="59.167107" lon="18.15671">
        <ele>65</ele>
        <time>2019-08-31T08:11:15Z</time>
      </trkpt>
      <trkpt lat="59.167129" lon="18.156681">
        <ele>65</ele>
        <time>2019-08-31T08:11:16Z</time>
      </trkpt>
      <trkpt lat="59.167153" lon="18.156655">
        <ele>65</ele>
        <time>2019-08-31T08:11:17Z</time>
      </trkpt>
      <trkpt lat="59.167173" lon="18.156627">
        <ele>0</ele>
        <time>2019-08-31T08:11:17Z</time>
      </trkpt>
      <trkpt lat="59.167195" lon="18.1566">
        <ele>65</ele>
        <time>2019-08-31T08:11:18Z</time>
      </trkpt>
      <trkpt lat="59.167217" lon="18.156574">
        <ele>64</ele>
        <time>2019-08-31T08:11:20Z</time>
      </trkpt>
      <trkpt lat="59.167238" lon="18.156548">
        <ele>64</ele>
        <time>2019-08-31T08:11:21Z</time>
      </trkpt>
      <trkpt lat="59.167259" lon="18.15652">
        <ele>64</ele>
        <time>2019-08-31T08:11:22Z</time>
      </trkpt>
      <trkpt lat="59.167278" lon="18.156492">
        <ele>64</ele>
        <time>2019-08-31T08:11:23Z</time>
      </trkpt>
      <trkpt lat="59.167298" lon="18.156469">
        <ele>64</ele>
        <time>2019-08-31T08:11:24Z</time>
      </trkpt>
      <trkpt lat="59.167318" lon="18.156445">
        <ele>0</ele>
        <time>2019-08-31T08:11:24Z</time>
      </trkpt>
      <trkpt lat="59.167334" lon="18.156419">
        <ele>64</ele>
        <time>2019-08-31T08:11:25Z</time>
      </trkpt>
      <trkpt lat="59.167348" lon="18.156356">
        <ele>65</ele>
        <time>2019-08-31T08:11:28Z</time>
      </trkpt>
      <trkpt lat="59.167345" lon="18.156317">
        <ele>65</ele>
        <time>2019-08-31T08:11:29Z</time>
      </trkpt>
      <trkpt lat="59.167341" lon="18.156274">
        <ele>65</ele>
        <time>2019-08-31T08:11:30Z</time>
      </trkpt>
      <trkpt lat="59.167334" lon="18.156234">
        <ele>65</ele>
        <time>2019-08-31T08:11:31Z</time>
      </trkpt>
      <trkpt lat="59.167327" lon="18.156198">
        <ele>0</ele>
        <time>2019-08-31T08:11:31Z</time>
      </trkpt>
      <trkpt lat="59.167321" lon="18.156163">
        <ele>65</ele>
        <time>2019-08-31T08:11:32Z</time>
      </trkpt>
      <trkpt lat="59.167316" lon="18.156125">
        <ele>65</ele>
        <time>2019-08-31T08:11:34Z</time>
      </trkpt>
      <trkpt lat="59.167308" lon="18.156088">
        <ele>66</ele>
        <time>2019-08-31T08:11:35Z</time>
      </trkpt>
      <trkpt lat="59.167301" lon="18.156051">
        <ele>65</ele>
        <time>2019-08-31T08:11:36Z</time>
      </trkpt>
      <trkpt lat="59.167296" lon="18.156011">
        <ele>65</ele>
        <time>2019-08-31T08:11:37Z</time>
      </trkpt>
      <trkpt lat="59.167294" lon="18.155964">
        <ele>0</ele>
        <time>2019-08-31T08:11:37Z</time>
      </trkpt>
      <trkpt lat="59.167291" lon="18.155921">
        <ele>65</ele>
        <time>2019-08-31T08:11:38Z</time>
      </trkpt>
      <trkpt lat="59.167289" lon="18.155876">
        <ele>65</ele>
        <time>2019-08-31T08:11:40Z</time>
      </trkpt>
      <trkpt lat="59.167292" lon="18.155831">
        <ele>0</ele>
        <time>2019-08-31T08:11:40Z</time>
      </trkpt>
      <trkpt lat="59.167293" lon="18.155783">
        <ele>65</ele>
        <time>2019-08-31T08:11:41Z</time>
      </trkpt>
      <trkpt lat="59.167292" lon="18.155734">
        <ele>65</ele>
        <time>2019-08-31T08:11:43Z</time>
      </trkpt>
      <trkpt lat="59.167291" lon="18.155689">
        <ele>0</ele>
        <time>2019-08-31T08:11:43Z</time>
      </trkpt>
      <trkpt lat="59.16729" lon="18.155646">
        <ele>65</ele>
        <time>2019-08-31T08:11:44Z</time>
      </trkpt>
      <trkpt lat="59.167291" lon="18.155608">
        <ele>0</ele>
        <time>2019-08-31T08:11:45Z</time>
      </trkpt>
      <trkpt lat="59.167288" lon="18.155565">
        <ele>65</ele>
        <time>2019-08-31T08:11:46Z</time>
      </trkpt>
      <trkpt lat="59.167285" lon="18.155521">
        <ele>65</ele>
        <time>2019-08-31T08:11:48Z</time>
      </trkpt>
      <trkpt lat="59.167283" lon="18.155471">
        <ele>0</ele>
        <time>2019-08-31T08:11:48Z</time>
      </trkpt>
      <trkpt lat="59.167282" lon="18.155421">
        <ele>65</ele>
        <time>2019-08-31T08:11:49Z</time>
      </trkpt>
      <trkpt lat="59.167279" lon="18.155375">
        <ele>65</ele>
        <time>2019-08-31T08:11:51Z</time>
      </trkpt>
      <trkpt lat="59.167276" lon="18.155326">
        <ele>65</ele>
        <time>2019-08-31T08:11:52Z</time>
      </trkpt>
      <trkpt lat="59.167276" lon="18.155279">
        <ele>66</ele>
        <time>2019-08-31T08:11:53Z</time>
      </trkpt>
      <trkpt lat="59.167278" lon="18.155231">
        <ele>0</ele>
        <time>2019-08-31T08:11:53Z</time>
      </trkpt>
      <trkpt lat="59.167279" lon="18.155187">
        <ele>65</ele>
        <time>2019-08-31T08:11:54Z</time>
      </trkpt>
      <trkpt lat="59.167282" lon="18.155142">
        <ele>65</ele>
        <time>2019-08-31T08:11:56Z</time>
      </trkpt>
      <trkpt lat="59.167285" lon="18.155095">
        <ele>65</ele>
        <time>2019-08-31T08:11:57Z</time>
      </trkpt>
      <trkpt lat="59.167289" lon="18.155047">
        <ele>65</ele>
        <time>2019-08-31T08:11:58Z</time>
      </trkpt>
      <trkpt lat="59.167292" lon="18.154998">
        <ele>66</ele>
        <time>2019-08-31T08:11:59Z</time>
      </trkpt>
      <trkpt lat="59.167298" lon="18.154951">
        <ele>66</ele>
        <time>2019-08-31T08:12:00Z</time>
      </trkpt>
      <trkpt lat="59.167303" lon="18.154903">
        <ele>66</ele>
        <time>2019-08-31T08:12:01Z</time>
      </trkpt>
      <trkpt lat="59.167305" lon="18.154854">
        <ele>0</ele>
        <time>2019-08-31T08:12:01Z</time>
      </trkpt>
      <trkpt lat="59.167308" lon="18.154807">
        <ele>66</ele>
        <time>2019-08-31T08:12:02Z</time>
      </trkpt>
      <trkpt lat="59.167311" lon="18.154758">
        <ele>66</ele>
        <time>2019-08-31T08:12:03Z</time>
      </trkpt>
      <trkpt lat="59.167312" lon="18.15471">
        <ele>67</ele>
        <time>2019-08-31T08:12:05Z</time>
      </trkpt>
      <trkpt lat="59.167311" lon="18.154664">
        <ele>67</ele>
        <time>2019-08-31T08:12:06Z</time>
      </trkpt>
      <trkpt lat="59.167311" lon="18.15462">
        <ele>68</ele>
        <time>2019-08-31T08:12:07Z</time>
      </trkpt>
      <trkpt lat="59.167312" lon="18.154575">
        <ele>68</ele>
        <time>2019-08-31T08:12:08Z</time>
      </trkpt>
      <trkpt lat="59.167313" lon="18.154528">
        <ele>68</ele>
        <time>2019-08-31T08:12:09Z</time>
      </trkpt>
      <trkpt lat="59.167314" lon="18.154482">
        <ele>0</ele>
        <time>2019-08-31T08:12:09Z</time>
      </trkpt>
      <trkpt lat="59.167314" lon="18.154437">
        <ele>69</ele>
        <time>2019-08-31T08:12:10Z</time>
      </trkpt>
      <trkpt lat="59.167312" lon="18.154387">
        <ele>69</ele>
        <time>2019-08-31T08:12:12Z</time>
      </trkpt>
      <trkpt lat="59.167315" lon="18.154335">
        <ele>0</ele>
        <time>2019-08-31T08:12:12Z</time>
      </trkpt>
      <trkpt lat="59.167318" lon="18.154284">
        <ele>69</ele>
        <time>2019-08-31T08:12:13Z</time>
      </trkpt>
      <trkpt lat="59.167323" lon="18.154235">
        <ele>70</ele>
        <time>2019-08-31T08:12:14Z</time>
      </trkpt>
      <trkpt lat="59.167327" lon="18.154187">
        <ele>70</ele>
        <time>2019-08-31T08:12:16Z</time>
      </trkpt>
      <trkpt lat="59.16733" lon="18.154137">
        <ele>71</ele>
        <time>2019-08-31T08:12:17Z</time>
      </trkpt>
      <trkpt lat="59.167334" lon="18.154088">
        <ele>71</ele>
        <time>2019-08-31T08:12:18Z</time>
      </trkpt>
      <trkpt lat="59.167338" lon="18.154041">
        <ele>71</ele>
        <time>2019-08-31T08:12:19Z</time>
      </trkpt>
      <trkpt lat="59.167341" lon="18.153993">
        <ele>72</ele>
        <time>2019-08-31T08:12:20Z</time>
      </trkpt>
      <trkpt lat="59.167342" lon="18.153945">
        <ele>0</ele>
        <time>2019-08-31T08:12:20Z</time>
      </trkpt>
      <trkpt lat="59.167346" lon="18.153896">
        <ele>72</ele>
        <time>2019-08-31T08:12:21Z</time>
      </trkpt>
      <trkpt lat="59.167349" lon="18.153847">
        <ele>73</ele>
        <time>2019-08-31T08:12:22Z</time>
      </trkpt>
      <trkpt lat="59.167353" lon="18.153801">
        <ele>73</ele>
        <time>2019-08-31T08:12:24Z</time>
      </trkpt>
      <trkpt lat="59.167356" lon="18.153755">
        <ele>74</ele>
        <time>2019-08-31T08:12:25Z</time>
      </trkpt>
      <trkpt lat="59.167357" lon="18.153711">
        <ele>74</ele>
        <time>2019-08-31T08:12:26Z</time>
      </trkpt>
      <trkpt lat="59.167363" lon="18.153668">
        <ele>74</ele>
        <time>2019-08-31T08:12:27Z</time>
      </trkpt>
      <trkpt lat="59.167372" lon="18.153624">
        <ele>74</ele>
        <time>2019-08-31T08:12:28Z</time>
      </trkpt>
      <trkpt lat="59.167379" lon="18.153583">
        <ele>0</ele>
        <time>2019-08-31T08:12:28Z</time>
      </trkpt>
      <trkpt lat="59.167385" lon="18.153541">
        <ele>74</ele>
        <time>2019-08-31T08:12:29Z</time>
      </trkpt>
      <trkpt lat="59.167392" lon="18.153499">
        <ele>74</ele>
        <time>2019-08-31T08:12:31Z</time>
      </trkpt>
      <trkpt lat="59.1674" lon="18.153457">
        <ele>0</ele>
        <time>2019-08-31T08:12:31Z</time>
      </trkpt>
      <trkpt lat="59.167408" lon="18.153416">
        <ele>74</ele>
        <time>2019-08-31T08:12:32Z</time>
      </trkpt>
      <trkpt lat="59.167418" lon="18.153371">
        <ele>74</ele>
        <time>2019-08-31T08:12:34Z</time>
      </trkpt>
      <trkpt lat="59.167425" lon="18.153321">
        <ele>0</ele>
        <time>2019-08-31T08:12:34Z</time>
      </trkpt>
      <trkpt lat="59.167433" lon="18.153273">
        <ele>74</ele>
        <time>2019-08-31T08:12:35Z</time>
      </trkpt>
      <trkpt lat="59.167443" lon="18.153232">
        <ele>74</ele>
        <time>2019-08-31T08:12:37Z</time>
      </trkpt>
      <trkpt lat="59.167453" lon="18.15319">
        <ele>0</ele>
        <time>2019-08-31T08:12:37Z</time>
      </trkpt>
      <trkpt lat="59.167463" lon="18.153147">
        <ele>74</ele>
        <time>2019-08-31T08:12:38Z</time>
      </trkpt>
      <trkpt lat="59.167471" lon="18.153105">
        <ele>74</ele>
        <time>2019-08-31T08:12:40Z</time>
      </trkpt>
      <trkpt lat="59.167478" lon="18.153064">
        <ele>0</ele>
        <time>2019-08-31T08:12:40Z</time>
      </trkpt>
      <trkpt lat="59.167484" lon="18.153022">
        <ele>74</ele>
        <time>2019-08-31T08:12:41Z</time>
      </trkpt>
      <trkpt lat="59.167495" lon="18.152984">
        <ele>0</ele>
        <time>2019-08-31T08:12:42Z</time>
      </trkpt>
      <trkpt lat="59.167505" lon="18.152943">
        <ele>73</ele>
        <time>2019-08-31T08:12:43Z</time>
      </trkpt>
      <trkpt lat="59.167519" lon="18.152908">
        <ele>72</ele>
        <time>2019-08-31T08:12:45Z</time>
      </trkpt>
      <trkpt lat="59.167537" lon="18.152875">
        <ele>72</ele>
        <time>2019-08-31T08:12:46Z</time>
      </trkpt>
      <trkpt lat="59.16756" lon="18.152844">
        <ele>71</ele>
        <time>2019-08-31T08:12:47Z</time>
      </trkpt>
      <trkpt lat="59.167582" lon="18.152817">
        <ele>71</ele>
        <time>2019-08-31T08:12:48Z</time>
      </trkpt>
      <trkpt lat="59.1676" lon="18.152784">
        <ele>71</ele>
        <time>2019-08-31T08:12:49Z</time>
      </trkpt>
      <trkpt lat="59.167615" lon="18.152746">
        <ele>71</ele>
        <time>2019-08-31T08:12:50Z</time>
      </trkpt>
      <trkpt lat="59.167629" lon="18.152711">
        <ele>0</ele>
        <time>2019-08-31T08:12:50Z</time>
      </trkpt>
      <trkpt lat="59.167645" lon="18.152674">
        <ele>71</ele>
        <time>2019-08-31T08:12:51Z</time>
      </trkpt>
      <trkpt lat="59.167658" lon="18.152635">
        <ele>71</ele>
        <time>2019-08-31T08:12:53Z</time>
      </trkpt>
      <trkpt lat="59.16767" lon="18.152589">
        <ele>0</ele>
        <time>2019-08-31T08:12:53Z</time>
      </trkpt>
      <trkpt lat="59.167681" lon="18.152546">
        <ele>71</ele>
        <time>2019-08-31T08:12:54Z</time>
      </trkpt>
      <trkpt lat="59.167693" lon="18.152501">
        <ele>71</ele>
        <time>2019-08-31T08:12:55Z</time>
      </trkpt>
      <trkpt lat="59.167703" lon="18.152456">
        <ele>70</ele>
        <time>2019-08-31T08:12:57Z</time>
      </trkpt>
      <trkpt lat="59.167715" lon="18.152416">
        <ele>70</ele>
        <time>2019-08-31T08:12:58Z</time>
      </trkpt>
      <trkpt lat="59.167725" lon="18.152372">
        <ele>70</ele>
        <time>2019-08-31T08:12:59Z</time>
      </trkpt>
      <trkpt lat="59.167732" lon="18.152326">
        <ele>0</ele>
        <time>2019-08-31T08:12:59Z</time>
      </trkpt>
      <trkpt lat="59.167739" lon="18.15228">
        <ele>70</ele>
        <time>2019-08-31T08:13:00Z</time>
      </trkpt>
      <trkpt lat="59.167746" lon="18.152233">
        <ele>70</ele>
        <time>2019-08-31T08:13:02Z</time>
      </trkpt>
      <trkpt lat="59.167753" lon="18.152188">
        <ele>70</ele>
        <time>2019-08-31T08:13:02Z</time>
      </trkpt>
      <trkpt lat="59.167759" lon="18.152142">
        <ele>70</ele>
        <time>2019-08-31T08:13:03Z</time>
      </trkpt>
      <trkpt lat="59.167766" lon="18.1521">
        <ele>71</ele>
        <time>2019-08-31T08:13:05Z</time>
      </trkpt>
      <trkpt lat="59.167774" lon="18.15205">
        <ele>70</ele>
        <time>2019-08-31T08:13:06Z</time>
      </trkpt>
      <trkpt lat="59.167782" lon="18.152002">
        <ele>70</ele>
        <time>2019-08-31T08:13:07Z</time>
      </trkpt>
      <trkpt lat="59.167792" lon="18.151958">
        <ele>70</ele>
        <time>2019-08-31T08:13:08Z</time>
      </trkpt>
      <trkpt lat="59.1678" lon="18.151914">
        <ele>70</ele>
        <time>2019-08-31T08:13:09Z</time>
      </trkpt>
      <trkpt lat="59.167807" lon="18.15187">
        <ele>70</ele>
        <time>2019-08-31T08:13:10Z</time>
      </trkpt>
      <trkpt lat="59.167813" lon="18.151824">
        <ele>0</ele>
        <time>2019-08-31T08:13:10Z</time>
      </trkpt>
      <trkpt lat="59.167819" lon="18.151782">
        <ele>70</ele>
        <time>2019-08-31T08:13:11Z</time>
      </trkpt>
      <trkpt lat="59.167827" lon="18.151738">
        <ele>70</ele>
        <time>2019-08-31T08:13:13Z</time>
      </trkpt>
      <trkpt lat="59.167835" lon="18.151692">
        <ele>0</ele>
        <time>2019-08-31T08:13:13Z</time>
      </trkpt>
      <trkpt lat="59.167844" lon="18.151644">
        <ele>70</ele>
        <time>2019-08-31T08:13:14Z</time>
      </trkpt>
      <trkpt lat="59.16785" lon="18.151597">
        <ele>0</ele>
        <time>2019-08-31T08:13:15Z</time>
      </trkpt>
      <trkpt lat="59.167856" lon="18.15155">
        <ele>70</ele>
        <time>2019-08-31T08:13:16Z</time>
      </trkpt>
      <trkpt lat="59.167863" lon="18.151504">
        <ele>70</ele>
        <time>2019-08-31T08:13:18Z</time>
      </trkpt>
      <trkpt lat="59.167872" lon="18.151462">
        <ele>0</ele>
        <time>2019-08-31T08:13:18Z</time>
      </trkpt>
      <trkpt lat="59.167881" lon="18.151416">
        <ele>70</ele>
        <time>2019-08-31T08:13:19Z</time>
      </trkpt>
      <trkpt lat="59.167887" lon="18.151371">
        <ele>0</ele>
        <time>2019-08-31T08:13:20Z</time>
      </trkpt>
      <trkpt lat="59.167897" lon="18.151326">
        <ele>70</ele>
        <time>2019-08-31T08:13:21Z</time>
      </trkpt>
      <trkpt lat="59.167903" lon="18.151278">
        <ele>70</ele>
        <time>2019-08-31T08:13:23Z</time>
      </trkpt>
      <trkpt lat="59.16791" lon="18.151228">
        <ele>70</ele>
        <time>2019-08-31T08:13:24Z</time>
      </trkpt>
      <trkpt lat="59.167917" lon="18.15118">
        <ele>70</ele>
        <time>2019-08-31T08:13:25Z</time>
      </trkpt>
      <trkpt lat="59.167925" lon="18.151127">
        <ele>70</ele>
        <time>2019-08-31T08:13:26Z</time>
      </trkpt>
      <trkpt lat="59.167931" lon="18.151076">
        <ele>70</ele>
        <time>2019-08-31T08:13:27Z</time>
      </trkpt>
      <trkpt lat="59.167938" lon="18.151032">
        <ele>70</ele>
        <time>2019-08-31T08:13:28Z</time>
      </trkpt>
      <trkpt lat="59.167947" lon="18.150986">
        <ele>0</ele>
        <time>2019-08-31T08:13:28Z</time>
      </trkpt>
      <trkpt lat="59.167958" lon="18.150942">
        <ele>70</ele>
        <time>2019-08-31T08:13:29Z</time>
      </trkpt>
      <trkpt lat="59.167968" lon="18.150899">
        <ele>70</ele>
        <time>2019-08-31T08:13:31Z</time>
      </trkpt>
      <trkpt lat="59.167977" lon="18.150856">
        <ele>0</ele>
        <time>2019-08-31T08:13:31Z</time>
      </trkpt>
      <trkpt lat="59.167986" lon="18.150816">
        <ele>70</ele>
        <time>2019-08-31T08:13:32Z</time>
      </trkpt>
      <trkpt lat="59.167998" lon="18.150772">
        <ele>70</ele>
        <time>2019-08-31T08:13:34Z</time>
      </trkpt>
      <trkpt lat="59.168008" lon="18.150726">
        <ele>70</ele>
        <time>2019-08-31T08:13:35Z</time>
      </trkpt>
      <trkpt lat="59.168017" lon="18.150682">
        <ele>0</ele>
        <time>2019-08-31T08:13:35Z</time>
      </trkpt>
      <trkpt lat="59.168026" lon="18.150636">
        <ele>70</ele>
        <time>2019-08-31T08:13:36Z</time>
      </trkpt>
      <trkpt lat="59.168037" lon="18.150588">
        <ele>0</ele>
        <time>2019-08-31T08:13:37Z</time>
      </trkpt>
      <trkpt lat="59.168049" lon="18.15054">
        <ele>70</ele>
        <time>2019-08-31T08:13:38Z</time>
      </trkpt>
      <trkpt lat="59.168061" lon="18.150496">
        <ele>70</ele>
        <time>2019-08-31T08:13:40Z</time>
      </trkpt>
      <trkpt lat="59.168074" lon="18.150452">
        <ele>70</ele>
        <time>2019-08-31T08:13:41Z</time>
      </trkpt>
      <trkpt lat="59.168085" lon="18.150409">
        <ele>70</ele>
        <time>2019-08-31T08:13:42Z</time>
      </trkpt>
      <trkpt lat="59.168097" lon="18.150368">
        <ele>70</ele>
        <time>2019-08-31T08:13:43Z</time>
      </trkpt>
      <trkpt lat="59.16811" lon="18.150322">
        <ele>70</ele>
        <time>2019-08-31T08:13:44Z</time>
      </trkpt>
      <trkpt lat="59.168123" lon="18.15028">
        <ele>70</ele>
        <time>2019-08-31T08:13:45Z</time>
      </trkpt>
      <trkpt lat="59.168137" lon="18.150238">
        <ele>70</ele>
        <time>2019-08-31T08:13:46Z</time>
      </trkpt>
      <trkpt lat="59.16815" lon="18.1502">
        <ele>70</ele>
        <time>2019-08-31T08:13:47Z</time>
      </trkpt>
      <trkpt lat="59.168165" lon="18.150158">
        <ele>0</ele>
        <time>2019-08-31T08:13:47Z</time>
      </trkpt>
      <trkpt lat="59.168179" lon="18.150116">
        <ele>69</ele>
        <time>2019-08-31T08:13:48Z</time>
      </trkpt>
      <trkpt lat="59.168193" lon="18.150074">
        <ele>69</ele>
        <time>2019-08-31T08:13:50Z</time>
      </trkpt>
      <trkpt lat="59.168209" lon="18.150032">
        <ele>69</ele>
        <time>2019-08-31T08:13:51Z</time>
      </trkpt>
      <trkpt lat="59.168225" lon="18.149993">
        <ele>69</ele>
        <time>2019-08-31T08:13:52Z</time>
      </trkpt>
      <trkpt lat="59.168242" lon="18.149953">
        <ele>69</ele>
        <time>2019-08-31T08:13:53Z</time>
      </trkpt>
      <trkpt lat="59.168257" lon="18.14991">
        <ele>69</ele>
        <time>2019-08-31T08:13:54Z</time>
      </trkpt>
      <trkpt lat="59.168273" lon="18.14987">
        <ele>0</ele>
        <time>2019-08-31T08:13:54Z</time>
      </trkpt>
      <trkpt lat="59.168289" lon="18.149832">
        <ele>69</ele>
        <time>2019-08-31T08:13:55Z</time>
      </trkpt>
      <trkpt lat="59.168307" lon="18.149796">
        <ele>0</ele>
        <time>2019-08-31T08:13:56Z</time>
      </trkpt>
      <trkpt lat="59.168325" lon="18.14976">
        <ele>68</ele>
        <time>2019-08-31T08:13:57Z</time>
      </trkpt>
      <trkpt lat="59.168343" lon="18.149724">
        <ele>68</ele>
        <time>2019-08-31T08:13:59Z</time>
      </trkpt>
      <trkpt lat="59.168361" lon="18.14969">
        <ele>68</ele>
        <time>2019-08-31T08:14:00Z</time>
      </trkpt>
      <trkpt lat="59.168381" lon="18.149658">
        <ele>68</ele>
        <time>2019-08-31T08:14:01Z</time>
      </trkpt>
      <trkpt lat="59.168401" lon="18.149627">
        <ele>68</ele>
        <time>2019-08-31T08:14:02Z</time>
      </trkpt>
      <trkpt lat="59.168419" lon="18.149597">
        <ele>68</ele>
        <time>2019-08-31T08:14:03Z</time>
      </trkpt>
      <trkpt lat="59.168439" lon="18.149568">
        <ele>0</ele>
        <time>2019-08-31T08:14:03Z</time>
      </trkpt>
      <trkpt lat="59.168458" lon="18.149533">
        <ele>68</ele>
        <time>2019-08-31T08:14:04Z</time>
      </trkpt>
      <trkpt lat="59.168475" lon="18.14949">
        <ele>68</ele>
        <time>2019-08-31T08:14:06Z</time>
      </trkpt>
      <trkpt lat="59.168493" lon="18.149452">
        <ele>0</ele>
        <time>2019-08-31T08:14:06Z</time>
      </trkpt>
      <trkpt lat="59.168513" lon="18.149417">
        <ele>67</ele>
        <time>2019-08-31T08:14:07Z</time>
      </trkpt>
      <trkpt lat="59.168534" lon="18.149386">
        <ele>67</ele>
        <time>2019-08-31T08:14:09Z</time>
      </trkpt>
      <trkpt lat="59.168557" lon="18.149361">
        <ele>67</ele>
        <time>2019-08-31T08:14:10Z</time>
      </trkpt>
      <trkpt lat="59.16858" lon="18.149336">
        <ele>67</ele>
        <time>2019-08-31T08:14:11Z</time>
      </trkpt>
      <trkpt lat="59.168602" lon="18.14931">
        <ele>67</ele>
        <time>2019-08-31T08:14:12Z</time>
      </trkpt>
      <trkpt lat="59.168627" lon="18.149289">
        <ele>0</ele>
        <time>2019-08-31T08:14:12Z</time>
      </trkpt>
      <trkpt lat="59.168652" lon="18.149271">
        <ele>67</ele>
        <time>2019-08-31T08:14:13Z</time>
      </trkpt>
      <trkpt lat="59.168675" lon="18.149251">
        <ele>67</ele>
        <time>2019-08-31T08:14:14Z</time>
      </trkpt>
      <trkpt lat="59.168698" lon="18.14923">
        <ele>0</ele>
        <time>2019-08-31T08:14:15Z</time>
      </trkpt>
      <trkpt lat="59.16872" lon="18.149207">
        <ele>66</ele>
        <time>2019-08-31T08:14:16Z</time>
      </trkpt>
      <trkpt lat="59.168743" lon="18.149187">
        <ele>0</ele>
        <time>2019-08-31T08:14:17Z</time>
      </trkpt>
      <trkpt lat="59.168765" lon="18.149165">
        <ele>66</ele>
        <time>2019-08-31T08:14:18Z</time>
      </trkpt>
      <trkpt lat="59.168787" lon="18.149141">
        <ele>66</ele>
        <time>2019-08-31T08:14:20Z</time>
      </trkpt>
      <trkpt lat="59.16881" lon="18.149122">
        <ele>66</ele>
        <time>2019-08-31T08:14:21Z</time>
      </trkpt>
      <trkpt lat="59.168833" lon="18.149103">
        <ele>66</ele>
        <time>2019-08-31T08:14:22Z</time>
      </trkpt>
      <trkpt lat="59.168855" lon="18.149079">
        <ele>66</ele>
        <time>2019-08-31T08:14:23Z</time>
      </trkpt>
      <trkpt lat="59.168877" lon="18.149055">
        <ele>66</ele>
        <time>2019-08-31T08:14:24Z</time>
      </trkpt>
      <trkpt lat="59.168899" lon="18.149031">
        <ele>66</ele>
        <time>2019-08-31T08:14:25Z</time>
      </trkpt>
      <trkpt lat="59.168923" lon="18.149008">
        <ele>0</ele>
        <time>2019-08-31T08:14:25Z</time>
      </trkpt>
      <trkpt lat="59.168945" lon="18.148986">
        <ele>66</ele>
        <time>2019-08-31T08:14:26Z</time>
      </trkpt>
      <trkpt lat="59.168967" lon="18.148965">
        <ele>66</ele>
        <time>2019-08-31T08:14:28Z</time>
      </trkpt>
      <trkpt lat="59.16899" lon="18.148946">
        <ele>0</ele>
        <time>2019-08-31T08:14:28Z</time>
      </trkpt>
      <trkpt lat="59.169012" lon="18.148929">
        <ele>66</ele>
        <time>2019-08-31T08:14:29Z</time>
      </trkpt>
      <trkpt lat="59.169035" lon="18.148913">
        <ele>65</ele>
        <time>2019-08-31T08:14:31Z</time>
      </trkpt>
      <trkpt lat="59.16906" lon="18.148901">
        <ele>66</ele>
        <time>2019-08-31T08:14:32Z</time>
      </trkpt>
      <trkpt lat="59.169082" lon="18.148885">
        <ele>66</ele>
        <time>2019-08-31T08:14:33Z</time>
      </trkpt>
      <trkpt lat="59.169101" lon="18.148872">
        <ele>66</ele>
        <time>2019-08-31T08:14:34Z</time>
      </trkpt>
      <trkpt lat="59.169118" lon="18.148851">
        <ele>0</ele>
        <time>2019-08-31T08:14:34Z</time>
      </trkpt>
      <trkpt lat="59.169137" lon="18.148823">
        <ele>66</ele>
        <time>2019-08-31T08:14:36Z</time>
      </trkpt>
      <trkpt lat="59.169154" lon="18.148796">
        <ele>0</ele>
        <time>2019-08-31T08:14:36Z</time>
      </trkpt>
      <trkpt lat="59.169173" lon="18.148765">
        <ele>66</ele>
        <time>2019-08-31T08:14:37Z</time>
      </trkpt>
      <trkpt lat="59.169193" lon="18.148732">
        <ele>66</ele>
        <time>2019-08-31T08:14:39Z</time>
      </trkpt>
      <trkpt lat="59.169214" lon="18.148703">
        <ele>66</ele>
        <time>2019-08-31T08:14:40Z</time>
      </trkpt>
      <trkpt lat="59.169234" lon="18.148673">
        <ele>65</ele>
        <time>2019-08-31T08:14:41Z</time>
      </trkpt>
      <trkpt lat="59.169257" lon="18.148649">
        <ele>65</ele>
        <time>2019-08-31T08:14:42Z</time>
      </trkpt>
      <trkpt lat="59.16928" lon="18.148625">
        <ele>65</ele>
        <time>2019-08-31T08:14:43Z</time>
      </trkpt>
      <trkpt lat="59.169302" lon="18.148604">
        <ele>65</ele>
        <time>2019-08-31T08:14:44Z</time>
      </trkpt>
      <trkpt lat="59.169325" lon="18.148587">
        <ele>65</ele>
        <time>2019-08-31T08:14:45Z</time>
      </trkpt>
      <trkpt lat="59.169349" lon="18.148569">
        <ele>65</ele>
        <time>2019-08-31T08:14:46Z</time>
      </trkpt>
      <trkpt lat="59.169373" lon="18.148557">
        <ele>65</ele>
        <time>2019-08-31T08:14:47Z</time>
      </trkpt>
      <trkpt lat="59.169397" lon="18.148549">
        <ele>0</ele>
        <time>2019-08-31T08:14:47Z</time>
      </trkpt>
      <trkpt lat="59.169421" lon="18.148536">
        <ele>65</ele>
        <time>2019-08-31T08:14:48Z</time>
      </trkpt>
      <trkpt lat="59.169446" lon="18.148526">
        <ele>65</ele>
        <time>2019-08-31T08:14:50Z</time>
      </trkpt>
      <trkpt lat="59.169473" lon="18.148516">
        <ele>65</ele>
        <time>2019-08-31T08:14:51Z</time>
      </trkpt>
      <trkpt lat="59.169498" lon="18.14851">
        <ele>66</ele>
        <time>2019-08-31T08:14:52Z</time>
      </trkpt>
      <trkpt lat="59.169522" lon="18.148501">
        <ele>66</ele>
        <time>2019-08-31T08:14:53Z</time>
      </trkpt>
      <trkpt lat="59.169547" lon="18.14849">
        <ele>0</ele>
        <time>2019-08-31T08:14:53Z</time>
      </trkpt>
      <trkpt lat="59.169573" lon="18.148474">
        <ele>66</ele>
        <time>2019-08-31T08:14:55Z</time>
      </trkpt>
      <trkpt lat="59.169598" lon="18.14846">
        <ele>66</ele>
        <time>2019-08-31T08:14:56Z</time>
      </trkpt>
      <trkpt lat="59.169621" lon="18.148443">
        <ele>0</ele>
        <time>2019-08-31T08:14:56Z</time>
      </trkpt>
      <trkpt lat="59.169646" lon="18.148424">
        <ele>66</ele>
        <time>2019-08-31T08:14:57Z</time>
      </trkpt>
      <trkpt lat="59.169671" lon="18.148409">
        <ele>66</ele>
        <time>2019-08-31T08:14:59Z</time>
      </trkpt>
      <trkpt lat="59.169697" lon="18.148397">
        <ele>66</ele>
        <time>2019-08-31T08:15:00Z</time>
      </trkpt>
      <trkpt lat="59.169721" lon="18.148383">
        <ele>0</ele>
        <time>2019-08-31T08:15:00Z</time>
      </trkpt>
      <trkpt lat="59.169748" lon="18.148371">
        <ele>66</ele>
        <time>2019-08-31T08:15:01Z</time>
      </trkpt>
      <trkpt lat="59.169774" lon="18.148362">
        <ele>65</ele>
        <time>2019-08-31T08:15:03Z</time>
      </trkpt>
      <trkpt lat="59.169798" lon="18.148351">
        <ele>65</ele>
        <time>2019-08-31T08:15:04Z</time>
      </trkpt>
      <trkpt lat="59.169824" lon="18.148339">
        <ele>65</ele>
        <time>2019-08-31T08:15:05Z</time>
      </trkpt>
      <trkpt lat="59.16985" lon="18.14833">
        <ele>65</ele>
        <time>2019-08-31T08:15:06Z</time>
      </trkpt>
      <trkpt lat="59.169874" lon="18.14832">
        <ele>65</ele>
        <time>2019-08-31T08:15:07Z</time>
      </trkpt>
      <trkpt lat="59.169897" lon="18.148306">
        <ele>65</ele>
        <time>2019-08-31T08:15:08Z</time>
      </trkpt>
      <trkpt lat="59.16992" lon="18.148295">
        <ele>65</ele>
        <time>2019-08-31T08:15:09Z</time>
      </trkpt>
      <trkpt lat="59.169944" lon="18.148285">
        <ele>65</ele>
        <time>2019-08-31T08:15:10Z</time>
      </trkpt>
      <trkpt lat="59.169971" lon="18.148275">
        <ele>0</ele>
        <time>2019-08-31T08:15:10Z</time>
      </trkpt>
      <trkpt lat="59.169996" lon="18.148263">
        <ele>65</ele>
        <time>2019-08-31T08:15:11Z</time>
      </trkpt>
      <trkpt lat="59.170022" lon="18.148252">
        <ele>0</ele>
        <time>2019-08-31T08:15:12Z</time>
      </trkpt>
      <trkpt lat="59.170046" lon="18.148242">
        <ele>65</ele>
        <time>2019-08-31T08:15:13Z</time>
      </trkpt>
      <trkpt lat="59.170073" lon="18.148237">
        <ele>65</ele>
        <time>2019-08-31T08:15:14Z</time>
      </trkpt>
      <trkpt lat="59.1701" lon="18.148233">
        <ele>65</ele>
        <time>2019-08-31T08:15:16Z</time>
      </trkpt>
      <trkpt lat="59.170128" lon="18.148225">
        <ele>65</ele>
        <time>2019-08-31T08:15:17Z</time>
      </trkpt>
      <trkpt lat="59.170152" lon="18.148217">
        <ele>65</ele>
        <time>2019-08-31T08:15:18Z</time>
      </trkpt>
      <trkpt lat="59.170178" lon="18.148211">
        <ele>65</ele>
        <time>2019-08-31T08:15:19Z</time>
      </trkpt>
      <trkpt lat="59.170204" lon="18.148202">
        <ele>65</ele>
        <time>2019-08-31T08:15:20Z</time>
      </trkpt>
      <trkpt lat="59.17023" lon="18.14819">
        <ele>65</ele>
        <time>2019-08-31T08:15:21Z</time>
      </trkpt>
      <trkpt lat="59.170254" lon="18.148178">
        <ele>0</ele>
        <time>2019-08-31T08:15:21Z</time>
      </trkpt>
      <trkpt lat="59.17028" lon="18.148166">
        <ele>65</ele>
        <time>2019-08-31T08:15:22Z</time>
      </trkpt>
      <trkpt lat="59.170308" lon="18.148157">
        <ele>65</ele>
        <time>2019-08-31T08:15:24Z</time>
      </trkpt>
      <trkpt lat="59.170331" lon="18.148149">
        <ele>0</ele>
        <time>2019-08-31T08:15:24Z</time>
      </trkpt>
      <trkpt lat="59.170356" lon="18.148143">
        <ele>65</ele>
        <time>2019-08-31T08:15:25Z</time>
      </trkpt>
      <trkpt lat="59.17038" lon="18.148134">
        <ele>65</ele>
        <time>2019-08-31T08:15:27Z</time>
      </trkpt>
      <trkpt lat="59.1704" lon="18.148123">
        <ele>65</ele>
        <time>2019-08-31T08:15:28Z</time>
      </trkpt>
      <trkpt lat="59.170421" lon="18.148111">
        <ele>64</ele>
        <time>2019-08-31T08:15:29Z</time>
      </trkpt>
      <trkpt lat="59.170444" lon="18.148099">
        <ele>64</ele>
        <time>2019-08-31T08:15:30Z</time>
      </trkpt>
      <trkpt lat="59.170467" lon="18.148081">
        <ele>64</ele>
        <time>2019-08-31T08:15:31Z</time>
      </trkpt>
      <trkpt lat="59.170492" lon="18.148064">
        <ele>0</ele>
        <time>2019-08-31T08:15:31Z</time>
      </trkpt>
      <trkpt lat="59.170516" lon="18.148049">
        <ele>64</ele>
        <time>2019-08-31T08:15:32Z</time>
      </trkpt>
      <trkpt lat="59.170542" lon="18.148034">
        <ele>64</ele>
        <time>2019-08-31T08:15:33Z</time>
      </trkpt>
      <trkpt lat="59.17057" lon="18.148019">
        <ele>65</ele>
        <time>2019-08-31T08:15:35Z</time>
      </trkpt>
      <trkpt lat="59.170594" lon="18.148003">
        <ele>65</ele>
        <time>2019-08-31T08:15:36Z</time>
      </trkpt>
      <trkpt lat="59.17062" lon="18.147987">
        <ele>64</ele>
        <time>2019-08-31T08:15:37Z</time>
      </trkpt>
      <trkpt lat="59.170646" lon="18.147975">
        <ele>64</ele>
        <time>2019-08-31T08:15:38Z</time>
      </trkpt>
      <trkpt lat="59.170674" lon="18.147959">
        <ele>64</ele>
        <time>2019-08-31T08:15:39Z</time>
      </trkpt>
      <trkpt lat="59.170697" lon="18.14794">
        <ele>64</ele>
        <time>2019-08-31T08:15:40Z</time>
      </trkpt>
      <trkpt lat="59.170723" lon="18.147922">
        <ele>0</ele>
        <time>2019-08-31T08:15:40Z</time>
      </trkpt>
      <trkpt lat="59.170748" lon="18.147919">
        <ele>64</ele>
        <time>2019-08-31T08:15:41Z</time>
      </trkpt>
      <trkpt lat="59.170774" lon="18.14791">
        <ele>64</ele>
        <time>2019-08-31T08:15:43Z</time>
      </trkpt>
      <trkpt lat="59.170798" lon="18.147897">
        <ele>0</ele>
        <time>2019-08-31T08:15:43Z</time>
      </trkpt>
      <trkpt lat="59.170826" lon="18.147883">
        <ele>64</ele>
        <time>2019-08-31T08:15:44Z</time>
      </trkpt>
      <trkpt lat="59.170852" lon="18.147867">
        <ele>63</ele>
        <time>2019-08-31T08:15:46Z</time>
      </trkpt>
      <trkpt lat="59.170878" lon="18.147853">
        <ele>63</ele>
        <time>2019-08-31T08:15:47Z</time>
      </trkpt>
      <trkpt lat="59.170906" lon="18.147842">
        <ele>63</ele>
        <time>2019-08-31T08:15:48Z</time>
      </trkpt>
      <trkpt lat="59.170934" lon="18.147831">
        <ele>63</ele>
        <time>2019-08-31T08:15:49Z</time>
      </trkpt>
      <trkpt lat="59.170959" lon="18.147821">
        <ele>63</ele>
        <time>2019-08-31T08:15:50Z</time>
      </trkpt>
      <trkpt lat="59.170986" lon="18.14781">
        <ele>0</ele>
        <time>2019-08-31T08:15:50Z</time>
      </trkpt>
      <trkpt lat="59.17101" lon="18.147796">
        <ele>63</ele>
        <time>2019-08-31T08:15:51Z</time>
      </trkpt>
      <trkpt lat="59.171033" lon="18.147783">
        <ele>63</ele>
        <time>2019-08-31T08:15:52Z</time>
      </trkpt>
      <trkpt lat="59.171058" lon="18.147769">
        <ele>63</ele>
        <time>2019-08-31T08:15:54Z</time>
      </trkpt>
      <trkpt lat="59.171082" lon="18.14776">
        <ele>63</ele>
        <time>2019-08-31T08:15:55Z</time>
      </trkpt>
      <trkpt lat="59.171103" lon="18.147744">
        <ele>64</ele>
        <time>2019-08-31T08:15:56Z</time>
      </trkpt>
      <trkpt lat="59.171129" lon="18.147726">
        <ele>0</ele>
        <time>2019-08-31T08:15:56Z</time>
      </trkpt>
      <trkpt lat="59.171156" lon="18.147712">
        <ele>64</ele>
        <time>2019-08-31T08:15:57Z</time>
      </trkpt>
      <trkpt lat="59.171182" lon="18.147702">
        <ele>64</ele>
        <time>2019-08-31T08:15:59Z</time>
      </trkpt>
      <trkpt lat="59.171207" lon="18.147694">
        <ele>0</ele>
        <time>2019-08-31T08:15:59Z</time>
      </trkpt>
      <trkpt lat="59.171234" lon="18.147686">
        <ele>64</ele>
        <time>2019-08-31T08:16:00Z</time>
      </trkpt>
      <trkpt lat="59.171257" lon="18.14768">
        <ele>65</ele>
        <time>2019-08-31T08:16:01Z</time>
      </trkpt>
      <trkpt lat="59.171282" lon="18.147677">
        <ele>65</ele>
        <time>2019-08-31T08:16:03Z</time>
      </trkpt>
      <trkpt lat="59.171309" lon="18.147682">
        <ele>0</ele>
        <time>2019-08-31T08:16:03Z</time>
      </trkpt>
      <trkpt lat="59.171335" lon="18.147688">
        <ele>66</ele>
        <time>2019-08-31T08:16:04Z</time>
      </trkpt>
      <trkpt lat="59.171363" lon="18.147694">
        <ele>65</ele>
        <time>2019-08-31T08:16:06Z</time>
      </trkpt>
      <trkpt lat="59.171392" lon="18.147702">
        <ele>0</ele>
        <time>2019-08-31T08:16:06Z</time>
      </trkpt>
      <trkpt lat="59.171421" lon="18.147707">
        <ele>65</ele>
        <time>2019-08-31T08:16:07Z</time>
      </trkpt>
      <trkpt lat="59.171449" lon="18.147706">
        <ele>65</ele>
        <time>2019-08-31T08:16:09Z</time>
      </trkpt>
      <trkpt lat="59.171476" lon="18.147695">
        <ele>0</ele>
        <time>2019-08-31T08:16:09Z</time>
      </trkpt>
      <trkpt lat="59.171505" lon="18.147683">
        <ele>65</ele>
        <time>2019-08-31T08:16:10Z</time>
      </trkpt>
      <trkpt lat="59.171533" lon="18.147669">
        <ele>65</ele>
        <time>2019-08-31T08:16:11Z</time>
      </trkpt>
      <trkpt lat="59.171562" lon="18.147654">
        <ele>64</ele>
        <time>2019-08-31T08:16:13Z</time>
      </trkpt>
      <trkpt lat="59.171589" lon="18.147643">
        <ele>64</ele>
        <time>2019-08-31T08:16:14Z</time>
      </trkpt>
      <trkpt lat="59.171612" lon="18.147632">
        <ele>64</ele>
        <time>2019-08-31T08:16:15Z</time>
      </trkpt>
      <trkpt lat="59.171637" lon="18.147628">
        <ele>0</ele>
        <time>2019-08-31T08:16:15Z</time>
      </trkpt>
      <trkpt lat="59.171663" lon="18.147617">
        <ele>64</ele>
        <time>2019-08-31T08:16:16Z</time>
      </trkpt>
      <trkpt lat="59.171688" lon="18.1476">
        <ele>64</ele>
        <time>2019-08-31T08:16:18Z</time>
      </trkpt>
      <trkpt lat="59.171713" lon="18.147583">
        <ele>0</ele>
        <time>2019-08-31T08:16:18Z</time>
      </trkpt>
      <trkpt lat="59.171738" lon="18.147567">
        <ele>64</ele>
        <time>2019-08-31T08:16:19Z</time>
      </trkpt>
      <trkpt lat="59.171763" lon="18.147547">
        <ele>64</ele>
        <time>2019-08-31T08:16:21Z</time>
      </trkpt>
      <trkpt lat="59.171787" lon="18.147532">
        <ele>64</ele>
        <time>2019-08-31T08:16:22Z</time>
      </trkpt>
      <trkpt lat="59.171811" lon="18.147516">
        <ele>63</ele>
        <time>2019-08-31T08:16:23Z</time>
      </trkpt>
      <trkpt lat="59.171832" lon="18.147502">
        <ele>63</ele>
        <time>2019-08-31T08:16:24Z</time>
      </trkpt>
      <trkpt lat="59.171855" lon="18.147484">
        <ele>63</ele>
        <time>2019-08-31T08:16:25Z</time>
      </trkpt>
      <trkpt lat="59.171879" lon="18.147465">
        <ele>63</ele>
        <time>2019-08-31T08:16:26Z</time>
      </trkpt>
      <trkpt lat="59.171904" lon="18.147447">
        <ele>0</ele>
        <time>2019-08-31T08:16:26Z</time>
      </trkpt>
      <trkpt lat="59.171929" lon="18.147429">
        <ele>63</ele>
        <time>2019-08-31T08:16:27Z</time>
      </trkpt>
      <trkpt lat="59.171954" lon="18.14741">
        <ele>0</ele>
        <time>2019-08-31T08:16:28Z</time>
      </trkpt>
      <trkpt lat="59.171978" lon="18.147393">
        <ele>63</ele>
        <time>2019-08-31T08:16:29Z</time>
      </trkpt>
      <trkpt lat="59.172003" lon="18.147371">
        <ele>63</ele>
        <time>2019-08-31T08:16:30Z</time>
      </trkpt>
      <trkpt lat="59.172025" lon="18.147349">
        <ele>63</ele>
        <time>2019-08-31T08:16:32Z</time>
      </trkpt>
      <trkpt lat="59.17205" lon="18.147328">
        <ele>63</ele>
        <time>2019-08-31T08:16:33Z</time>
      </trkpt>
      <trkpt lat="59.172077" lon="18.147302">
        <ele>63</ele>
        <time>2019-08-31T08:16:34Z</time>
      </trkpt>
      <trkpt lat="59.172102" lon="18.147279">
        <ele>0</ele>
        <time>2019-08-31T08:16:34Z</time>
      </trkpt>
      <trkpt lat="59.172126" lon="18.147259">
        <ele>63</ele>
        <time>2019-08-31T08:16:35Z</time>
      </trkpt>
      <trkpt lat="59.172149" lon="18.147237">
        <ele>63</ele>
        <time>2019-08-31T08:16:37Z</time>
      </trkpt>
      <trkpt lat="59.172171" lon="18.147211">
        <ele>0</ele>
        <time>2019-08-31T08:16:37Z</time>
      </trkpt>
      <trkpt lat="59.172194" lon="18.147188">
        <ele>63</ele>
        <time>2019-08-31T08:16:38Z</time>
      </trkpt>
      <trkpt lat="59.172219" lon="18.147165">
        <ele>62</ele>
        <time>2019-08-31T08:16:40Z</time>
      </trkpt>
      <trkpt lat="59.17224" lon="18.147143">
        <ele>62</ele>
        <time>2019-08-31T08:16:41Z</time>
      </trkpt>
      <trkpt lat="59.172264" lon="18.147124">
        <ele>62</ele>
        <time>2019-08-31T08:16:42Z</time>
      </trkpt>
      <trkpt lat="59.17229" lon="18.147106">
        <ele>62</ele>
        <time>2019-08-31T08:16:43Z</time>
      </trkpt>
      <trkpt lat="59.172314" lon="18.147088">
        <ele>62</ele>
        <time>2019-08-31T08:16:44Z</time>
      </trkpt>
      <trkpt lat="59.172337" lon="18.147068">
        <ele>62</ele>
        <time>2019-08-31T08:16:45Z</time>
      </trkpt>
      <trkpt lat="59.172357" lon="18.147049">
        <ele>0</ele>
        <time>2019-08-31T08:16:45Z</time>
      </trkpt>
      <trkpt lat="59.17238" lon="18.147031">
        <ele>61</ele>
        <time>2019-08-31T08:16:46Z</time>
      </trkpt>
      <trkpt lat="59.172403" lon="18.14701">
        <ele>0</ele>
        <time>2019-08-31T08:16:47Z</time>
      </trkpt>
      <trkpt lat="59.172428" lon="18.146989">
        <ele>61</ele>
        <time>2019-08-31T08:16:48Z</time>
      </trkpt>
      <trkpt lat="59.172453" lon="18.146972">
        <ele>61</ele>
        <time>2019-08-31T08:16:49Z</time>
      </trkpt>
      <trkpt lat="59.172478" lon="18.14695">
        <ele>61</ele>
        <time>2019-08-31T08:16:51Z</time>
      </trkpt>
      <trkpt lat="59.172504" lon="18.146932">
        <ele>60</ele>
        <time>2019-08-31T08:16:52Z</time>
      </trkpt>
      <trkpt lat="59.17253" lon="18.14691">
        <ele>60</ele>
        <time>2019-08-31T08:16:53Z</time>
      </trkpt>
      <trkpt lat="59.172558" lon="18.146889">
        <ele>60</ele>
        <time>2019-08-31T08:16:54Z</time>
      </trkpt>
      <trkpt lat="59.172586" lon="18.146868">
        <ele>60</ele>
        <time>2019-08-31T08:16:55Z</time>
      </trkpt>
      <trkpt lat="59.172611" lon="18.146844">
        <ele>60</ele>
        <time>2019-08-31T08:16:56Z</time>
      </trkpt>
      <trkpt lat="59.172636" lon="18.146816">
        <ele>0</ele>
        <time>2019-08-31T08:16:56Z</time>
      </trkpt>
      <trkpt lat="59.172659" lon="18.146791">
        <ele>60</ele>
        <time>2019-08-31T08:16:57Z</time>
      </trkpt>
      <trkpt lat="59.172684" lon="18.146764">
        <ele>60</ele>
        <time>2019-08-31T08:16:59Z</time>
      </trkpt>
      <trkpt lat="59.17271" lon="18.146738">
        <ele>60</ele>
        <time>2019-08-31T08:17:00Z</time>
      </trkpt>
      <trkpt lat="59.172735" lon="18.146714">
        <ele>60</ele>
        <time>2019-08-31T08:17:01Z</time>
      </trkpt>
      <trkpt lat="59.17276" lon="18.146686">
        <ele>60</ele>
        <time>2019-08-31T08:17:02Z</time>
      </trkpt>
      <trkpt lat="59.172785" lon="18.146661">
        <ele>60</ele>
        <time>2019-08-31T08:17:03Z</time>
      </trkpt>
      <trkpt lat="59.172809" lon="18.146636">
        <ele>60</ele>
        <time>2019-08-31T08:17:04Z</time>
      </trkpt>
      <trkpt lat="59.172834" lon="18.146619">
        <ele>59</ele>
        <time>2019-08-31T08:17:05Z</time>
      </trkpt>
      <trkpt lat="59.172858" lon="18.146598">
        <ele>59</ele>
        <time>2019-08-31T08:17:06Z</time>
      </trkpt>
      <trkpt lat="59.172881" lon="18.146577">
        <ele>0</ele>
        <time>2019-08-31T08:17:06Z</time>
      </trkpt>
      <trkpt lat="59.172903" lon="18.146549">
        <ele>59</ele>
        <time>2019-08-31T08:17:08Z</time>
      </trkpt>
      <trkpt lat="59.172922" lon="18.146511">
        <ele>59</ele>
        <time>2019-08-31T08:17:08Z</time>
      </trkpt>
      <trkpt lat="59.172934" lon="18.146465">
        <ele>60</ele>
        <time>2019-08-31T08:17:10Z</time>
      </trkpt>
      <trkpt lat="59.172939" lon="18.146415">
        <ele>60</ele>
        <time>2019-08-31T08:17:11Z</time>
      </trkpt>
      <trkpt lat="59.172939" lon="18.146368">
        <ele>60</ele>
        <time>2019-08-31T08:17:12Z</time>
      </trkpt>
      <trkpt lat="59.172941" lon="18.146319">
        <ele>60</ele>
        <time>2019-08-31T08:17:13Z</time>
      </trkpt>
      <trkpt lat="59.172945" lon="18.146268">
        <ele>60</ele>
        <time>2019-08-31T08:17:14Z</time>
      </trkpt>
      <trkpt lat="59.172946" lon="18.146217">
        <ele>60</ele>
        <time>2019-08-31T08:17:15Z</time>
      </trkpt>
      <trkpt lat="59.172948" lon="18.146163">
        <ele>60</ele>
        <time>2019-08-31T08:17:16Z</time>
      </trkpt>
      <trkpt lat="59.172949" lon="18.14611">
        <ele>60</ele>
        <time>2019-08-31T08:17:17Z</time>
      </trkpt>
      <trkpt lat="59.172948" lon="18.146057">
        <ele>61</ele>
        <time>2019-08-31T08:17:18Z</time>
      </trkpt>
      <trkpt lat="59.172947" lon="18.146008">
        <ele>0</ele>
        <time>2019-08-31T08:17:18Z</time>
      </trkpt>
      <trkpt lat="59.172945" lon="18.145958">
        <ele>61</ele>
        <time>2019-08-31T08:17:19Z</time>
      </trkpt>
      <trkpt lat="59.172942" lon="18.145905">
        <ele>61</ele>
        <time>2019-08-31T08:17:21Z</time>
      </trkpt>
      <trkpt lat="59.172942" lon="18.145853">
        <ele>62</ele>
        <time>2019-08-31T08:17:22Z</time>
      </trkpt>
      <trkpt lat="59.172945" lon="18.145802">
        <ele>62</ele>
        <time>2019-08-31T08:17:23Z</time>
      </trkpt>
      <trkpt lat="59.17295" lon="18.145752">
        <ele>62</ele>
        <time>2019-08-31T08:17:24Z</time>
      </trkpt>
      <trkpt lat="59.172955" lon="18.145703">
        <ele>62</ele>
        <time>2019-08-31T08:17:25Z</time>
      </trkpt>
      <trkpt lat="59.17296" lon="18.145655">
        <ele>0</ele>
        <time>2019-08-31T08:17:25Z</time>
      </trkpt>
      <trkpt lat="59.172964" lon="18.145605">
        <ele>62</ele>
        <time>2019-08-31T08:17:27Z</time>
      </trkpt>
      <trkpt lat="59.172969" lon="18.145555">
        <ele>0</ele>
        <time>2019-08-31T08:17:27Z</time>
      </trkpt>
      <trkpt lat="59.172975" lon="18.145506">
        <ele>62</ele>
        <time>2019-08-31T08:17:28Z</time>
      </trkpt>
      <trkpt lat="59.172982" lon="18.145456">
        <ele>62</ele>
        <time>2019-08-31T08:17:30Z</time>
      </trkpt>
      <trkpt lat="59.17299" lon="18.145407">
        <ele>62</ele>
        <time>2019-08-31T08:17:31Z</time>
      </trkpt>
      <trkpt lat="59.172998" lon="18.145361">
        <ele>63</ele>
        <time>2019-08-31T08:17:32Z</time>
      </trkpt>
      <trkpt lat="59.173007" lon="18.145319">
        <ele>63</ele>
        <time>2019-08-31T08:17:33Z</time>
      </trkpt>
      <trkpt lat="59.173016" lon="18.145273">
        <ele>63</ele>
        <time>2019-08-31T08:17:34Z</time>
      </trkpt>
      <trkpt lat="59.173023" lon="18.145223">
        <ele>63</ele>
        <time>2019-08-31T08:17:35Z</time>
      </trkpt>
      <trkpt lat="59.173029" lon="18.145174">
        <ele>64</ele>
        <time>2019-08-31T08:17:36Z</time>
      </trkpt>
      <trkpt lat="59.173033" lon="18.145122">
        <ele>64</ele>
        <time>2019-08-31T08:17:37Z</time>
      </trkpt>
      <trkpt lat="59.17304" lon="18.145075">
        <ele>64</ele>
        <time>2019-08-31T08:17:38Z</time>
      </trkpt>
      <trkpt lat="59.173047" lon="18.145031">
        <ele>0</ele>
        <time>2019-08-31T08:17:38Z</time>
      </trkpt>
      <trkpt lat="59.173054" lon="18.144984">
        <ele>64</ele>
        <time>2019-08-31T08:17:39Z</time>
      </trkpt>
      <trkpt lat="59.173059" lon="18.144937">
        <ele>65</ele>
        <time>2019-08-31T08:17:41Z</time>
      </trkpt>
      <trkpt lat="59.173064" lon="18.14489">
        <ele>65</ele>
        <time>2019-08-31T08:17:42Z</time>
      </trkpt>
      <trkpt lat="59.173068" lon="18.144841">
        <ele>65</ele>
        <time>2019-08-31T08:17:43Z</time>
      </trkpt>
      <trkpt lat="59.173073" lon="18.144792">
        <ele>66</ele>
        <time>2019-08-31T08:17:44Z</time>
      </trkpt>
      <trkpt lat="59.173077" lon="18.144746">
        <ele>0</ele>
        <time>2019-08-31T08:17:44Z</time>
      </trkpt>
      <trkpt lat="59.173081" lon="18.144699">
        <ele>66</ele>
        <time>2019-08-31T08:17:45Z</time>
      </trkpt>
      <trkpt lat="59.173086" lon="18.14465">
        <ele>66</ele>
        <time>2019-08-31T08:17:46Z</time>
      </trkpt>
      <trkpt lat="59.173091" lon="18.144604">
        <ele>66</ele>
        <time>2019-08-31T08:17:48Z</time>
      </trkpt>
      <trkpt lat="59.173095" lon="18.144558">
        <ele>67</ele>
        <time>2019-08-31T08:17:49Z</time>
      </trkpt>
      <trkpt lat="59.173102" lon="18.144509">
        <ele>67</ele>
        <time>2019-08-31T08:17:50Z</time>
      </trkpt>
      <trkpt lat="59.173108" lon="18.144465">
        <ele>67</ele>
        <time>2019-08-31T08:17:51Z</time>
      </trkpt>
      <trkpt lat="59.173117" lon="18.144422">
        <ele>67</ele>
        <time>2019-08-31T08:17:52Z</time>
      </trkpt>
      <trkpt lat="59.17313" lon="18.144384">
        <ele>67</ele>
        <time>2019-08-31T08:17:53Z</time>
      </trkpt>
      <trkpt lat="59.173141" lon="18.144341">
        <ele>0</ele>
        <time>2019-08-31T08:17:53Z</time>
      </trkpt>
      <trkpt lat="59.173152" lon="18.144295">
        <ele>66</ele>
        <time>2019-08-31T08:17:54Z</time>
      </trkpt>
      <trkpt lat="59.173165" lon="18.144234">
        <ele>66</ele>
        <time>2019-08-31T08:17:55Z</time>
      </trkpt>
      <trkpt lat="59.173181" lon="18.144169">
        <ele>66</ele>
        <time>2019-08-31T08:17:56Z</time>
      </trkpt>
      <trkpt lat="59.17319" lon="18.144103">
        <ele>66</ele>
        <time>2019-08-31T08:17:58Z</time>
      </trkpt>
      <trkpt lat="59.173204" lon="18.144049">
        <ele>66</ele>
        <time>2019-08-31T08:17:59Z</time>
      </trkpt>
      <trkpt lat="59.173216" lon="18.144001">
        <ele>66</ele>
        <time>2019-08-31T08:18:00Z</time>
      </trkpt>
      <trkpt lat="59.173224" lon="18.143955">
        <ele>66</ele>
        <time>2019-08-31T08:18:01Z</time>
      </trkpt>
      <trkpt lat="59.173232" lon="18.143905">
        <ele>67</ele>
        <time>2019-08-31T08:18:02Z</time>
      </trkpt>
      <trkpt lat="59.173243" lon="18.143866">
        <ele>67</ele>
        <time>2019-08-31T08:18:03Z</time>
      </trkpt>
      <trkpt lat="59.173252" lon="18.143831">
        <ele>0</ele>
        <time>2019-08-31T08:18:03Z</time>
      </trkpt>
      <trkpt lat="59.173261" lon="18.143791">
        <ele>67</ele>
        <time>2019-08-31T08:18:04Z</time>
      </trkpt>
      <trkpt lat="59.173274" lon="18.143743">
        <ele>67</ele>
        <time>2019-08-31T08:18:05Z</time>
      </trkpt>
      <trkpt lat="59.173287" lon="18.143699">
        <ele>67</ele>
        <time>2019-08-31T08:18:07Z</time>
      </trkpt>
      <trkpt lat="59.173297" lon="18.143651">
        <ele>68</ele>
        <time>2019-08-31T08:18:08Z</time>
      </trkpt>
      <trkpt lat="59.173304" lon="18.143602">
        <ele>68</ele>
        <time>2019-08-31T08:18:09Z</time>
      </trkpt>
      <trkpt lat="59.173306" lon="18.143552">
        <ele>0</ele>
        <time>2019-08-31T08:18:09Z</time>
      </trkpt>
      <trkpt lat="59.173309" lon="18.143503">
        <ele>68</ele>
        <time>2019-08-31T08:18:10Z</time>
      </trkpt>
      <trkpt lat="59.173304" lon="18.143452">
        <ele>68</ele>
        <time>2019-08-31T08:18:12Z</time>
      </trkpt>
      <trkpt lat="59.173302" lon="18.143402">
        <ele>0</ele>
        <time>2019-08-31T08:18:12Z</time>
      </trkpt>
      <trkpt lat="59.173305" lon="18.14336">
        <ele>68</ele>
        <time>2019-08-31T08:18:13Z</time>
      </trkpt>
      <trkpt lat="59.173308" lon="18.143327">
        <ele>0</ele>
        <time>2019-08-31T08:18:14Z</time>
      </trkpt>
    </trkseg>
  </trk>
</gpx>